[[{"header":{"parameterUnit":"m.s-1","parameterCategory":1,"la1":30.6,"la2":29.2853,"lo1":-89.7004,"lo2":-87.6739,"dy":0.0162,"dx":0.0183,"nx":112,"ny":82,"refTime":"2024-04-03T18:00:00:Z","depth":0,"parameterNumber":2,"parameterNumberName":"U-component_of_WINDS"},"data":[0.0,0.0,0.0,0.0,0.0,0.0,0.0,0.0,0.0,0.0,0.0,0.0,0.0,0.0,0.0,0.0,0.0,0.0,0.0,0.0,0.0,0.0,0.0,0.0,0.0,0.0,0.0,0.0,0.0,0.0,0.0,0.0,0.0,0.0,0.0,0.0,0.0,0.0,0.0,0.0,0.0,0.0,0.0,0.0,0.0,0.0,0.0,0.0,0.0,0.0,0.0,0.0,0.0,0.0,0.0,0.0,0.0,0.0,0.0,0.0,0.0,0.0,0.0,0.0,0.0,0.0,0.0,0.0,0.0,0.0,0.0,0.0,0.0,0.0,0.0,0.0,0.0,0.0,0.0,0.0,0.0,0.0,0.0,0.0,0.0,0.0,0.0,0.0,0.0,0.0,-5.2769,-5.2623,-5.1952,-5.1413,-5.1158,-5.0417,-4.9612,-4.8829,0.0,0.0,0.0,0.0,0.0,0.0,0.0,0.0,0.0,0.0,0.0,0.0,0.0,0.0,0.0,0.0,0.0,0.0,0.0,0.0,0.0,0.0,0.0,0.0,0.0,0.0,0.0,0.0,0.0,0.0,0.0,0.0,0.0,0.0,0.0,0.0,0.0,0.0,0.0,0.0,0.0,0.0,0.0,0.0,0.0,0.0,0.0,0.0,0.0,0.0,0.0,0.0,0.0,0.0,0.0,0.0,0.0,0.0,0.0,0.0,0.0,0.0,0.0,0.0,0.0,0.0,0.0,0.0,0.0,0.0,0.0,0.0,0.0,0.0,0.0,0.0,0.0,0.0,0.0,0.0,0.0,0.0,0.0,0.0,0.0,0.0,0.0,0.0,0.0,0.0,0.0,0.0,0.0,0.0,0.0,0.0,0.0,0.0,0.0,0.0,0.0,0.0,0.0,0.0,-5.255,-5.1857,-5.1653,-5.1034,-4.9664,-4.9409,-4.8987,-4.8207,0.0,0.0,0.0,0.0,0.0,0.0,0.0,0.0,0.0,0.0,0.0,0.0,0.0,0.0,0.0,0.0,0.0,0.0,0.0,0.0,0.0,0.0,0.0,0.0,0.0,0.0,0.0,0.0,0.0,0.0,0.0,0.0,0.0,0.0,0.0,0.0,0.0,0.0,0.0,0.0,0.0,0.0,0.0,0.0,0.0,0.0,0.0,0.0,0.0,0.0,0.0,0.0,0.0,0.0,0.0,0.0,0.0,0.0,0.0,0.0,0.0,0.0,0.0,0.0,0.0,0.0,0.0,0.0,0.0,0.0,0.0,0.0,0.0,0.0,0.0,0.0,0.0,0.0,0.0,0.0,0.0,0.0,0.0,0.0,0.0,0.0,0.0,0.0,0.0,0.0,0.0,0.0,0.0,0.0,0.0,0.0,0.0,0.0,0.0,0.0,0.0,0.0,0.0,-5.2615,-5.2233,-5.1867,-5.0963,-5.0117,-4.9387,-4.8835,-4.8393,-4.8028,-4.8254,0.0,0.0,0.0,0.0,0.0,0.0,0.0,0.0,0.0,0.0,0.0,0.0,0.0,0.0,0.0,0.0,0.0,0.0,0.0,0.0,0.0,0.0,0.0,0.0,0.0,0.0,0.0,0.0,0.0,0.0,0.0,0.0,0.0,0.0,0.0,0.0,0.0,0.0,0.0,0.0,0.0,0.0,0.0,0.0,0.0,0.0,0.0,0.0,0.0,0.0,0.0,0.0,0.0,0.0,0.0,0.0,0.0,0.0,0.0,0.0,0.0,0.0,0.0,0.0,0.0,0.0,0.0,0.0,0.0,0.0,0.0,0.0,0.0,0.0,0.0,0.0,0.0,0.0,0.0,0.0,0.0,0.0,0.0,0.0,0.0,0.0,0.0,0.0,0.0,0.0,0.0,0.0,0.0,0.0,0.0,0.0,0.0,0.0,0.0,0.0,0.0,0.0,-5.2297,-5.1726,-5.1426,-5.0208,-4.9322,-4.9001,-4.8259,-4.7834,-4.7875,-4.7772,0.0,0.0,0.0,0.0,0.0,0.0,0.0,0.0,0.0,0.0,0.0,0.0,0.0,0.0,0.0,0.0,0.0,0.0,0.0,0.0,0.0,0.0,0.0,0.0,0.0,0.0,0.0,0.0,0.0,0.0,0.0,0.0,0.0,0.0,0.0,0.0,0.0,0.0,0.0,0.0,0.0,0.0,0.0,0.0,0.0,0.0,0.0,0.0,0.0,0.0,0.0,0.0,0.0,0.0,0.0,0.0,0.0,0.0,0.0,0.0,0.0,0.0,0.0,0.0,0.0,0.0,0.0,0.0,0.0,0.0,0.0,0.0,0.0,0.0,0.0,0.0,0.0,0.0,0.0,0.0,0.0,0.0,0.0,0.0,0.0,0.0,0.0,0.0,0.0,0.0,0.0,0.0,0.0,0.0,0.0,0.0,0.0,0.0,0.0,0.0,0.0,0.0,-5.1617,-5.0853,-4.9771,-4.9627,-4.9065,-4.7819,-4.7442,-4.7363,-4.7611,-4.7115,0.0,0.0,0.0,0.0,0.0,0.0,0.0,0.0,0.0,0.0,0.0,0.0,0.0,0.0,0.0,0.0,0.0,0.0,0.0,0.0,0.0,0.0,0.0,0.0,0.0,0.0,0.0,0.0,0.0,0.0,0.0,0.0,0.0,0.0,0.0,0.0,0.0,0.0,0.0,0.0,0.0,0.0,0.0,0.0,0.0,0.0,0.0,0.0,0.0,0.0,0.0,0.0,0.0,0.0,0.0,0.0,0.0,0.0,0.0,0.0,0.0,0.0,0.0,0.0,0.0,0.0,0.0,0.0,0.0,0.0,0.0,0.0,0.0,0.0,0.0,0.0,0.0,0.0,0.0,0.0,0.0,0.0,0.0,0.0,0.0,0.0,0.0,0.0,0.0,0.0,0.0,0.0,0.0,0.0,0.0,0.0,0.0,0.0,0.0,0.0,0.0,0.0,-4.9991,-4.9104,0.0,-4.8201,-4.7717,-4.7218,-4.7071,-4.7204,-4.7569,0.0,0.0,0.0,0.0,0.0,0.0,0.0,0.0,0.0,0.0,0.0,0.0,0.0,0.0,0.0,0.0,0.0,0.0,0.0,0.0,0.0,0.0,0.0,0.0,0.0,0.0,0.0,0.0,0.0,0.0,0.0,0.0,0.0,0.0,0.0,0.0,0.0,0.0,0.0,0.0,0.0,0.0,0.0,0.0,0.0,0.0,0.0,0.0,0.0,0.0,0.0,0.0,0.0,0.0,0.0,0.0,0.0,0.0,0.0,0.0,0.0,0.0,0.0,0.0,0.0,0.0,0.0,0.0,0.0,0.0,0.0,0.0,0.0,0.0,0.0,0.0,0.0,0.0,0.0,0.0,0.0,0.0,0.0,0.0,0.0,0.0,0.0,0.0,0.0,0.0,0.0,0.0,0.0,0.0,0.0,0.0,0.0,0.0,0.0,0.0,0.0,0.0,-4.9758,-4.8591,-4.7903,0.0,-4.7354,-4.6929,-4.7015,-4.6637,-4.6554,-4.699,0.0,0.0,0.0,0.0,0.0,0.0,0.0,0.0,0.0,0.0,0.0,0.0,0.0,0.0,0.0,0.0,0.0,0.0,0.0,0.0,0.0,0.0,0.0,0.0,0.0,0.0,0.0,0.0,0.0,0.0,0.0,0.0,0.0,0.0,0.0,0.0,0.0,0.0,0.0,0.0,0.0,0.0,0.0,0.0,0.0,0.0,0.0,0.0,0.0,0.0,0.0,0.0,0.0,0.0,0.0,0.0,0.0,0.0,0.0,0.0,0.0,0.0,0.0,0.0,0.0,0.0,0.0,0.0,0.0,0.0,0.0,0.0,0.0,0.0,0.0,0.0,0.0,0.0,0.0,0.0,0.0,0.0,0.0,0.0,0.0,0.0,0.0,0.0,0.0,0.0,0.0,0.0,0.0,0.0,0.0,0.0,0.0,0.0,0.0,0.0,0.0,0.0,-4.82,-4.7614,-4.7467,-4.7915,-4.7344,-4.7015,-4.7282,-4.6083,-4.5425,0.0,0.0,0.0,0.0,0.0,0.0,0.0,0.0,0.0,0.0,0.0,0.0,0.0,0.0,0.0,0.0,0.0,0.0,0.0,0.0,0.0,0.0,0.0,0.0,0.0,0.0,0.0,0.0,0.0,0.0,0.0,0.0,0.0,0.0,0.0,0.0,0.0,0.0,0.0,0.0,0.0,0.0,0.0,0.0,0.0,0.0,0.0,0.0,0.0,0.0,0.0,0.0,0.0,0.0,0.0,0.0,0.0,0.0,0.0,0.0,0.0,0.0,0.0,0.0,0.0,0.0,0.0,0.0,0.0,0.0,0.0,0.0,0.0,0.0,0.0,0.0,0.0,0.0,0.0,0.0,0.0,0.0,0.0,0.0,0.0,0.0,0.0,0.0,0.0,0.0,0.0,0.0,0.0,0.0,0.0,0.0,0.0,0.0,0.0,0.0,0.0,0.0,0.0,-4.7125,-4.6908,-4.6855,-4.6978,-4.7283,-4.7273,-4.6837,-4.6435,-4.6047,-4.5708,0.0,0.0,0.0,0.0,0.0,0.0,0.0,0.0,0.0,0.0,0.0,0.0,0.0,0.0,0.0,0.0,0.0,0.0,0.0,0.0,0.0,0.0,0.0,0.0,0.0,0.0,0.0,0.0,0.0,0.0,0.0,0.0,0.0,0.0,0.0,0.0,0.0,0.0,0.0,0.0,0.0,0.0,0.0,0.0,0.0,0.0,0.0,0.0,0.0,0.0,0.0,0.0,0.0,0.0,0.0,0.0,0.0,0.0,0.0,0.0,0.0,0.0,0.0,0.0,0.0,0.0,0.0,0.0,0.0,0.0,0.0,0.0,0.0,0.0,0.0,0.0,0.0,0.0,0.0,0.0,0.0,0.0,0.0,0.0,0.0,0.0,0.0,0.0,0.0,0.0,0.0,0.0,0.0,0.0,0.0,0.0,0.0,0.0,0.0,0.0,0.0,0.0,-4.6623,-4.6596,-4.6837,-4.7424,-4.7603,-4.7527,-4.7079,-4.655,-4.5946,-4.5249,0.0,0.0,0.0,0.0,0.0,0.0,0.0,0.0,0.0,0.0,0.0,0.0,0.0,0.0,0.0,0.0,0.0,0.0,0.0,0.0,0.0,0.0,0.0,0.0,0.0,0.0,0.0,0.0,0.0,0.0,0.0,0.0,0.0,0.0,0.0,0.0,0.0,0.0,0.0,0.0,0.0,0.0,0.0,0.0,0.0,0.0,0.0,0.0,0.0,0.0,0.0,0.0,0.0,0.0,0.0,0.0,0.0,0.0,0.0,0.0,0.0,0.0,0.0,0.0,0.0,0.0,0.0,0.0,0.0,0.0,0.0,0.0,0.0,0.0,0.0,0.0,0.0,0.0,0.0,0.0,0.0,0.0,0.0,0.0,0.0,0.0,0.0,0.0,0.0,0.0,0.0,0.0,0.0,0.0,0.0,0.0,0.0,0.0,0.0,0.0,0.0,0.0,-4.6596,-4.6734,-4.732,-4.8637,-4.8258,-4.7879,-4.7748,-4.6584,-4.549,-4.4598,0.0,0.0,0.0,0.0,0.0,0.0,0.0,0.0,0.0,0.0,0.0,0.0,0.0,0.0,0.0,0.0,0.0,0.0,0.0,0.0,0.0,0.0,0.0,0.0,0.0,0.0,0.0,0.0,0.0,0.0,0.0,0.0,0.0,0.0,0.0,0.0,0.0,0.0,0.0,0.0,0.0,0.0,0.0,0.0,0.0,0.0,0.0,0.0,0.0,0.0,0.0,0.0,0.0,0.0,0.0,0.0,0.0,0.0,0.0,0.0,-5.3391,0.0,0.0,0.0,0.0,0.0,0.0,0.0,0.0,0.0,0.0,0.0,0.0,0.0,0.0,0.0,0.0,0.0,0.0,0.0,0.0,0.0,0.0,0.0,0.0,0.0,0.0,0.0,0.0,0.0,0.0,0.0,0.0,0.0,0.0,0.0,0.0,0.0,0.0,0.0,0.0,0.0,-4.6596,-4.7603,-4.843,-4.8775,-4.9252,-4.9137,-4.8254,-4.7387,-4.635,-4.5119,-4.4403,0.0,0.0,0.0,0.0,0.0,0.0,0.0,0.0,0.0,0.0,0.0,0.0,0.0,0.0,0.0,0.0,0.0,0.0,0.0,0.0,0.0,0.0,0.0,0.0,0.0,0.0,0.0,0.0,0.0,0.0,0.0,0.0,0.0,0.0,0.0,0.0,0.0,0.0,0.0,0.0,0.0,0.0,0.0,0.0,0.0,0.0,0.0,0.0,0.0,0.0,0.0,0.0,0.0,0.0,0.0,0.0,0.0,0.0,0.0,0.0,-5.3701,0.0,0.0,0.0,0.0,0.0,0.0,0.0,0.0,0.0,0.0,0.0,0.0,0.0,0.0,0.0,0.0,0.0,0.0,0.0,0.0,0.0,0.0,0.0,0.0,0.0,0.0,0.0,0.0,0.0,0.0,0.0,0.0,0.0,0.0,0.0,0.0,0.0,0.0,0.0,0.0,-4.7569,-4.8327,-4.8947,-4.9327,-4.9769,-4.9579,-4.8644,-4.7938,-4.6966,-4.5621,-4.4834,0.0,0.0,0.0,0.0,0.0,0.0,0.0,0.0,0.0,0.0,0.0,0.0,0.0,0.0,0.0,0.0,0.0,0.0,0.0,0.0,0.0,0.0,0.0,0.0,0.0,0.0,0.0,0.0,0.0,0.0,0.0,0.0,0.0,0.0,0.0,0.0,0.0,0.0,0.0,0.0,0.0,0.0,0.0,0.0,0.0,0.0,0.0,0.0,0.0,0.0,0.0,0.0,0.0,-5.4589,-5.4589,-5.4589,-5.4589,-5.4589,-5.4589,-5.4589,-5.4557,-5.4494,-5.4494,0.0,0.0,0.0,0.0,0.0,0.0,0.0,0.0,0.0,0.0,0.0,0.0,0.0,0.0,0.0,0.0,0.0,0.0,0.0,0.0,0.0,0.0,0.0,0.0,-5.0097,-5.0097,-5.0097,0.0,0.0,0.0,0.0,0.0,0.0,0.0,0.0,0.0,0.0,0.0,-4.8722,-4.8998,-4.9315,-4.9907,-4.9976,-4.9677,-4.8908,-4.8235,-4.742,-4.6225,-4.5436,-4.4707,0.0,0.0,0.0,0.0,0.0,0.0,0.0,0.0,0.0,0.0,0.0,0.0,0.0,0.0,0.0,0.0,0.0,0.0,0.0,0.0,0.0,0.0,0.0,0.0,0.0,0.0,0.0,0.0,0.0,0.0,0.0,0.0,-5.4842,-5.4961,0.0,0.0,0.0,0.0,0.0,0.0,0.0,0.0,0.0,0.0,0.0,0.0,0.0,-5.4592,-5.4749,-5.4749,-5.4842,-5.493,-5.493,-5.493,-5.493,-5.493,-5.493,-5.493,-5.493,0.0,-5.4494,-5.4494,0.0,0.0,0.0,0.0,0.0,0.0,0.0,0.0,0.0,0.0,0.0,0.0,0.0,0.0,0.0,0.0,0.0,0.0,0.0,0.0,0.0,0.0,-5.0206,-5.0313,-5.0376,-5.0376,0.0,-5.0149,-5.0011,-5.0011,-5.0011,0.0,0.0,0.0,0.0,0.0,0.0,0.0,-4.9194,-4.9785,-5.0124,-4.9942,-4.9913,-4.9674,-4.9002,-4.8301,-4.771,-4.7234,-4.6508,-4.5775,-4.5068,-4.5005,0.0,0.0,0.0,0.0,0.0,0.0,0.0,0.0,0.0,0.0,0.0,0.0,0.0,0.0,0.0,0.0,0.0,0.0,0.0,0.0,0.0,0.0,0.0,0.0,0.0,0.0,0.0,0.0,0.0,-5.4838,-5.4745,-5.5048,-5.4992,-5.493,0.0,0.0,0.0,0.0,0.0,0.0,0.0,0.0,0.0,-5.4776,-5.4776,-5.4807,-5.49,-5.49,-5.493,-5.4992,-5.4992,-5.49,-5.4714,-5.4714,-5.462,-5.4431,-5.4431,-5.4367,-5.4239,-5.456,-5.4463,-5.4207,0.0,0.0,0.0,0.0,-5.3709,-5.3335,-5.273,-5.1849,0.0,-5.0456,0.0,0.0,0.0,0.0,0.0,0.0,0.0,0.0,0.0,0.0,-5.0313,-5.0369,-5.0397,-5.0397,-5.0397,-5.032,-5.0235,0.0,-5.0235,-4.9992,-4.9229,0.0,0.0,0.0,0.0,-4.9403,-4.9875,-5.0189,-5.0341,-5.02,-5.0171,-4.9999,-4.956,-4.9074,-4.8489,-4.7841,-4.7231,-4.6605,-4.5954,-4.5462,-4.5035,0.0,0.0,0.0,0.0,0.0,0.0,0.0,0.0,0.0,0.0,0.0,0.0,0.0,0.0,0.0,0.0,0.0,0.0,0.0,0.0,0.0,0.0,0.0,0.0,0.0,0.0,0.0,0.0,-5.4714,-5.4652,-5.5018,-5.4926,-5.49,0.0,0.0,0.0,0.0,0.0,0.0,-5.4655,-5.4623,-5.4755,-5.5147,-5.5147,-5.5313,-5.5645,-5.5645,-5.5676,-5.5706,-5.5706,-5.5552,-5.5208,-5.5208,-5.4879,-5.4417,-5.4482,-5.4411,-5.4207,-5.4497,-5.4367,-5.4078,-5.4143,-5.4045,-5.3915,-5.375,-5.3717,-5.3582,-5.2874,-5.1995,-5.1116,-5.0574,-4.998,-4.95,-4.95,0.0,0.0,0.0,0.0,-5.0057,-5.0051,-5.0285,-5.0453,-5.0544,-5.0544,-5.0544,-5.0544,-5.0544,-5.0481,0.0,-5.0397,-5.0223,-4.9667,0.0,0.0,0.0,0.0,-4.9854,-5.0439,-5.0544,-5.0516,-5.0397,-5.0397,-5.0257,-4.9942,-4.9649,-4.9202,-4.8503,-4.8051,-4.753,-4.6877,-4.6249,-4.5689,-4.5261,0.0,0.0,0.0,0.0,0.0,0.0,0.0,0.0,0.0,0.0,0.0,0.0,0.0,0.0,0.0,0.0,0.0,0.0,0.0,0.0,0.0,0.0,0.0,0.0,0.0,0.0,0.0,0.0,0.0,-5.471,-5.462,0.0,0.0,0.0,0.0,-5.471,-5.4589,-5.4431,-5.4237,-5.411,-5.4516,-5.5527,-5.5593,-5.6198,-5.7471,-5.7471,-5.7534,-5.7653,-5.7653,-5.7433,-5.7083,-5.7083,-5.651,-5.5531,-5.5851,-5.5497,-5.4617,-5.4207,-5.3915,-5.375,-5.3948,-5.3882,-5.3717,-5.3717,-5.3717,-5.3684,-5.3517,-5.2469,-5.1185,-5.1183,-5.0388,-4.95,-4.95,-4.9796,0.0,0.0,-5.0257,-5.0397,-5.053,-5.0585,-5.0647,-5.0819,-5.0846,-5.0846,-5.0846,-5.0846,-5.0764,0.0,-5.0397,-5.0397,-5.0363,0.0,-5.0384,-5.0522,-5.0515,-5.064,-5.0846,-5.0846,-5.0764,-5.0425,-5.0397,-5.0257,-4.9942,-4.9649,-4.9471,-4.9436,-4.9104,-4.8582,-4.7872,-4.7804,-4.7005,-4.5408,-4.5486,0.0,0.0,0.0,0.0,0.0,0.0,0.0,0.0,0.0,0.0,0.0,0.0,0.0,0.0,0.0,0.0,0.0,0.0,0.0,0.0,0.0,0.0,0.0,0.0,0.0,0.0,0.0,0.0,-5.4526,-5.4526,0.0,-5.4367,-5.493,-5.4961,-5.4108,-5.4844,-5.5216,-5.4926,-5.5341,-5.5818,-5.629,-5.6517,-5.688,-5.7318,-5.7604,-5.7763,-5.779,-5.779,-5.7604,-5.7254,-5.7254,-5.6955,-5.6355,-5.5934,-5.5492,-5.4892,-5.4283,-5.4013,-5.4044,-5.4333,-5.411,-5.3618,-5.3816,-5.375,-5.3483,-5.2942,-5.2367,-5.1859,-5.1609,-5.1225,-5.097,-5.1184,-5.133,-5.1514,-5.1514,-5.1656,-5.1888,-5.1945,-5.2116,-5.2292,-5.2348,-5.2375,-5.2375,-5.2375,-5.2375,-5.232,-5.2236,-5.1402,-5.071,-5.071,-5.071,-5.0737,-5.0792,-5.0819,-5.0819,-5.0873,-5.071,-5.0509,-5.0397,-5.02,-4.9971,-4.9679,-4.953,-4.9381,-4.9168,-4.908,-4.8883,-4.8612,-4.8142,-4.7605,-4.7035,-4.6148,-4.5404,0.0,0.0,0.0,0.0,0.0,0.0,0.0,0.0,0.0,0.0,0.0,0.0,0.0,0.0,0.0,0.0,0.0,0.0,0.0,0.0,0.0,0.0,0.0,0.0,0.0,0.0,-5.411,-5.4463,-5.4767,-5.4905,-5.481,-5.5556,-5.5633,-5.4699,-5.5572,-5.5943,-5.5616,-5.6096,-5.6608,-5.7082,-5.7215,-5.7417,-5.779,-5.8052,-5.8279,-5.8405,-5.8279,-5.8087,-5.7858,-5.7761,-5.7357,-5.6781,-5.6332,-5.5785,-5.5074,-5.4693,-5.4381,-5.4141,-5.4237,-5.3948,-5.3551,-5.3751,-5.3685,-5.3382,-5.2736,-5.2498,-5.2427,-5.2027,-5.1939,-5.2062,-5.2309,-5.2399,-5.2428,-5.2369,-5.2488,-5.2606,-5.2606,-5.2753,-5.2927,-5.3019,-5.3048,-5.3048,-5.3048,-5.3048,-5.3048,-5.3048,-5.2292,-5.1708,-5.1708,-5.1708,-5.1708,-5.1708,-5.1708,-5.1708,-5.1708,-5.1479,-5.1368,-5.1368,-5.102,-5.0655,-5.0238,-4.9996,-4.9653,-4.9202,-4.908,-4.9018,-4.9018,-4.8545,-4.8142,-4.7906,-4.6718,-4.594,-4.5703,0.0,0.0,0.0,0.0,0.0,0.0,0.0,0.0,0.0,0.0,0.0,0.0,0.0,0.0,0.0,0.0,0.0,0.0,0.0,0.0,0.0,0.0,0.0,-5.3518,-5.4335,-5.4838,-5.456,-5.5312,-5.5983,-5.6361,-5.6773,-5.6869,-5.6505,-5.6638,-5.664,-5.6269,-5.6304,-5.6816,-5.7943,-5.7672,-5.7981,-5.9047,-5.9013,-5.9217,-5.9621,-5.9183,-5.9012,-5.8978,-5.8632,-5.7904,-5.6904,-5.7189,-5.6509,-5.5209,-5.547,-5.4991,-5.4014,-5.3651,-5.3517,-5.3551,-5.3517,-5.3517,-5.3449,-5.3065,-5.2921,-5.2816,-5.2372,-5.2463,-5.2735,-5.2735,-5.2817,-5.291,-5.2799,-5.2587,-5.2468,-5.2468,-5.2468,-5.2528,-5.274,-5.277,-5.277,-5.277,-5.277,-5.277,-5.277,-5.3032,-5.3225,-5.319,-5.319,-5.319,-5.319,-5.319,0.0,-5.319,-5.319,-5.319,-5.319,-5.2904,-5.2387,-5.165,-5.0995,-5.0325,-4.9573,-4.9236,-4.9018,-4.9018,-4.9018,-4.8646,-4.7906,-4.7192,-4.6481,-4.5737,0.0,0.0,0.0,0.0,0.0,0.0,0.0,0.0,0.0,0.0,0.0,0.0,0.0,0.0,0.0,0.0,0.0,0.0,0.0,0.0,0.0,0.0,-5.3849,-5.3849,-5.3916,-5.4251,-5.5187,-5.53,-5.5578,-5.6192,-5.6794,-5.6802,-5.5961,-5.7467,-5.8084,-5.7488,-5.8434,-5.9186,-5.95,-5.968,-5.9927,-6.0241,-5.9907,-5.984,-5.9944,-5.9288,-5.9012,-5.9012,-5.8909,-5.8703,-5.8359,-5.7912,-5.7499,-5.7051,-5.585,-5.5235,-5.4995,-5.4701,-5.4303,-5.3915,-5.4399,-5.4271,-5.3816,-5.3447,-5.3313,-5.3312,-5.3207,-5.3171,-5.3268,-5.3268,-5.3462,-5.3716,-5.3653,-5.3873,-5.4056,-5.4056,-5.4183,-5.4305,-5.4365,-5.4365,-5.4365,-5.4365,-5.4365,-5.4365,-5.4365,-5.4456,-5.4166,-5.3021,-5.2846,-5.2846,-5.2846,-5.2846,0.0,-5.2846,-5.2606,-5.2518,-5.27,-5.2369,-5.2119,-5.1912,-5.1603,-5.1045,-5.0206,-4.9921,-4.956,-4.9018,-4.9018,-4.8646,-4.7906,-4.7699,-4.7225,0.0,0.0,0.0,0.0,0.0,0.0,0.0,0.0,0.0,0.0,0.0,0.0,0.0,0.0,0.0,0.0,0.0,0.0,0.0,0.0,0.0,0.0,-5.3651,-5.3953,-5.4392,-5.4393,-5.4732,-5.5716,-5.6126,-5.6642,-5.7329,-5.7978,-5.8186,-5.7831,-5.897,-5.952,-5.9086,-5.9902,-6.034,-6.034,-6.0415,-6.0452,-6.0452,-6.023,-6.0035,-5.9905,-5.9282,-5.894,-5.8771,-5.8632,-5.8562,-5.8527,-5.8117,-5.774,-5.7364,-5.6372,-5.5519,0.0,0.0,0.0,0.0,0.0,-5.411,-5.3784,-5.3718,-5.3718,-5.3751,-5.3915,-5.4013,-5.4013,-5.4078,-5.4242,-5.4303,-5.4239,-5.4367,-5.4491,-5.4491,-5.4554,-5.4683,-5.4776,-5.4776,-5.4776,-5.4776,-5.4714,-5.4683,-5.4776,-5.4683,0.0,-5.3567,-5.3519,-5.3549,-5.3549,-5.3549,-5.3549,-5.3549,-5.3459,-5.3428,-5.3519,-5.3245,-5.2922,-5.2612,-5.2264,0.0,0.0,0.0,-5.0236,-4.9492,-4.9154,0.0,0.0,0.0,-4.8003,-4.7259,0.0,0.0,0.0,-4.5297,-4.5235,0.0,0.0,0.0,0.0,0.0,0.0,0.0,0.0,0.0,0.0,0.0,0.0,0.0,0.0,0.0,0.0,-5.3585,-5.3991,-5.5008,-5.5512,-5.5886,-5.6337,-5.7395,-5.8322,-5.9013,-5.963,-6.0174,-6.0603,-6.0742,-6.0811,-6.0774,0.0,0.0,0.0,0.0,-6.0351,-6.0351,-6.0283,-6.0065,-5.9645,-5.9214,-5.8809,-5.8419,-5.8063,-5.7881,-5.7881,-5.7881,-5.7546,-5.6972,-5.6869,-5.5916,-5.4461,-5.3957,-5.375,-5.3717,-5.3584,-5.3517,-5.3551,-5.3816,0.0,0.0,-5.4428,-5.4554,-5.4586,-5.4776,-5.4745,-5.4623,-5.4465,-5.4271,-5.4143,-5.4143,-5.4175,-5.4239,-5.4399,-5.4463,-5.4463,-5.4463,-5.4335,-5.4271,-5.4431,-5.4239,-5.4143,-5.4431,-5.4589,-5.4617,-5.4648,-5.4617,-5.4617,-5.4617,-5.4807,-5.49,-5.493,0.0,0.0,-5.3529,-5.3053,-5.2425,-5.1643,-5.1381,-5.0879,-5.0135,-4.9458,-4.9086,-4.9018,-4.9018,-4.868,-4.8007,-4.8007,-4.7699,-4.7022,-4.6887,-4.6727,0.0,0.0,0.0,0.0,0.0,0.0,0.0,0.0,0.0,0.0,0.0,0.0,0.0,0.0,0.0,-5.3518,-5.3991,-5.4668,-5.5448,-5.6128,-5.6848,-5.7499,-5.7773,-5.838,-5.9346,-6.0134,-6.0464,-6.0231,-6.1071,-6.1484,-6.1176,-6.1753,-6.2058,-6.2058,-6.198,-6.1941,-6.1941,-6.1366,-6.0727,-5.999,0.0,0.0,-5.7991,-5.7918,-5.7881,-5.7881,-5.7881,-5.7995,-5.8111,-5.7355,-5.6503,-5.5552,-5.4395,-5.3881,-5.3847,-5.3882,-5.3783,-5.3617,-5.3416,-5.3484,-5.3584,-5.3718,-5.3718,-5.3751,-5.3784,-5.3784,0.0,-5.3685,-5.3717,-5.3816,-5.3816,-5.3915,-5.4078,-5.4239,-5.4271,-5.4271,-5.4271,-5.4367,-5.4399,-5.4271,-5.4335,-5.4399,-5.4463,-5.4303,-5.4175,-5.4303,-5.4207,-5.4143,-5.4143,-5.4175,-5.4239,-5.4333,-5.4301,-5.42,-5.4063,-5.3838,-5.3371,-5.2425,-5.1653,-5.0879,-5.0135,-4.9965,-4.9593,-4.9018,-4.9018,-4.8951,-4.8781,-4.8781,-4.8714,-4.8545,-4.7361,-4.6786,0.0,0.0,0.0,0.0,0.0,0.0,0.0,0.0,0.0,0.0,0.0,-5.3518,-5.3518,0.0,-5.3619,-5.3991,-5.4363,-5.4972,-5.6089,-5.6562,-5.7077,-5.784,-5.8487,-5.913,-5.9803,-6.0811,-6.1354,-6.1269,-6.1796,-6.2038,-6.1839,-6.2178,-6.2381,-6.2381,-6.2381,-6.2381,-6.2381,-6.2009,-6.1264,-6.0114,-5.9742,-5.8964,-5.7881,-5.7881,-5.7881,-5.7881,-5.7881,-5.7991,-5.8137,-5.7175,-5.6596,-5.6156,-5.5213,-5.4534,-5.4025,-5.3619,-5.3382,-5.3281,-5.311,-5.311,-5.3246,-5.3416,-5.345,-5.3517,-5.3685,-5.3751,-5.3784,-5.385,-5.3882,-5.398,-5.4078,-5.4175,-5.4271,-5.4335,-5.4335,-5.4335,-5.4335,-5.4335,-5.4335,-5.4335,-5.4303,-5.4303,-5.4463,-5.4207,-5.4045,-5.4175,-5.4078,-5.398,-5.398,-5.398,-5.4013,-5.4076,-5.4076,-5.4076,-5.4076,-5.3948,-5.3647,-5.3075,-5.2231,-5.1589,-5.1217,-5.0845,-5.0304,-4.956,-4.956,-4.9357,-4.9018,-4.9018,-4.9018,-4.8984,-4.824,-4.7902,0.0,0.0,0.0,0.0,0.0,0.0,0.0,0.0,-5.3518,-5.3518,-5.3518,-5.3518,-5.3518,-5.3619,-5.3923,-5.4499,-5.4837,-5.5446,-5.663,-5.6934,-5.7273,-5.8017,-5.92,-6.0023,-6.0287,-6.1412,-6.2203,-6.2386,-6.2381,-6.2381,-6.2381,-6.2381,-6.2381,-6.2381,-6.2381,-6.2381,-6.2381,-6.2381,-6.1637,-6.0114,-6.0114,-5.9336,-5.7881,-5.7881,-5.7881,-5.7881,-5.7881,-5.7881,-5.7848,-5.7058,-5.6749,-5.6718,-5.6119,-5.5373,-5.4591,-5.3544,-5.3172,-5.3104,-5.2902,-5.2868,-5.2938,-5.3247,-5.3349,-5.345,-5.3783,-5.3948,-5.4013,-5.4143,-5.4207,-5.4239,-5.4399,-5.4463,-5.4494,-5.4494,-5.4494,-5.4463,-5.4431,-5.4335,-5.4303,-5.4399,-5.4239,-5.4175,-5.4431,-5.4271,-5.411,-5.4207,-5.4045,-5.3948,-5.3948,-5.3915,-5.3882,-5.3882,-5.3882,-5.3882,-5.3882,-5.375,-5.3618,-5.3518,-5.2909,-5.2469,-5.23,-5.1725,-5.1082,-5.0338,-5.0304,-5.0033,-4.9424,-4.9424,-4.9357,-4.9221,-4.9221,-4.9154,-5.3551,-5.3518,-5.3518,-5.3518,-5.3518,-5.3518,0.0,0.0,-5.3518,-5.3518,-5.3518,-5.3518,-5.3518,-5.4025,-5.4499,-5.4566,-5.5683,-5.6596,-5.6799,-5.734,-5.8051,-5.8795,-5.9577,-6.0359,-6.1095,-6.1917,-6.2358,-6.2381,-6.2381,-6.2381,-6.2381,-6.2381,-6.2381,-6.2381,-6.2381,-6.2381,-6.2381,-6.2381,-6.1637,-6.0114,-6.0114,-5.9336,-5.7881,-5.7881,-5.7881,-5.7881,-5.7881,-5.7881,-5.7881,-5.7814,-5.7744,-5.7642,-5.6788,-5.6342,-5.6107,-5.4658,-5.4015,-5.3774,-5.2927,-5.2729,-5.2903,-5.2938,-5.3179,-5.3416,-5.345,-5.3717,-5.4013,-5.4013,-5.4108,-5.4205,-5.4237,-5.4367,-5.4494,-5.4494,-5.4494,-5.4431,-5.4271,-5.4367,-5.4399,-5.4271,-5.4335,-5.4431,-5.4494,-5.4463,-5.4367,-5.4239,-5.3948,-5.375,-5.375,-5.3651,-5.3585,-5.3585,-5.3585,-5.3585,-5.3585,-5.3517,-5.3551,-5.3518,-5.3416,-5.3044,-5.2334,-5.2232,-5.1826,-5.1116,-5.1082,-5.1048,-5.098,-5.098,-5.0642,-4.9965,-4.9965,-4.9627,-5.3584,-5.3618,0.0,0.0,-5.3651,-5.3751,-5.3517,-5.3518,-5.3518,-5.3518,-5.3518,-5.3518,-5.3518,-5.4093,-5.4735,0.0,-5.6122,-5.6934,-5.7374,-5.7712,-5.8321,-5.9505,-5.9911,-6.0419,-6.1231,-6.2092,-6.2498,-6.2381,-6.2381,-6.2381,-6.2381,-6.2381,-6.2381,-6.2381,-6.2381,-6.2381,-6.2381,-6.2381,-6.1637,-6.0114,-6.0114,-5.9336,-5.7881,-5.7881,-5.7881,-5.7881,-5.7881,-5.7881,-5.7881,-5.7881,-5.7881,-5.7848,-5.7471,-5.7333,-5.7094,-5.5396,-5.4376,-5.3764,-5.3392,-5.2955,-5.2622,-5.2694,-5.2834,-5.3007,-5.3315,-5.3551,-5.3717,-5.4045,-5.4175,-5.4237,-5.4494,-5.4589,-5.4686,-5.4776,-5.4776,-5.4776,-5.4683,-5.4745,-5.4745,-5.4557,-5.4623,-5.4655,-5.4529,-5.4494,-5.4463,-5.4367,-5.4175,-5.398,-5.3882,-5.3717,-5.3584,-5.3518,-5.3518,-5.3518,-5.3518,-5.3518,-5.3518,-5.3518,-5.3518,-5.3348,-5.301,-5.301,-5.2638,-5.186,-5.186,-5.1623,-5.1185,-5.1185,-5.1048,-5.0744,-5.0744,-5.0574,-5.3551,0.0,0.0,-5.3551,-5.3685,-5.3817,-5.3585,-5.3518,-5.3518,-5.3518,-5.3518,-5.3518,-5.3518,-5.4262,-5.5074,-5.5615,-5.6494,-5.7273,-5.7814,-5.7881,-5.8423,-5.9911,-6.0114,-6.0486,-6.1501,-6.2193,-6.2537,-6.242,-6.2381,-6.2381,-6.2381,-6.2381,-6.2381,-6.2381,-6.2381,-6.2381,-6.2381,-6.2178,-6.14,-6.0114,-5.9911,-5.9133,-5.7881,-5.7881,-5.7881,-5.7881,-5.7881,-5.7881,-5.7881,-5.7881,-5.7881,-5.7881,-5.7881,-5.7881,-5.771,-5.6376,-5.5113,-5.4061,-5.3792,-5.3149,-5.2409,-5.2483,-5.2589,-5.2764,-5.3111,-5.3315,-5.3483,-5.4013,-5.4175,-5.4303,-5.4749,-5.4904,-5.493,-5.5053,-5.5083,-5.5053,-5.5022,-5.4992,-5.4961,-5.4873,-5.4873,-5.4811,-5.4652,-5.462,-5.462,-5.4592,-5.4463,-5.4303,-5.4078,-5.3849,-5.3651,-5.3551,-5.3517,-5.3518,-5.3518,-5.3518,-5.3518,-5.3518,-5.3518,-5.3518,-5.3518,-5.3518,-5.3247,-5.2638,-5.2638,-5.2367,-5.186,-5.186,-5.1725,-5.1522,-5.1522,-5.1388,-5.345,0.0,-5.3484,-5.3518,-5.3518,-5.3484,-5.3518,-5.3518,-5.3518,-5.3518,-5.3518,-5.3518,-5.3518,-5.4702,-5.5683,-5.5681,-5.6934,-5.7848,-5.7881,-5.7881,-5.8423,-5.9911,-6.0114,-6.0689,0.0,-6.2381,-6.2381,-6.2381,-6.2381,-6.2381,-6.2381,-6.2381,-6.2381,-6.2381,-6.2381,-6.2381,-6.2381,-6.167,-6.0926,-6.008,-5.9404,-5.866,-5.7881,-5.7881,-5.7881,-5.7881,-5.7881,-5.7881,-5.7881,-5.7881,-5.7881,-5.7881,-5.7881,-5.7881,-5.7881,-5.7848,-5.6614,-5.4943,-5.4028,-5.3149,-5.2409,-5.2409,-5.2657,-5.2903,-5.2903,-5.3145,-5.3483,-5.3915,-5.4076,-5.4333,-5.4869,-5.5079,-5.5199,-5.5199,-5.5199,-5.5169,-5.5022,-5.4992,-5.4992,-5.4992,-5.4992,-5.4992,-5.4992,-5.4992,-5.493,-5.4811,-5.478,-5.4655,-5.4239,-5.3915,-5.3717,-5.3717,-5.3584,-5.3518,-5.3518,-5.3518,-5.3518,-5.3518,-5.3518,-5.3518,-5.3518,-5.3518,-5.3484,-5.345,-5.345,-5.345,-5.345,-5.345,-5.3044,-5.2266,-5.2266,-5.1894,-5.3551,0.0,-5.408,-5.3584,-5.3651,-5.3784,-5.3551,-5.3518,-5.3518,-5.3518,-5.3518,-5.3518,-5.3518,-5.4735,-5.5681,-5.5681,-5.6934,-5.7881,-5.7881,-5.7881,-5.8423,-5.9911,-6.0114,0.0,0.0,0.0,0.0,-6.2381,-6.2381,-6.2381,-6.2381,-6.2381,-6.2381,-6.2381,-6.2381,-6.2381,-6.2381,-6.167,-6.0892,-6.008,-5.8863,-5.8118,-5.7881,-5.7881,-5.7881,-5.7881,-5.7881,-5.7881,-5.7881,-5.7881,-5.7881,-5.7881,-5.7881,-5.7881,-5.7881,-5.7881,-5.7128,-5.5861,-5.4943,-5.4028,-5.3183,-5.2611,-5.248,-5.2622,-5.2834,-5.2972,-5.3145,-5.3517,-5.3913,-5.4269,-5.4589,-5.4776,-5.4957,-5.5324,-5.5234,-5.5113,-5.5264,-5.5329,-5.5264,-5.5139,-5.5139,-5.5079,-5.5022,-5.4992,-5.4992,-5.493,-5.462,-5.4367,-5.4239,-5.4013,-5.3849,-5.3717,-5.3651,-5.3618,-5.3518,-5.3518,-5.3518,-5.3518,-5.3518,-5.3518,-5.3518,-5.3518,-5.3518,-5.3518,-5.3518,-5.3518,-5.3518,-5.3518,-5.3382,-5.3112,-5.3112,-5.2976,-5.3751,-5.408,-5.437,-5.3651,-5.3751,-5.3882,-5.3551,-5.3518,-5.3518,-5.3518,-5.3518,-5.3518,-5.3518,-5.4735,-5.5681,-5.5681,-5.6934,-5.7881,-5.7881,-5.7881,-5.8423,-5.9911,-6.0114,-6.0689,0.0,0.0,0.0,-6.2381,-6.2381,-6.2381,-6.2381,-6.2381,-6.2381,-6.2381,-6.2381,-6.2381,-6.2381,-6.1366,-6.0351,-5.9302,-5.8355,-5.7881,-5.7881,-5.7881,-5.7881,-5.7881,-5.7881,-5.7881,-5.7881,-5.7881,-5.7881,-5.7881,-5.7881,-5.7881,-5.7881,-5.7881,-5.7504,-5.6853,-5.5931,-5.4773,-5.3623,-5.3047,-5.2644,-5.2445,-5.2657,-5.2694,-5.2799,-5.3111,-5.3483,-5.3815,-5.4207,-5.4399,-5.4554,-5.5022,-5.5053,-5.5053,-5.5264,-5.5419,-5.5478,-5.5354,-5.5324,-5.5294,-5.5174,-5.5113,-5.5048,-5.5048,-5.4652,-5.4367,-5.4494,-5.4303,-5.4078,-5.3849,-5.375,-5.3617,-5.3416,-5.3484,-5.3518,-5.3518,-5.3518,-5.3518,-5.3518,-5.3518,-5.3518,-5.3518,-5.3518,-5.3518,-5.3518,-5.3518,-5.3518,-5.3518,-5.3518,-5.3518,-5.3915,-5.4239,-5.4303,-5.3685,-5.3751,-5.3882,-5.3551,-5.3518,-5.3518,-5.3518,-5.3518,-5.3518,0.0,0.0,-5.5683,-5.5681,-5.69,-5.7848,-5.7881,-5.7881,-5.8423,0.0,0.0,0.0,0.0,0.0,0.0,-6.2381,0.0,-6.2381,-6.2381,-6.2381,-6.2381,-6.2381,-6.2381,-6.2381,-6.2381,-6.0858,-5.937,-5.7881,-5.7881,-5.7881,-5.7881,-5.7881,-5.7881,-5.7881,-5.7881,-5.7881,-5.7881,-5.7881,-5.7881,-5.7881,-5.7881,-5.7881,-5.7881,-5.7881,-5.7881,-5.778,-5.6886,-5.5353,-5.3792,-5.3723,-5.3116,-5.2409,-5.2409,-5.2409,-5.248,-5.2764,-5.2903,-5.311,-5.3783,-5.398,-5.4078,-5.4431,-5.4745,-5.4961,-5.5022,-5.5234,-5.5478,-5.5478,-5.5507,-5.5507,-5.5507,-5.5354,-5.5199,-5.5199,-5.4838,-5.462,-5.493,-5.4683,-5.4367,-5.4013,-5.3849,-5.3584,-5.3247,-5.3382,-5.3518,-5.3518,-5.3518,-5.3518,-5.3518,-5.3518,-5.3518,-5.3518,-5.3518,-5.3518,-5.3518,-5.3518,-5.3518,-5.3518,-5.3518,-5.3518,-5.4335,-5.4239,-5.4078,-5.3915,-5.3751,-5.3584,-5.3551,-5.3518,-5.3518,-5.3518,-5.3518,-5.3518,0.0,0.0,0.0,-5.5615,-5.6494,0.0,-5.7814,-5.7881,0.0,-5.9911,0.0,-6.0689,-6.2245,-6.2381,0.0,0.0,-6.2381,-6.2381,-6.2381,-6.2381,-6.2381,-6.2381,-6.2381,-6.2381,-6.2381,-6.0858,-5.937,-5.7881,-5.7881,-5.7881,-5.7881,-5.7881,-5.7881,-5.7881,-5.7881,-5.7881,-5.7881,-5.7881,-5.7881,-5.7881,-5.7881,-5.7881,-5.7881,-5.7881,-5.7881,-5.7881,-5.7642,-5.6415,-5.4819,-5.3997,-5.3294,-5.2729,-5.248,-5.2587,-5.2729,-5.2587,-5.3007,-5.3483,-5.355,-5.3749,-5.4143,-5.4745,-5.4557,-5.4463,-5.5204,-5.5234,-5.5174,-5.5448,-5.5507,-5.5507,-5.5507,-5.5478,-5.5324,-5.5113,-5.4961,-5.4807,-5.4652,-5.4557,-5.4303,-5.3849,-5.3946,-5.3881,-5.345,-5.3348,-5.3348,-5.3518,-5.3348,-5.3348,-5.3518,-5.3518,-5.3518,-5.3518,-5.3518,-5.3518,-5.3518,-5.3518,-5.3518,-5.3518,-5.3518,-5.3518,-5.4589,-5.4589,-5.4367,-5.4078,-5.3948,-5.385,-5.3585,-5.3518,-5.3518,-5.3518,-5.3518,0.0,-5.3518,0.0,0.0,0.0,0.0,0.0,-5.778,-5.7881,-5.8423,0.0,-6.0114,0.0,-6.2245,-6.2381,-6.2381,0.0,-6.2381,-6.2381,-6.2381,-6.2381,-6.2381,-6.2381,-6.2381,-6.2076,-6.14,-6.052,-5.937,-5.7881,-5.7881,-5.7881,-5.7881,-5.7881,-5.7881,-5.7881,0.0,-5.7881,-5.7881,-5.7881,-5.7881,-5.7881,-5.7881,-5.7881,-5.7881,-5.7881,-5.7881,-5.7881,-5.7881,-5.7065,-5.5842,-5.4783,-5.3975,-5.327,-5.2759,-5.2729,-5.2834,-5.2587,-5.2903,-5.3349,-5.3213,-5.3382,-5.3783,-5.4239,-5.4175,-5.4143,-5.4714,-5.4807,-5.4869,-5.5239,-5.5419,-5.5507,-5.5507,-5.5507,-5.5389,-5.5053,-5.4869,-5.4652,-5.4303,-5.4335,-5.4207,-5.375,-5.3946,-5.3915,-5.3416,-5.3382,-5.3416,-5.3518,-5.3314,-5.3247,-5.3348,-5.3382,-5.3382,-5.3382,-5.3484,-5.3518,-5.3518,-5.3518,-5.3518,-5.3518,-5.3518,-5.3518,-5.4807,-5.4961,-5.4745,-5.4207,-5.4239,-5.4239,-5.3618,-5.3518,-5.3518,-5.3518,0.0,-5.3518,-5.3518,-5.4025,-5.4702,-5.5446,0.0,-5.69,-5.7645,-5.7814,-5.8423,-5.9911,-6.0114,-6.0689,-6.2245,-6.2381,-6.2381,-6.2381,-6.2381,-6.2381,-6.2381,-6.2381,-6.2381,-6.2381,-6.2381,-6.1637,-6.0114,-6.0114,-5.937,-5.7881,-5.7881,-5.7881,-5.7881,-5.7881,-5.7881,-5.7881,-5.7881,0.0,-5.7881,-5.7881,-5.7881,-5.7881,-5.7881,-5.7881,-5.7881,-5.7881,-5.7881,-5.7881,-5.7881,-5.7476,-5.6797,-5.5842,-5.4959,-5.4079,-5.3306,-5.3072,-5.3072,-5.2727,-5.2799,-5.2972,-5.2938,-5.3076,-5.3314,-5.3517,-5.3751,-5.3948,-5.4045,-5.4271,-5.4589,-5.493,-5.5204,-5.5448,-5.5478,-5.5448,-5.5329,-5.4992,-5.4652,-5.4303,-5.398,-5.4076,-5.4044,-5.3717,-5.3882,-5.3783,-5.3281,-5.3484,-5.3584,-5.3518,-5.3314,-5.3213,-5.3213,-5.3213,-5.3179,-5.3179,-5.3348,-5.3416,-5.3416,-5.3416,-5.3416,-5.3416,-5.3416,-5.3416,-5.5113,-5.4807,-5.4207,-5.4367,-5.4239,-5.398,-5.3584,-5.3518,0.0,0.0,-5.3518,-5.3518,-5.3518,-5.3619,-5.3923,-5.4668,0.0,0.0,0.0,0.0,-5.8423,0.0,0.0,0.0,0.0,0.0,0.0,0.0,0.0,-6.2381,-6.2381,-6.2381,-6.2381,-6.2381,-6.2381,-6.1637,-6.0114,-6.0114,-5.937,-5.7881,-5.7881,-5.7881,-5.7881,-5.7881,-5.7881,-5.7881,-5.7881,0.0,-5.7881,-5.7881,-5.7881,-5.7881,-5.7881,-5.7881,-5.7881,-5.7881,-5.7881,-5.7881,-5.7881,-5.7814,-5.7541,-5.6617,-5.5909,-5.5203,-5.4114,-5.4053,-5.409,-5.3105,-5.3109,-5.3348,-5.3179,-5.3314,-5.3517,-5.385,-5.3751,-5.3751,-5.4271,-5.4463,-5.4589,-5.493,-5.5053,-5.5174,-5.5448,-5.5264,-5.4961,-5.462,-5.4303,-5.3948,-5.3618,-5.3849,-5.3915,-5.3551,-5.3817,-5.3849,-5.3484,-5.3348,-5.3349,-5.3518,-5.3314,-5.3247,-5.3416,-5.3314,-5.3179,-5.3179,-5.3076,-5.3007,-5.3007,-5.3007,-5.3007,-5.3007,-5.3007,-5.3007,-5.5113,-5.4869,-5.4303,-5.4463,-5.4367,-5.411,-5.3618,0.0,0.0,0.0,-5.3518,-5.3518,-5.3518,-5.3518,0.0,-5.4465,0.0,0.0,0.0,0.0,0.0,0.0,0.0,0.0,0.0,0.0,0.0,0.0,0.0,-6.2381,-6.2381,-6.2381,-6.2381,-6.2381,-6.2381,-6.1637,-6.0114,-6.0114,-5.937,-5.7881,-5.7881,-5.7881,-5.7881,-5.7881,-5.7881,-5.7881,-5.7881,0.0,-5.7881,-5.7881,-5.7881,-5.7881,-5.7881,-5.7881,-5.7881,-5.7881,-5.7881,-5.7881,-5.7881,-5.7881,-5.7814,-5.7367,-5.6795,-5.6121,-5.5168,-5.4732,-5.4464,-5.3782,-5.3584,-5.345,-5.3247,-5.3348,-5.3517,-5.3685,-5.3618,-5.3584,-5.3916,-5.4145,-5.4271,-5.4463,-5.462,-5.4776,-5.493,-5.4838,-5.462,-5.4271,-5.411,-5.3849,-5.3517,-5.3618,-5.3685,-5.3518,-5.3718,-5.375,-5.3551,-5.3484,-5.345,-5.3518,-5.3314,-5.3247,-5.3348,-5.3247,-5.3179,-5.3179,-5.3212,-5.3212,-5.3212,-5.3212,-5.3212,-5.3212,-5.3212,-5.3212,-5.4961,-5.4965,-5.4463,-5.4399,-5.4431,-5.4303,-5.3651,-5.3518,0.0,0.0,-5.3518,-5.3518,-5.3518,-5.3518,-5.3687,0.0,-5.5141,0.0,0.0,0.0,0.0,0.0,0.0,0.0,0.0,0.0,0.0,0.0,0.0,0.0,-6.2381,-6.2381,-6.2381,-6.2381,-6.2381,-6.1637,-6.0114,-6.0076,-5.9333,-5.7881,-5.7845,-5.7845,-5.7881,-5.7881,-5.7881,-5.7881,-5.7881,0.0,0.0,-5.7881,-5.7881,-5.7881,-5.7881,-5.7881,-5.7881,-5.7881,-5.7881,-5.7881,-5.7881,-5.7881,-5.7881,-5.7881,-5.7509,-5.69,-5.6156,-5.5547,-5.5005,-5.4697,-5.4193,-5.3687,-5.3551,-5.3484,-5.3518,-5.3518,-5.3518,-5.3518,-5.3518,-5.3718,-5.3915,-5.398,-5.4207,-5.4399,-5.4463,-5.4431,-5.4303,-5.4045,-5.3915,-5.3817,-5.3517,-5.3518,-5.3518,-5.3518,-5.3618,-5.3584,-5.3518,-5.3618,-5.3618,-5.3518,-5.3348,-5.3247,-5.3247,-5.3213,-5.3179,-5.3179,-5.3314,-5.3348,-5.3348,-5.3348,-5.3348,-5.3348,-5.3348,-5.3348,-5.4745,-5.4776,-5.4431,-5.411,-5.4271,-5.4303,-5.3651,0.0,0.0,-5.3518,-5.3518,-5.3518,-5.3518,-5.3518,-5.3518,-5.3585,0.0,-5.575,0.0,0.0,0.0,0.0,0.0,0.0,0.0,0.0,0.0,0.0,0.0,0.0,-6.2381,-6.2381,-6.2381,-6.2381,-6.2381,-6.1637,-6.0114,-5.989,-5.9148,-5.7881,-5.7698,-5.7735,-5.7881,-5.7881,-5.7881,-5.7881,-5.7881,0.0,0.0,-5.7881,-5.7881,-5.7881,-5.7881,-5.7881,-5.7881,-5.7881,-5.7881,-5.7881,-5.7881,-5.7881,-5.7881,-5.7881,-5.7848,-5.7645,-5.6934,-5.6664,-5.6461,-5.5749,-5.5039,-5.4499,-5.4499,-5.3991,-5.3518,-5.3518,-5.3518,-5.3518,-5.3518,-5.3517,-5.3618,-5.3915,-5.4013,-5.4143,-5.4431,-5.4239,-5.4013,-5.4013,-5.3751,-5.3517,-5.3518,-5.3518,-5.3518,-5.3518,-5.3484,-5.3484,-5.3518,-5.3484,-5.3484,-5.3518,-5.345,-5.345,-5.345,-5.3314,-5.3179,-5.3179,-5.3041,-5.2938,-5.2938,-5.2938,-5.2938,-5.2938,-5.2938,-5.2938,-5.4648,-5.462,-5.4207,-5.4271,-5.4239,-5.411,-5.3883,0.0,-5.3518,-5.3518,-5.3518,-5.3518,-5.3518,-5.3518,-5.3518,-5.3518,0.0,0.0,0.0,0.0,0.0,0.0,0.0,0.0,0.0,0.0,0.0,0.0,0.0,0.0,-6.2381,-6.2381,-6.2381,-6.2381,-6.2381,-6.1598,-5.9924,-5.9814,-5.9035,-5.7551,-5.7476,-5.7514,-5.7698,-5.7588,-5.7662,-5.7881,-5.7772,0.0,0.0,-5.7881,-5.7881,-5.7881,-5.7881,-5.7881,-5.7881,-5.7881,-5.7881,-5.7881,-5.7881,-5.7881,-5.7881,-5.7881,-5.7881,-5.7848,-5.7543,-5.7137,-5.6731,-5.6461,-5.5852,-5.5277,-5.5277,-5.4702,-5.4059,-5.3619,-5.3518,-5.3518,-5.3518,-5.3518,-5.3517,-5.3685,-5.3685,-5.3751,-5.3883,-5.3784,-5.3685,-5.3685,-5.3584,-5.3518,-5.3518,-5.3518,-5.3518,-5.3518,-5.3518,-5.3518,-5.3518,-5.3518,-5.3518,-5.3518,-5.3518,-5.3518,-5.3518,-5.3416,-5.3382,-5.3382,-5.3314,-5.3246,-5.3246,-5.3246,-5.3246,-5.3246,-5.3246,-5.3246,-5.4301,-5.4399,-5.4143,-5.4175,-5.4209,-5.4078,0.0,0.0,-5.3518,-5.3518,-5.3518,-5.3518,-5.3518,-5.3518,-5.3518,0.0,0.0,-5.5681,0.0,0.0,0.0,0.0,0.0,0.0,0.0,0.0,0.0,0.0,0.0,0.0,-6.2381,-6.2381,-6.2381,-6.2381,-6.2381,-6.1733,-6.0261,-5.991,-5.9055,-5.7737,-5.7352,-5.7327,-5.7514,-5.7364,-5.7476,-5.7808,-5.7662,0.0,0.0,-5.7881,-5.7881,-5.7881,-5.7881,-5.7881,-5.7881,-5.7881,-5.7881,-5.7881,-5.7881,-5.7881,-5.7881,-5.7881,-5.7881,-5.7881,-5.7881,-5.7543,-5.7137,-5.7137,-5.6596,-5.5987,-5.5784,-5.531,-5.4735,-5.3991,-5.3822,-5.3754,-5.3551,-5.3518,-5.3518,-5.3518,-5.3518,-5.3518,-5.3518,-5.3518,-5.3518,-5.3518,-5.3518,-5.3518,-5.3518,-5.3518,-5.3518,-5.3518,-5.3518,-5.3518,-5.3518,-5.3518,-5.3518,-5.3518,-5.3518,-5.3518,-5.3518,-5.3518,-5.3518,-5.3518,-5.3518,-5.3518,-5.3518,-5.3518,-5.3518,-5.3518,-5.3518,-5.3518,-5.3584,-5.411,-5.437,-5.3651,-5.4014,-5.4303,0.0,0.0,-5.3518,-5.3518,-5.3518,-5.3518,-5.3518,-5.3518,-5.3518,-5.3518,0.0,0.0,0.0,0.0,0.0,0.0,0.0,0.0,0.0,0.0,0.0,0.0,0.0,0.0,-6.2381,-6.2381,-6.2381,-6.2381,-6.2381,-6.2042,-6.1298,-6.0102,-5.9247,-5.8698,-5.7511,-5.7101,-5.7289,-5.7289,-5.7402,0.0,0.0,0.0,0.0,-5.7881,-5.7881,-5.7881,-5.7881,-5.7881,-5.7881,-5.7881,-5.7881,-5.7881,-5.7881,-5.7881,-5.7881,-5.7881,-5.7881,-5.7881,-5.7881,-5.7881,-5.7881,-5.7881,-5.734,-5.663,-5.5919,-5.5681,-5.5513,-5.4769,-5.4566,-5.4397,-5.3653,-5.3518,-5.3518,-5.3518,-5.3518,-5.3518,-5.3518,-5.3518,-5.3518,-5.3518,-5.3518,-5.3518,-5.3518,-5.3518,-5.3518,-5.3518,-5.3518,-5.3518,-5.3518,-5.3518,-5.3518,-5.3518,-5.3518,-5.3518,-5.3518,-5.3518,-5.3518,-5.3518,-5.3518,-5.3518,-5.3518,-5.3518,-5.3518,-5.3518,-5.3518,-5.3518,-5.3551,-5.375,-5.3817,-5.385,-5.385,-5.3817,-5.385,0.0,-5.3518,-5.3518,-5.3518,-5.3484,-5.3314,-5.3281,-5.3281,-5.3281,-5.3986,0.0,0.0,0.0,0.0,0.0,0.0,0.0,0.0,0.0,0.0,0.0,0.0,0.0,-6.2381,-6.2381,-6.2381,-6.2381,-6.2381,-6.1964,-6.1104,-6.0024,-5.9059,-5.8279,-5.7276,-5.6911,-5.7101,-5.6949,-5.7139,0.0,0.0,0.0,0.0,-5.7698,-5.7698,-5.7698,-5.7845,-5.7881,-5.7881,-5.7881,-5.7881,-5.7881,-5.7881,-5.7881,-5.7881,-5.7881,-5.7881,-5.7881,-5.7881,-5.7881,-5.7881,-5.7881,-5.7712,-5.7374,-5.663,-5.6461,-5.6292,-5.5547,-5.5344,-5.5141,-5.4397,-5.4262,-5.4093,-5.3585,-5.3518,-5.3518,-5.3518,-5.3518,-5.3518,-5.3518,-5.3518,-5.3518,-5.3518,-5.3518,-5.3518,-5.3518,-5.3518,-5.3518,-5.3518,-5.3518,-5.3518,-5.3518,-5.3518,-5.3518,-5.3518,-5.3518,-5.3518,-5.3518,-5.3518,-5.3518,-5.3518,-5.3518,-5.3518,-5.3518,-5.3518,-5.3518,-5.3315,-5.3517,-5.3718,-5.3784,-5.3751,-5.3718,0.0,0.0,-5.3518,-5.3518,-5.3518,-5.3416,-5.3213,-5.3247,-5.3314,-5.3213,0.0,0.0,0.0,0.0,0.0,0.0,0.0,0.0,0.0,0.0,0.0,0.0,0.0,0.0,-6.2381,-6.2381,-6.2381,-6.2381,-6.2381,-6.2139,-6.1509,-6.0158,-5.9226,-5.8603,-5.7332,-5.6757,-5.6872,-5.6757,-5.6987,0.0,0.0,0.0,0.0,-5.7588,-5.7588,-5.7625,-5.7808,-5.7881,-5.7881,-5.7881,-5.7881,-5.7881,-5.7881,-5.7881,-5.7881,-5.7881,-5.7881,-5.7881,-5.7881,-5.7881,-5.7881,-5.7881,-5.7881,-5.778,-5.734,-5.7205,-5.7036,-5.6292,-5.6122,-5.5919,-5.5175,-5.4803,-5.4465,-5.3991,-5.3687,-5.3518,-5.3518,-5.3518,-5.3518,-5.3518,-5.3518,-5.3518,-5.3518,-5.3518,-5.3518,-5.3518,-5.3518,-5.3518,-5.3518,-5.3518,-5.3518,-5.3518,-5.3518,-5.3518,-5.3518,-5.3518,-5.3518,-5.3518,-5.3518,-5.3518,-5.3518,-5.3518,-5.3518,-5.3518,-5.3518,-5.3518,0.0,-5.3416,-5.3882,-5.3551,-5.3751,-5.3882,-5.3551,0.0,0.0,-5.3518,-5.3518,-5.3416,-5.3213,-5.3348,-5.3416,-5.3179,0.0,0.0,0.0,0.0,0.0,0.0,0.0,0.0,0.0,0.0,0.0,0.0,0.0,0.0,-6.2381,-6.2381,-6.2381,-6.2381,-6.2381,-6.2381,-6.2381,-6.0472,-5.9505,-5.9466,-5.7609,-5.668,-5.668,-5.668,-5.6911,0.0,0.0,0.0,0.0,-5.7588,-5.7588,-5.7588,-5.7808,-5.7881,-5.7881,-5.7881,-5.7881,-5.7881,-5.7881,-5.7881,-5.7881,-5.7881,-5.7881,-5.7881,-5.7881,-5.7881,-5.7881,-5.7881,-5.7881,-5.7881,-5.7881,-5.7881,-5.7712,-5.7036,-5.6867,-5.6697,-5.5953,-5.5243,-5.4735,-5.4668,-5.4093,-5.3585,-5.3585,-5.3551,-5.3518,-5.3518,-5.3518,-5.3518,-5.3518,-5.3518,-5.3518,-5.3518,-5.3518,-5.3518,-5.3518,-5.3518,-5.3518,-5.3518,-5.3518,-5.3518,-5.3518,-5.3518,-5.3518,-5.3518,-5.3518,-5.3518,-5.3518,-5.3518,-5.3518,-5.3518,-5.3518,-5.3518,-5.3076,0.0,-5.3584,-5.3551,-5.3551,-5.3584,0.0,-5.3518,0.0,0.0,0.0,0.0,0.0,0.0,0.0,0.0,0.0,0.0,0.0,0.0,0.0,0.0,0.0,0.0,0.0,0.0,0.0,0.0,0.0,-6.2381,-6.2381,-6.2381,-6.2381,-6.2381,-6.2381,-6.2381,-6.2381,-6.0472,-5.9505,-5.9466,-5.7609,-5.668,-5.668,-5.668,-5.6911,0.0,0.0,0.0,-5.7364,-5.7364,-5.7364,-5.7402,-5.7588,-5.7772,-5.7881,-5.7881,-5.7881,-5.7881,-5.7881,-5.7881,-5.7881,-5.7881,-5.7881,-5.7881,-5.7881,-5.7881,-5.7881,-5.7881,-5.7881,-5.7881,-5.7881,-5.7881,-5.7848,-5.7679,-5.7645,-5.7442,-5.6697,-5.6427,-5.6122,-5.5547,-5.4837,-5.4329,-5.4329,-5.3856,-5.3518,-5.3518,-5.3518,-5.3518,-5.3518,-5.3518,-5.3518,-5.3518,-5.3518,-5.3518,-5.3518,-5.3518,-5.3518,-5.3518,-5.3518,-5.3518,-5.3518,-5.3518,-5.3518,-5.3518,-5.3518,-5.3518,-5.3518,-5.3518,-5.3518,-5.3518,-5.3518,-5.3518,-5.3144,-5.3348,-5.3518,-5.3518,-5.3518,-5.3518,-5.3518,0.0,0.0,0.0,0.0,0.0,0.0,0.0,0.0,0.0,0.0,0.0,0.0,0.0,0.0,0.0,0.0,0.0,0.0,0.0,0.0,0.0,0.0,-6.2381,-6.2381,-6.2381,-6.2381,-6.2381,-6.2381,-6.2381,-6.2381,-6.0472,-5.9505,-5.9466,-5.7609,-5.6757,-5.6834,-5.6834,-5.7063,0.0,0.0,0.0,-5.7289,-5.7214,-5.7214,-5.7327,-5.7514,-5.7735,-5.7881,-5.7881,-5.7881,-5.7881,-5.7881,-5.7881,-5.7881,-5.7881,-5.7881,-5.7881,-5.7881,-5.7881,-5.7881,-5.7881,-5.7881,-5.7881,-5.7881,-5.7881,-5.7881,-5.7881,-5.7881,-5.778,-5.7374,-5.7036,-5.6697,-5.6292,-5.5615,-5.5108,-5.5108,-5.4499,-5.3991,-5.3991,-5.3721,-5.3518,-5.3518,-5.3518,-5.3518,-5.3518,-5.3518,-5.3518,-5.3518,-5.3518,-5.3518,-5.3518,-5.3518,-5.3518,-5.3518,-5.3518,-5.3518,-5.3518,-5.3518,-5.3518,-5.3518,-5.3518,-5.3518,-5.3518,-5.3518,-5.3518,-5.3179,-5.3382,-5.3518,-5.3518,-5.3518,-5.3518,-5.3518,0.0,0.0,0.0,0.0,0.0,0.0,-5.3348,0.0,0.0,0.0,0.0,0.0,0.0,0.0,0.0,0.0,0.0,0.0,0.0,0.0,0.0,0.0,-6.2381,-6.2381,-6.2381,-6.2381,-6.2381,-6.2381,-6.2381,-6.2381,-6.0472,-5.9505,-5.9466,-5.7609,-5.6796,-5.6949,-5.6949,-5.7176,-5.7476,0.0,0.0,-5.7252,-5.7063,-5.7139,-5.7327,-5.7476,-5.7698,-5.7881,-5.7881,-5.7881,-5.7881,-5.7881,-5.7881,-5.7881,-5.7881,-5.7881,-5.7881,-5.7881,-5.7881,-5.7881,-5.7881,-5.7881,-5.7881,-5.7881,-5.7881,-5.7881,-5.7881,-5.7881,-5.7881,-5.7881,-5.7408,-5.6968,-5.6968,-5.6393,-5.5886,-5.5886,-5.5277,-5.4769,-5.4769,-5.4126,-5.3687,-5.3687,-5.3585,-5.3518,-5.3518,-5.3518,-5.3518,-5.3518,-5.3518,-5.3518,-5.3518,-5.3518,-5.3518,-5.3518,-5.3518,-5.3518,-5.3518,-5.3518,-5.3518,-5.3518,-5.3518,-5.3518,-5.3518,-5.3518,-5.3518,-5.3348,-5.3484,-5.3518,-5.3518,-5.3518,-5.3518,-5.3518,0.0,0.0,0.0,0.0,0.0,0.0,-5.3213,-5.311,0.0,0.0,0.0,0.0,0.0,0.0,0.0,0.0,0.0,0.0,0.0,0.0,0.0,0.0,-6.2381,-6.2381,-6.2381,-6.2381,-6.2381,-6.2381,-6.2381,-6.2381,-6.0472,-5.9505,-5.9466,-5.7609,-5.6719,-5.6757,-5.6757,-5.6872,-5.7101,0.0,-5.7025,-5.7025,-5.7025,-5.7139,-5.7289,-5.7327,-5.7588,-5.7881,-5.7881,-5.7881,-5.7881,-5.7881,-5.7881,-5.7881,-5.7881,-5.7881,-5.7881,-5.7881,-5.7881,-5.7881,-5.7881,-5.7881,-5.7881,-5.7881,-5.7881,-5.7881,-5.7881,-5.7881,-5.7881,-5.7881,-5.7814,-5.7712,-5.7712,-5.7137,-5.663,-5.663,-5.6021,-5.5547,-5.5547,-5.4905,-5.4431,-5.4431,-5.389,-5.3518,-5.3518,-5.3518,-5.3518,-5.3518,-5.3518,-5.3518,-5.3518,-5.3518,-5.3518,-5.3518,-5.3518,-5.3518,-5.3518,-5.3518,-5.3518,-5.3518,-5.3518,-5.3518,-5.3518,-5.3518,-5.3518,-5.3382,-5.3518,-5.3518,-5.3518,-5.3518,-5.3518,-5.3518,0.0,0.0,0.0,0.0,0.0,0.0,0.0,0.0,0.0,0.0,0.0,0.0,0.0,0.0,0.0,0.0,0.0,0.0,0.0,0.0,0.0,0.0,0.0,-6.2381,-6.2381,-6.2381,-6.2381,-6.2381,-6.2381,-6.2381,-6.0472,-5.9505,-5.9466,-5.7609,-5.6757,-5.6872,-5.6872,-5.6987,-5.7176,0.0,-5.6987,-5.6987,-5.6872,-5.7025,-5.7289,-5.7289,-5.7551,-5.7881,-5.7881,-5.7881,-5.7881,-5.7881,-5.7881,-5.7881,-5.7881,-5.7881,-5.7881,-5.7881,-5.7881,-5.7881,-5.7881,-5.7881,-5.7881,-5.7881,-5.7881,-5.7881,-5.7881,-5.7881,-5.7881,-5.7881,-5.7881,-5.7881,-5.7881,-5.7611,-5.7374,-5.7374,-5.6799,-5.6292,-5.6292,-5.5683,-5.504,-5.4634,-5.4296,-5.3923,-5.3551,-5.3518,-5.3518,-5.3518,-5.3518,-5.3518,-5.3518,-5.3518,-5.3518,-5.3518,-5.3518,-5.3518,-5.3518,-5.3518,-5.3518,-5.3518,-5.3518,-5.3518,-5.3518,-5.3518,-5.3518,-5.3382,-5.3518,-5.3518,-5.3518,-5.3518,-5.3518,-5.3518,-5.345,0.0,0.0,0.0,0.0,0.0,0.0,0.0,0.0,0.0,0.0,0.0,0.0,0.0,0.0,0.0,0.0,0.0,0.0,0.0,0.0,0.0,0.0,-6.2381,-6.2381,-6.2381,-6.2381,-6.2381,-6.2381,-6.2381,-6.0712,-5.9745,-5.9466,-5.7609,-5.6757,-5.6911,-5.6911,-5.7025,-5.7139,-5.6987,-5.6911,-5.6911,-5.6796,-5.6987,-5.7289,-5.7364,-5.7588,-5.7881,-5.7881,-5.7881,-5.7881,-5.7881,-5.7881,-5.7881,-5.7881,-5.7881,-5.7881,-5.7881,-5.7881,-5.7881,-5.7881,-5.7881,-5.7881,-5.7881,-5.7881,-5.7881,-5.7881,-5.7881,-5.7881,-5.7881,-5.7881,-5.7881,-5.7881,-5.7881,-5.7881,-5.7881,-5.7408,-5.707,-5.707,-5.6427,-5.575,-5.5175,-5.4938,-5.4566,-5.3856,-5.3754,-5.3687,-5.3518,-5.3518,-5.3518,-5.3518,-5.3518,-5.3518,-5.3518,-5.3518,-5.3518,-5.3518,-5.3518,-5.3518,-5.3518,-5.3518,-5.3518,-5.3518,-5.3518,-5.3518,-5.3416,-5.3518,-5.3518,-5.3518,-5.3518,-5.3518,-5.3518,-5.3348,0.0,-5.345,0.0,0.0,0.0,0.0,0.0,0.0,0.0,0.0,0.0,0.0,0.0,0.0,0.0,0.0,0.0,0.0,0.0,0.0,0.0,0.0,-6.2381,-6.2381,-6.2381,-6.2381,-6.2381,-6.2381,-6.2381,-6.1408,-6.0399,-5.9466,-5.7609,-5.6719,-5.6719,-5.6719,-5.6719,-5.6719,-5.6719,-5.6719,-5.6719,-5.6911,-5.7101,-5.7327,-5.7514,-5.7698,-5.7881,-5.7881,-5.7881,-5.7881,-5.7881,-5.7881,-5.7881,-5.7881,-5.7881,-5.7881,-5.7881,-5.7881,-5.7881,-5.7881,-5.7881,-5.7881,-5.7881,-5.7881,-5.7881,-5.7881,-5.7881,-5.7881,-5.7881,-5.7881,-5.7881,-5.7881,-5.7881,-5.7881,-5.7881,-5.7848,-5.7814,-5.7814,-5.7171,-5.6697,-5.6664,-5.6055,-5.5344,-5.46,-5.4499,-5.4228,-5.3551,-5.3518,-5.3518,-5.3518,-5.3518,-5.3518,-5.3518,-5.3518,-5.3518,-5.3518,-5.3518,-5.3518,-5.3518,-5.3518,-5.3518,-5.3518,-5.3518,-5.3518,-5.345,-5.3518,-5.3518,-5.3518,-5.3518,-5.3518,0.0,-5.3416,-5.3382,-5.3314,-5.3179,0.0,0.0,0.0,0.0,0.0,0.0,0.0,0.0,0.0,0.0,0.0,0.0,0.0,0.0,0.0,0.0,0.0,0.0,0.0,-6.2381,-6.2381,-6.2381,-6.2381,-6.2381,-6.2381,-6.2381,-6.1475,-6.078,-6.0399,-5.8503,-5.7227,-5.668,-5.668,-5.668,-5.6719,-5.6834,-5.6872,-5.6911,-5.7101,-5.7327,-5.7514,-5.7698,-5.7845,-5.7881,-5.7881,-5.7881,-5.7881,-5.7881,-5.7881,-5.7881,-5.7881,-5.7881,-5.7881,-5.7881,-5.7881,-5.7881,-5.7881,-5.7881,-5.7881,-5.7881,-5.7881,-5.7881,-5.7881,-5.7881,-5.7881,-5.7881,-5.7881,-5.7881,-5.7881,-5.7881,-5.7881,-5.7881,-5.7881,-5.7881,-5.7881,-5.7645,-5.7306,-5.6867,-5.6562,-5.6122,-5.5378,-5.4871,-5.4465,-5.4194,-5.3754,-5.3518,-5.3518,-5.3518,-5.3518,-5.3518,-5.3518,-5.3518,-5.3518,-5.3518,-5.3518,-5.3518,-5.3518,-5.3518,-5.3518,-5.3518,-5.3518,-5.345,-5.3518,-5.345,-5.3416,0.0,0.0,-5.3348,-5.3314,-5.328,-5.3213,-5.3313,-5.3612,-5.4173,0.0,0.0,0.0,0.0,0.0,0.0,0.0,0.0,0.0,0.0,0.0,0.0,0.0,0.0,0.0,0.0,0.0,0.0,-6.2381,-6.2381,-6.2381,-6.2381,-6.2381,-6.2381,-6.1756,-6.1301,-6.0987,-5.9326,-5.8053,-5.7128,-5.6851,-5.668,-5.6719,-5.6911,-5.6987,-5.7025,-5.7289,-5.7514,-5.7698,-5.7845,-5.7881,-5.7881,-5.7881,-5.7881,-5.7881,-5.7881,-5.7881,-5.7881,-5.7881,-5.7881,-5.7881,-5.7881,-5.7881,-5.7881,-5.7881,-5.7881,-5.7881,-5.7881,-5.7881,-5.7881,-5.7881,-5.7881,-5.7881,-5.7881,-5.7881,-5.7881,-5.7881,-5.7881,-5.7881,-5.7881,-5.7881,-5.7881,-5.7881,-5.7881,-5.7712,-5.7205,-5.7137,-5.6867,-5.6156,-5.5378,-5.4938,-5.4938,-5.4499,-5.4194,-5.4194,-5.3991,-5.3754,-5.3518,-5.3518,-5.3518,-5.3518,-5.3518,-5.3518,-5.3518,-5.3518,-5.3619,-5.3856,-5.3856,-5.3991,-5.3518,-5.3518,-5.345,-5.3247,0.0,0.0,-5.2972,-5.2903,-5.2972,-5.3144,-5.3646,-5.4207,-5.4725,0.0,0.0,0.0,0.0,0.0,0.0,0.0,0.0,0.0,0.0,0.0,0.0,0.0,0.0,0.0,0.0,0.0,0.0,-6.2381,-6.2381,-6.2381,-6.2381,-6.2381,-6.2381,-6.2381,-6.193,-6.0987,-5.9985,-5.902,-5.8086,-5.7128,-5.668,-5.6719,-5.6911,-5.6987,-5.7025,-5.7439,-5.7735,-5.7881,-5.7881,-5.7881,-5.7881,-5.7881,-5.7881,-5.7881,-5.7881,-5.7881,-5.7881,-5.7881,-5.7881,-5.7881,-5.7881,-5.7881,-5.7881,-5.7881,-5.7881,-5.7881,-5.7881,-5.7881,-5.7881,-5.7881,-5.7881,-5.7881,-5.7881,-5.7881,-5.7881,-5.7881,-5.7881,-5.7881,-5.7881,-5.7881,-5.7881,-5.7881,-5.7881,-5.7881,-5.7881,-5.7881,-5.7611,-5.69,-5.6156,-5.5681,-5.5681,-5.5681,-5.5681,-5.5681,-5.5006,-5.4262,-5.3551,-5.3518,-5.3518,-5.3518,-5.3518,-5.3518,-5.3518,-5.3518,-5.389,-5.46,-5.46,-5.5006,-5.3518,-5.3518,0.0,-5.3416,0.0,0.0,0.0,-5.311,0.0,0.0,-5.4498,-5.5432,-5.574,0.0,0.0,0.0,0.0,0.0,0.0,0.0,0.0,0.0,0.0,0.0,0.0,0.0,0.0,0.0,0.0,0.0,0.0,-6.2381,-6.2381,-6.2381,-6.2381,-6.2381,-6.2381,-6.2381,-6.2279,-6.1964,-6.1026,-5.9672,-5.8086,-5.7128,-5.668,-5.6719,-5.7063,-5.7214,-5.7252,-5.7662,-5.7845,-5.7881,-5.7881,-5.7881,-5.7881,-5.7881,-5.7881,-5.7881,-5.7881,-5.7881,-5.7881,-5.7881,-5.7881,-5.7881,-5.7881,-5.7881,-5.7881,-5.7881,-5.7881,-5.7881,-5.7881,-5.7881,-5.7881,-5.7881,-5.7881,-5.7881,-5.7881,-5.7881,-5.7881,-5.7881,-5.7881,-5.7881,-5.7881,-5.7881,-5.7881,-5.7881,-5.7881,-5.7881,-5.7881,-5.7881,-5.7814,-5.7577,-5.69,-5.6461,-5.6461,-5.6021,-5.5681,-5.5681,-5.5513,-5.5277,-5.5074,-5.4566,-5.4532,-5.504,-5.5074,-5.5074,-5.5074,-5.5074,-5.5175,-5.5378,-5.5378,-5.5513,-5.3518,-5.3518,0.0,-5.3382,-5.3314,-5.3212,-5.3376,0.0,0.0,0.0,0.0,-5.617,0.0,0.0,0.0,0.0,0.0,0.0,0.0,0.0,0.0,0.0,0.0,0.0,0.0,0.0,0.0,0.0,0.0,0.0,0.0,-6.2381,-6.2381,-6.2381,-6.2381,-6.2381,-6.2381,-6.2381,-6.2381,-6.2381,-6.1442,-6.0192,-5.8603,-5.7676,-5.7022,-5.6719,-5.7139,-5.7402,-5.7551,-5.7808,-5.7881,-5.7881,-5.7881,-5.7881,-5.7881,-5.7881,-5.7881,-5.7881,-5.7881,-5.7881,-5.7881,-5.7881,-5.7881,-5.7881,-5.7881,-5.7881,-5.7881,-5.7881,-5.7881,-5.7881,-5.7881,-5.7881,-5.7881,-5.7881,-5.7881,-5.7881,-5.7881,-5.7881,-5.7881,-5.7881,-5.7881,-5.7881,-5.7881,-5.7881,-5.7881,-5.7881,-5.7881,-5.7881,-5.7881,-5.7881,-5.7881,-5.7881,-5.7476,-5.7239,-5.7239,-5.6833,-5.6562,-5.6562,-5.6325,-5.6292,-5.6562,-5.5581,-5.5243,-5.5716,-5.5681,-5.5681,-5.5681,-5.5681,-5.5852,-5.6156,-5.6156,-5.6292,-5.3518,-5.3518,0.0,-5.328,-5.3246,0.0,-5.3695,-5.3856,-5.4289,-5.5621,0.0,0.0,0.0,0.0,0.0,0.0,0.0,0.0,0.0,0.0,0.0,0.0,0.0,0.0,0.0,0.0,0.0,0.0,0.0,0.0,0.0,-6.2381,-6.2381,-6.2381,-6.2381,-6.2381,-6.2381,-6.2381,-6.2381,-6.2381,-6.1509,-6.0539,-5.9466,-5.8536,-5.7609,-5.6757,-5.7139,-5.7514,-5.7881,-5.7881,-5.7881,-5.7881,-5.7881,-5.7881,-5.7881,-5.7881,-5.7881,-5.7881,-5.7881,-5.7881,-5.7881,-5.7881,-5.7881,-5.7881,-5.7881,-5.7881,-5.7881,-5.7881,-5.7881,-5.7881,-5.7881,-5.7881,-5.7881,-5.7881,-5.7881,-5.7881,-5.7881,-5.7881,-5.7881,-5.7881,-5.7881,-5.7881,-5.7881,-5.7881,-5.7881,-5.7881,-5.7881,-5.7881,-5.7881,-5.7881,-5.7881,-5.7881,-5.7881,-5.7881,-5.7881,-5.7881,-5.7881,-5.7881,-5.7273,-5.7205,-5.7848,-5.6562,-5.5852,-5.5919,-5.5919,-5.5919,-5.5919,-5.5919,-5.6258,-5.69,-5.69,-5.7273,-5.3518,-5.3382,0.0,0.0,-5.365,-5.3904,-5.4276,-5.4911,-5.5521,0.0,0.0,0.0,0.0,0.0,0.0,0.0,0.0,0.0,0.0,0.0,0.0,0.0,0.0,0.0,0.0,0.0,0.0,0.0,0.0,0.0,-6.2381,-6.2381,-6.2381,-6.2381,-6.2381,-6.2381,-6.2381,-6.2381,-6.2381,0.0,-6.2206,-6.12,-5.9466,-5.8536,-5.7686,-5.6949,-5.7176,-5.7439,-5.7662,-5.7845,-5.7881,-5.7881,-5.7881,-5.7881,-5.7881,-5.7881,-5.7881,-5.7881,-5.7881,-5.7881,-5.7881,-5.7881,-5.7881,-5.7881,-5.7881,-5.7881,-5.7881,-5.7881,-5.7881,-5.7881,-5.7881,-5.7881,-5.7881,-5.7881,-5.7881,-5.7881,-5.7881,-5.7881,-5.7881,-5.7881,-5.7881,-5.7881,-5.7881,-5.7881,-5.7881,-5.7881,-5.7881,-5.7881,-5.7881,-5.7881,-5.7881,-5.7881,-5.7881,-5.7881,-5.7881,-5.7881,-5.7881,-5.7881,-5.7746,-5.7712,-5.7881,-5.7036,-5.6833,-5.7408,-5.7408,-5.7408,-5.7408,-5.7408,-5.7509,-5.7645,-5.7645,-5.7746,-5.3518,0.0,0.0,-5.3246,0.0,-5.4102,-5.4435,0.0,0.0,0.0,0.0,0.0,0.0,0.0,0.0,0.0,0.0,0.0,0.0,0.0,0.0,0.0,0.0,0.0,0.0,0.0,0.0,0.0,0.0,-6.2381,-6.2381,-6.2381,-6.2381,-6.2381,-6.2381,-6.2381,-6.2381,-6.2381,-6.2381,-6.2381,-6.2381,-6.1374,-5.9432,-5.8053,-5.7276,-5.7025,-5.7101,-5.7289,-5.7476,-5.7588,-5.7662,-5.7772,-5.7772,-5.7808,-5.7881,-5.7881,-5.7881,-5.7881,-5.7881,-5.7881,-5.7881,-5.7881,-5.7881,-5.7881,-5.7881,-5.7881,-5.7881,-5.7881,-5.7881,-5.7881,-5.7881,-5.7881,-5.7881,-5.7881,-5.7881,-5.7881,-5.7881,-5.7881,-5.7881,-5.7881,-5.7881,-5.7881,-5.7881,-5.7881,-5.7881,-5.7881,-5.7881,-5.7881,-5.7881,-5.7881,-5.7881,-5.7881,-5.7881,-5.7881,-5.7881,-5.7881,-5.7881,-5.7881,-5.7881,-5.7881,-5.7881,-5.7509,-5.7509,-5.7881,-5.7881,-5.7881,-5.7881,-5.7881,-5.7881,-5.7881,-5.7881,-5.7881,-5.3518,0.0,-5.3382,-5.2938,-5.3437,0.0,0.0,0.0,0.0,0.0,0.0,0.0,0.0,0.0,0.0,0.0,0.0,0.0,0.0,0.0,0.0,0.0,0.0,0.0,0.0,0.0,0.0,0.0,0.0,-6.2245,-6.2381,-6.2381,-6.2381,-6.2381,-6.2381,-6.2381,-6.2381,-6.2381,-6.2381,-6.2381,-6.224,-6.1234,-5.9432,-5.7709,-5.6967,-5.6949,-5.6987,-5.7101,-5.7252,-5.7289,-5.7402,-5.7551,-5.7551,-5.7662,-5.7808,-5.7845,-5.7845,-5.7845,-5.7881,-5.7881,-5.7881,-5.7881,-5.7881,-5.7881,-5.7881,-5.7881,-5.7881,-5.7881,-5.7881,-5.7881,-5.7881,-5.7881,-5.7881,-5.7881,-5.7881,-5.7881,-5.7881,-5.7881,-5.7881,-5.7881,-5.7881,-5.7881,-5.7881,-5.7881,-5.7881,-5.7881,-5.7881,-5.7881,-5.7881,-5.7881,-5.7881,-5.7881,-5.7881,-5.7881,-5.7881,-5.7881,-5.7881,-5.7881,-5.7881,-5.7881,-5.7881,-5.7881,-5.7881,-5.7881,-5.7881,-5.7881,-5.7881,-5.7881,-5.7881,-5.7881,-5.7881,-5.7881,0.0,0.0,-5.3348,0.0,0.0,0.0,0.0,0.0,0.0,0.0,0.0,0.0,0.0,0.0,0.0,0.0,0.0,0.0,0.0,0.0,0.0,0.0,0.0,0.0,0.0,0.0,0.0,0.0,-6.0994,-6.1738,-6.2347,-6.2381,-6.2381,-6.2381,-6.2381,-6.2381,-6.2381,-6.2381,-6.2381,-6.2381,-6.1582,-6.0572,-5.9432,-5.8397,-5.7471,-5.6757,-5.6911,-5.7025,-5.7063,-5.7214,-5.7327,-5.7327,-5.7327,-5.7364,-5.7402,-5.7588,-5.7625,-5.7662,-5.7845,-5.7881,-5.7881,-5.7881,-5.7881,-5.7881,-5.7881,-5.7881,-5.7881,-5.7881,-5.7881,-5.7881,-5.7881,-5.7881,-5.7881,-5.7881,-5.7881,-5.7881,-5.7881,-5.7881,-5.7881,-5.7881,-5.7881,-5.7881,-5.7881,-5.7881,-5.7881,-5.7881,-5.7881,-5.7881,-5.7881,-5.7881,-5.7881,-5.7881,-5.7881,-5.7881,-5.7881,-5.7881,-5.7881,-5.7881,-5.7881,-5.7881,-5.7881,-5.7881,-5.7881,-5.7881,-5.7881,-5.7881,-5.7881,-5.7881,-5.7881,-5.7881,-5.7881,-5.7881,-5.3518,0.0,0.0,0.0,0.0,0.0,0.0,0.0,0.0,0.0,0.0,0.0,0.0,0.0,0.0,0.0,0.0,0.0,0.0,0.0,0.0,0.0,0.0,0.0,0.0,0.0,0.0,0.0,-6.0622,-6.1434,-6.1772,-6.2178,-6.2381,-6.2381,-6.2381,-6.2381,-6.2381,-6.2381,-6.2381,-6.2381,-6.1998,-6.0993,-5.9505,-5.9087,-5.8086,-5.668,-5.6796,-5.6834,-5.6834,-5.6911,-5.7025,-5.7139,-5.7139,-5.7214,-5.7327,-5.7402,-5.7514,-5.7625,-5.7698,-5.7808,-5.7881,-5.7881,-5.7881,-5.7881,-5.7881,-5.7881,-5.7881,-5.7881,-5.7881,-5.7881,-5.7881,-5.7881,-5.7881,-5.7881,-5.7881,-5.7881,-5.7772,-5.7808,-5.7881,-5.7881,-5.7881,-5.7881,-5.7881,-5.7881,-5.7881,-5.7881,-5.7881,-5.7881,-5.7881,-5.7881,-5.7881,-5.7881,-5.7881,-5.7881,-5.7881,-5.7881,-5.7881,-5.7881,-5.7881,-5.7881,-5.7881,-5.7881,-5.7881,-5.7881,-5.7881,-5.7881,-5.7881,-5.7881,-5.7881,-5.7881,-5.7881,-5.7881,0.0,0.0,0.0,0.0,0.0,0.0,0.0,0.0,0.0,0.0,0.0,0.0,0.0,0.0,0.0,0.0,0.0,0.0,0.0,0.0,0.0,0.0,0.0,0.0,0.0,0.0,0.0,0.0,-6.008,-6.0892,-6.1298,-6.1806,-6.2212,-6.2381,-6.2381,-6.2381,-6.2381,-6.2381,-6.2381,-6.2381,-6.2381,-6.1374,-5.9505,-5.9505,-5.8503,-5.668,-5.668,-5.668,-5.668,-5.668,-5.6796,-5.6911,-5.6911,-5.7025,-5.7139,-5.7214,-5.7327,-5.7476,-5.7551,-5.7698,-5.7845,-5.7881,-5.7881,-5.7881,-5.7881,-5.7881,-5.7881,-5.7881,-5.7881,-5.7881,-5.7881,-5.7881,-5.7881,-5.7881,-5.7845,-5.7772,-5.7625,-5.7662,-5.7772,-5.7808,-5.7808,-5.7845,-5.7881,-5.7881,-5.7881,-5.7881,-5.7881,-5.7881,-5.7881,-5.7881,-5.7881,-5.7881,-5.7881,-5.7881,-5.7881,-5.7881,-5.7881,-5.7881,-5.7881,-5.7881,-5.7881,-5.7881,-5.7881,-5.7881,-5.7881,-5.7881,-5.7881,-5.7881,-5.7881,-5.7881,-5.7881,-5.7881,0.0,0.0,0.0,0.0,0.0,0.0,0.0,0.0,0.0,0.0,0.0,0.0,0.0,0.0,0.0,0.0,0.0,0.0,0.0,0.0,0.0,0.0,0.0,0.0,0.0,0.0,0.0,0.0,-5.9099,-5.9776,-6.1231,-6.1332,-6.167,-6.2381,-6.2381,-6.2381,-6.2381,-6.2381,-6.2381,-6.2381,-6.2381,-6.1374,-5.9505,-5.9505,-5.8503,-5.668,-5.668,-5.668,-5.668,-5.668,-5.6719,-5.6719,-5.6719,-5.6719,-5.6757,-5.6949,-5.7025,-5.7101,-5.7476,-5.7625,-5.7662,-5.7845,-5.7881,-5.7881,-5.7881,-5.7881,-5.7881,-5.7881,-5.7881,-5.7881,-5.7881,-5.7881,-5.7881,-5.7881,-5.7735,-5.7625,-5.7588,-5.7476,-5.7402,-5.7588,-5.7625,-5.7662,-5.7881,-5.7881,-5.7881,-5.7881,-5.7881,-5.7881,-5.7881,-5.7881,-5.7881,-5.7881,-5.7881,-5.7881,-5.7881,-5.7881,-5.7881,-5.7881,-5.7881,-5.7881,-5.7881,-5.7881,-5.7881,-5.7881,-5.7881,-5.7881,-5.7881,-5.7881,-5.7881,-5.7881,-5.7881,-5.7881,0.0,0.0,0.0,0.0,0.0,0.0,0.0,0.0,0.0,0.0,0.0,0.0,0.0,0.0,0.0,0.0,0.0,0.0,0.0,0.0,0.0,0.0,0.0,0.0,0.0,0.0,0.0,0.0,0.0,-5.9268,-5.981,-6.0757,-6.1434,-6.167,-6.2144,-6.2381,-6.2381,-6.2381,-6.2381,-6.2381,-6.2381,-6.1374,-5.9505,-5.9505,-5.8503,-5.668,-5.668,-5.668,-5.668,-5.668,-5.668,-5.668,-5.668,-5.668,-5.6719,-5.6757,-5.6872,-5.7025,-5.7327,-5.7476,-5.7625,-5.7845,-5.7881,-5.7881,-5.7881,-5.7881,-5.7881,-5.7881,-5.7881,-5.7881,-5.7881,-5.7808,-5.7662,-5.7551,-5.7364,-5.7252,-5.7364,-5.7364,-5.7364,-5.7551,-5.7588,-5.7625,-5.7698,-5.7808,-5.7881,-5.7881,-5.7881,-5.7881,-5.7881,-5.7881,-5.7881,-5.7881,-5.7881,-5.7881,-5.7881,-5.7881,-5.7881,-5.7881,-5.7881,-5.7881,-5.7881,-5.7881,-5.8118,-5.8592,-5.8626,-5.8355,-5.7881,-5.7881,-5.7881,-5.7881,-5.7881,-5.7881,-5.3518,0.0,0.0,0.0,0.0,0.0,0.0,0.0,0.0,0.0,0.0,0.0,0.0,0.0,0.0,0.0,0.0,0.0,0.0,0.0,0.0,0.0,0.0,0.0,0.0,0.0,0.0,0.0,0.0,0.0,-5.8998,-5.9979,-6.0791,-6.1298,-6.1772,-6.2144,-6.2381,-6.2381,-6.2381,-6.2381,-6.2066,-6.106,-5.9505,-5.9193,-5.8191,-5.668,-5.668,-5.668,-5.668,-5.668,-5.668,-5.668,-5.668,-5.668,-5.668,-5.668,-5.6796,-5.6911,-5.7139,-5.7327,-5.7551,-5.7735,-5.7845,-5.7881,-5.7881,-5.7881,-5.7881,-5.7881,-5.7881,-5.7881,-5.7881,-5.7735,-5.7551,-5.7252,-5.7101,-5.7063,-5.7252,-5.7176,-5.7176,-5.7439,-5.7439,-5.7439,-5.7588,-5.7698,-5.7808,-5.7881,-5.7881,-5.7881,-5.7881,-5.7881,-5.7881,-5.7881,-5.7881,-5.7881,-5.7881,-5.7881,-5.7881,-5.7881,-5.7881,-5.7881,-5.7881,-5.8118,-5.849,-5.8998,-5.9268,-5.9133,-5.8626,-5.8626,-5.8626,-5.8626,-5.8626,-5.8626,0.0,0.0,0.0,0.0,0.0,0.0,0.0,0.0,0.0,0.0,0.0,0.0,0.0,0.0,0.0,0.0,0.0,0.0,0.0,0.0,0.0,0.0,0.0,0.0,0.0,0.0,0.0,0.0,-5.7881,-5.822,-5.893,-5.8998,-5.9708,-6.1231,-6.1264,-6.1603,-6.2313,-6.2313,-6.2313,-6.2313,-6.1408,-6.0399,-5.9432,-5.8536,-5.757,-5.668,-5.668,-5.668,-5.668,-5.668,-5.668,-5.668,-5.668,-5.668,-5.668,-5.668,-5.668,-5.6719,-5.6911,-5.7139,-5.7327,-5.7551,-5.7735,-5.7881,-5.7881,-5.7881,-5.7881,-5.7881,-5.7881,-5.7881,-5.7881,-5.7735,-5.7476,-5.7101,-5.6987,-5.7063,-5.7252,-5.6987,-5.6834,-5.7214,-5.7139,-5.7139,-5.7514,-5.7588,-5.7662,-5.7845,-5.7881,-5.7881,-5.7881,-5.7881,-5.7881,-5.7881,-5.7881,-5.7881,-5.7881,-5.7881,-5.7881,-5.7881,-5.7881,-5.7881,-5.7881,-5.8592,-5.8998,-5.9032,-5.9742,-6.0114,-6.0182,-6.0114,-6.0114,-6.0114,-6.0114,-6.0114,-5.3518,0.0,0.0,0.0,0.0,0.0,-5.2659,-5.3899,0.0,0.0,0.0,0.0,0.0,0.0,0.0,0.0,0.0,0.0,0.0,0.0,0.0,0.0,0.0,0.0,0.0,0.0,0.0,0.0,-5.7881,-5.7983,-5.8186,-5.8727,-5.9438,-6.0419,-6.0266,-6.029,-6.0531,-6.0376,-6.0298,-6.0298,-6.0058,-5.9399,-5.8464,-5.8225,-5.757,-5.668,-5.668,-5.668,-5.668,-5.668,-5.668,-5.668,-5.668,-5.668,-5.668,-5.668,-5.668,-5.6719,-5.6911,-5.7025,-5.7139,-5.7476,-5.7625,-5.7698,-5.7845,-5.7881,-5.7881,-5.7881,-5.7881,-5.7845,-5.7551,-5.7439,-5.7289,-5.6872,-5.6796,-5.6872,-5.7214,-5.6987,-5.6834,-5.7214,-5.7139,-5.7025,-5.7139,-5.7402,-5.7625,-5.7662,-5.7808,-5.7881,-5.7881,-5.7881,-5.7881,-5.7881,-5.7772,-5.7735,-5.7881,-5.7772,-5.7735,-5.7881,-5.7881,-5.7881,-5.7881,-5.8084,-5.8693,-5.9776,-6.0013,-6.0655,-6.1738,-6.0655,-6.0114,-6.0114,-6.0114,-6.0419,0.0,0.0,0.0,0.0,0.0,0.0,-5.3026,-5.4133,-5.5216,0.0,0.0,0.0,0.0,0.0,0.0,0.0,0.0,0.0,0.0,0.0,0.0,0.0,0.0,0.0,0.0,-5.7881,-5.7881,-5.7881,-5.7881,-5.7881,-5.7881,-5.8321,-5.8896,-5.9641,-5.9452,-5.9472,-5.9775,-5.9582,-5.9505,-5.9505,-5.9087,-5.8603,-5.8086,-5.7709,-5.7194,-5.668,-5.668,-5.668,-5.668,-5.668,-5.668,-5.668,-5.668,-5.668,-5.668,-5.668,-5.668,-5.6719,-5.6834,-5.6911,-5.7063,-5.7364,-5.7551,-5.7625,-5.7845,-5.7881,-5.7881,-5.7881,-5.7881,-5.7808,-5.7402,-5.7289,-5.7214,-5.6796,-5.6757,-5.6911,-5.7252,-5.7101,-5.7025,-5.7252,-5.7063,-5.6911,-5.6987,-5.7176,-5.7364,-5.7476,-5.7662,-5.7772,-5.7772,-5.7845,-5.7881,-5.7881,-5.7808,-5.7772,-5.7881,-5.7772,-5.7772,-5.7881,-5.7881,-5.7881,-5.7881,-5.8186,-5.8761,-5.9641,-5.9945,-6.0723,-6.1941,-6.1332,-6.1061,-6.1061,-6.1061,-6.1163,0.0,0.0,0.0,0.0,-5.3172,0.0,-5.3728,-5.457,-5.5487,0.0,0.0,0.0,0.0,0.0,0.0,0.0,0.0,0.0,0.0,0.0,0.0,0.0,0.0,0.0,-5.7881,-5.7881,-5.7881,-5.7881,-5.7881,-5.7881,-5.7881,-5.7881,-5.8186,-5.8863,-5.8673,-5.89,-5.9501,-5.9309,-5.9193,-5.9193,-5.8364,-5.7947,-5.7914,-5.7094,-5.668,-5.668,-5.668,-5.668,-5.668,-5.668,-5.668,-5.668,-5.668,-5.668,-5.668,-5.668,-5.668,-5.668,-5.668,-5.6834,-5.6987,-5.7214,-5.7439,-5.7588,-5.7808,-5.7881,-5.7881,-5.7881,-5.7881,-5.7808,-5.7439,-5.7327,-5.7252,-5.6834,-5.6872,-5.7063,-5.7252,-5.7289,-5.7289,-5.7327,-5.7025,-5.6796,-5.6987,-5.6987,-5.7063,-5.7252,-5.7439,-5.7588,-5.7588,-5.7772,-5.7881,-5.7881,-5.7881,-5.7881,-5.7881,-5.7881,-5.7881,-5.7881,-5.7881,-5.7881,-5.7881,-5.8524,-5.893,-5.9032,-5.9742,-6.0452,-6.1163,-6.2009,-6.2381,-6.2381,-6.2381,-6.2009,0.0,0.0,0.0,0.0,0.0,0.0,-5.4845,-5.5557,-5.6306,0.0,0.0,0.0,0.0,0.0,0.0,0.0,0.0,0.0,0.0,0.0,0.0,0.0,0.0,0.0,-5.7881,-5.7881,-5.7881,-5.7881,-5.7881,-5.7881,-5.7881,-5.7881,-5.7949,-5.8084,-5.7934,-5.7816,-5.78,-5.7611,-5.742,-5.7266,-5.7056,-5.6989,-5.6989,-5.6785,-5.668,-5.668,-5.668,-5.668,-5.668,-5.668,-5.668,-5.668,-5.668,-5.668,-5.668,-5.668,-5.668,-5.668,-5.668,-5.6719,-5.6834,-5.7176,-5.7327,-5.7402,-5.7588,-5.7772,-5.7881,-5.7881,-5.7881,-5.7845,-5.7588,-5.7551,-5.7439,-5.7025,-5.6987,-5.7063,-5.7252,-5.7176,-5.7139,-5.7476,-5.7214,-5.6949,-5.6987,-5.6987,-5.7025,-5.7063,-5.7214,-5.7439,-5.7588,-5.7625,-5.7735,-5.7881,-5.7772,-5.7735,-5.7881,-5.7735,-5.7735,-5.7881,-5.7881,-5.7881,-5.7881,-5.8017,-5.8389,-5.8998,-5.9742,-6.0182,-6.0351,-6.1704,-6.2381,-6.2381,-6.2381,-6.2009,0.0,0.0,0.0,-5.5331,0.0,0.0,0.0,-5.6169,-5.6648,-5.7128,0.0,0.0,0.0,0.0,0.0,0.0,0.0,0.0,0.0,0.0,0.0,0.0,0.0,0.0,-5.7881,-5.7881,-5.7881,-5.7881,-5.7881,-5.7881,-5.7881,-5.7881,-5.7881,-5.7881,-5.7698,-5.7514,-5.7289,-5.7101,-5.6911,-5.668,-5.668,-5.668,-5.668,-5.668,-5.668,-5.668,-5.668,-5.668,-5.668,-5.668,-5.668,-5.668,-5.668,-5.668,-5.668,-5.668,-5.668,-5.668,-5.668,-5.668,-5.6757,-5.7063,-5.7214,-5.7327,-5.7551,-5.7735,-5.7881,-5.7772,-5.7808,-5.7845,-5.7662,-5.7588,-5.7514,-5.7214,-5.7214,-5.7327,-5.7439,-5.7439,-5.7514,-5.7698,-5.7514,-5.7289,-5.7176,-5.7139,-5.7139,-5.7139,-5.7327,-5.7476,-5.7588,-5.7698,-5.7772,-5.7881,-5.7808,-5.7772,-5.7881,-5.7808,-5.7772,-5.7881,-5.7881,-5.7881,-5.7881,-5.7881,-5.8051,-5.8457,-5.9201,-5.9573,-5.9573,-6.0689,-6.1231,-6.1231,-6.1231,-6.0858,0.0,0.0,0.0,0.0,0.0,-5.5791,0.0,0.0,0.0,-5.7744,0.0,0.0,0.0,0.0,0.0,0.0,0.0,0.0,0.0,0.0,0.0,0.0,0.0,0.0,0.0,-5.7881,-5.7881,-5.7881,-5.7881,-5.7881,-5.7881,-5.7881,-5.7881,-5.7881,-5.7735,-5.7551,-5.7289,-5.7139,-5.6949,-5.668,-5.668,-5.668,-5.668,-5.668,-5.668,-5.668,-5.668,-5.668,-5.668,-5.668,-5.668,-5.668,-5.668,-5.668,-5.668,-5.668,-5.668,-5.668,-5.668,-5.668,-5.6719,-5.6949,-5.7101,-5.7289,-5.7476,-5.7662,-5.7772,-5.7625,-5.7735,-5.7845,-5.7698,-5.7662,-5.7625,-5.7402,-5.7476,-5.7588,-5.7588,-5.7735,-5.7845,-5.7881,-5.7772,-5.7588,-5.7402,-5.7327,-5.7289,-5.7289,-5.7439,-5.7551,-5.7588,-5.7735,-5.7845,-5.7881,-5.7881,-5.7881,-5.7881,-5.7881,-5.7881,-5.7881,-5.7881,-5.7881,-5.7881,-5.7881,-5.7881,-5.7881,-5.849,-5.8795,-5.8795,-5.9404,-5.981,-6.0114,-6.0114,-5.9708,0.0,0.0,0.0,0.0,-5.5883,0.0,0.0,0.0,-5.778,-5.7881,0.0,0.0,0.0,0.0,0.0,0.0,0.0,0.0,0.0,0.0,0.0,0.0,0.0,0.0,0.0,-5.7881,-5.7881,-5.7881,-5.7881,-5.7881,-5.7881,-5.7881,-5.7881,-5.7881,-5.7881,-5.7698,-5.7289,-5.7289,-5.7063,-5.668,-5.668,-5.668,-5.668,-5.668,-5.668,-5.668,-5.668,-5.668,-5.668,-5.668,-5.668,-5.668,-5.668,-5.668,-5.668,-5.668,-5.668,-5.668,-5.668,-5.668,-5.6719,-5.6949,-5.7025,-5.7063,-5.7289,-5.7364,-5.7402,-5.7551,-5.7735,-5.7881,-5.7881,-5.7845,-5.7808,-5.7625,-5.7588,-5.7588,-5.7588,-5.7625,-5.7698,-5.7845,-5.7881,-5.7808,-5.7588,-5.7439,-5.7289,-5.7289,-5.7327,-5.7402,-5.7588,-5.7625,-5.7698,-5.7881,-5.7881,-5.7881,-5.7881,-5.7881,-5.7881,-5.7881,-5.7881,-5.7881,-5.7881,-5.7881,-5.7881,-5.7881,-5.7983,-5.8017,-5.8017,-5.8084,-5.8795,-6.0114,-6.0114,-5.9708,0.0,0.0,0.0,0.0,0.0,0.0,-5.5836,0.0,-5.7143,0.0,0.0,0.0,0.0,0.0,0.0,0.0,0.0,0.0,0.0,0.0,0.0,0.0,0.0,0.0,0.0,0.0,0.0,0.0,-5.7881,-5.7881,-5.7881,-5.7881,-5.7881,-5.7881,-5.7881,-5.7698,-5.7289,-5.7402,-5.7214,-5.668,-5.6834,-5.6796,-5.668,-5.668,-5.668,-5.668,-5.668,-5.668,-5.668,-5.668,-5.668,-5.668,-5.668,-5.668,-5.668,-5.668,-5.668,-5.668,-5.668,-5.668,-5.6719,-5.6949,-5.6987,-5.7025,-5.7101,-5.7289,-5.7476,-5.7439,-5.7662,-5.7881,-5.7881,-5.7881,-5.7881,-5.7772,-5.7772,-5.7772,-5.7772,-5.7772,-5.7808,-5.7881,-5.7881,-5.7881,-5.7772,-5.7698,-5.7662,-5.7662,-5.7662,-5.7662,-5.7772,-5.7772,-5.7808,-5.7881,-5.7881,-5.7881,-5.7881,-5.7881,-5.7881,-5.7881,-5.7881,-5.7881,-5.7881,-5.7881,-5.7881,-5.7881,-5.7881,-5.7881,-5.7881,-5.7881,-5.822,-5.8829,-5.8829,-5.866,-5.3477,0.0,0.0,0.0,0.0,0.0,0.0,0.0,0.0,0.0,0.0,0.0,0.0,0.0,0.0,0.0,0.0,0.0,0.0,0.0,0.0,0.0,0.0,0.0,0.0,0.0,0.0,-5.7881,-5.7881,-5.7881,-5.7881,-5.7881,-5.7881,-5.7881,-5.7881,-5.7698,-5.7289,-5.7439,-5.7252,-5.668,-5.6834,-5.6834,-5.668,-5.668,-5.668,-5.668,-5.668,-5.668,-5.668,-5.668,-5.668,-5.668,-5.668,-5.668,-5.668,-5.668,-5.668,-5.668,-5.668,-5.668,-5.6719,-5.6872,-5.6911,-5.6911,-5.6911,-5.7176,-5.7402,-5.7327,-5.7551,-5.7808,-5.7881,-5.7881,-5.7881,-5.7881,-5.7881,-5.7881,-5.7881,-5.7881,-5.7881,-5.7881,-5.7881,-5.7881,-5.7881,-5.7881,-5.7881,-5.7881,-5.7881,-5.7881,-5.7881,-5.7881,-5.7881,-5.7881,-5.7881,-5.7881,-5.7881,-5.7881,-5.7881,-5.7881,-5.7881,-5.7881,-5.7881,-5.7881,-5.7881,-5.7881,-5.7881,-5.7881,-5.7881,-5.7881,-5.7881,-5.7881,-5.7881,-5.7881,0.0,0.0,0.0,-5.2788,0.0,0.0,0.0,0.0,-5.5353,0.0,0.0,0.0,0.0,0.0,0.0,0.0,0.0,0.0,0.0,0.0,0.0,0.0,0.0,0.0,0.0,0.0,0.0,-5.7881,-5.7881,-5.7881,-5.7881,-5.7881,-5.7881,-5.7881,-5.7881,-5.7698,-5.7289,-5.7327,-5.7101,-5.668,-5.6719,-5.6719,-5.668,-5.668,-5.668,-5.668,-5.668,-5.668,-5.668,-5.668,-5.668,-5.668,-5.668,-5.668,-5.668,-5.668,-5.668,-5.668,-5.668,-5.668,-5.668,-5.6719,-5.6719,-5.6719,-5.6719,-5.6834,-5.7063,-5.7252,-5.7439,-5.7662,-5.7845,-5.7881,-5.7881,-5.7881,-5.7881,-5.7881,-5.7881,-5.7881,-5.7881,-5.7881,-5.7881,-5.7881,-5.7881,-5.7881,-5.7881,-5.7881,-5.7881,-5.7881,-5.7881,-5.7881,-5.7881,-5.7881,-5.7881,-5.7881,-5.7881,-5.7881,-5.7881,-5.7881,-5.7881,-5.7881,-5.7881,-5.7881,-5.7881,-5.7881,-5.7881,-5.7881,-5.7881,-5.7881,-5.7881,-5.7881,-5.7881,-5.7881,0.0,0.0,-5.3283,-5.2821,0.0,0.0,0.0,0.0,0.0,0.0,0.0,0.0,0.0,0.0,0.0,0.0,0.0,0.0,0.0,0.0,0.0,0.0,0.0,0.0,0.0,0.0,0.0,-5.7881,-5.7881,-5.7881,-5.7881,-5.7881,-5.7881,-5.7881,-5.7881,-5.7772,-5.7514,-5.7625,-5.7439,-5.6911,-5.7025,-5.6949,-5.668,-5.668,-5.668,-5.668,-5.668,-5.668,-5.668,-5.668,-5.668,-5.668,-5.668,-5.668,-5.668,-5.668,-5.668,-5.668,-5.668,-5.668,-5.668,-5.668,-5.668,-5.668,-5.668,-5.6834,-5.7025,-5.7101,-5.7252,-5.7439,-5.7662,-5.7698,-5.7735,-5.7881,-5.7881,-5.7881,-5.7881,-5.7881,-5.7881,-5.7881,-5.7881,-5.7881,-5.7881,-5.7881,-5.7881,-5.7881,-5.7881,-5.7881,-5.7881,-5.7881,-5.7881,-5.7881,-5.7881,-5.7881,-5.7881,-5.7881,-5.7881,-5.7881,-5.7881,-5.7881,-5.7881,-5.7881,-5.7881,-5.7881,-5.7881,-5.7881,-5.7881,-5.7881,-5.7881,-5.7881,-5.7881,-5.7881,-5.416,-5.4083,0.0,-5.3529,-5.3252,0.0,-5.3067,0.0,0.0,0.0,0.0,0.0,0.0,0.0,0.0,0.0,0.0,0.0,0.0,-5.7147,0.0,0.0,0.0,0.0,0.0,0.0,-5.7881,-5.7881,-5.7881,-5.7881,0.0,0.0,-5.7881,-5.7881,-5.7881,-5.7808,-5.7588,-5.7735,-5.7551,-5.7101,-5.7176,-5.7101,-5.6911,-5.6757,-5.6719,-5.6796,-5.6719,-5.668,-5.668,-5.668,-5.668,-5.668,-5.668,-5.668,-5.668,-5.668,-5.668,-5.668,-5.668,-5.668,-5.668,-5.668,-5.668,-5.668,-5.668,-5.6796,-5.6911,-5.7063,-5.7139,-5.7289,-5.7625,-5.7662,-5.7662,-5.7845,-5.7881,-5.7881,-5.7881,-5.7881,-5.7881,-5.7881,-5.7881,-5.7881,-5.7881,-5.7881,-5.7881,-5.7881,-5.7881,-5.7881,-5.7881,-5.7881,-5.7881,-5.7881,-5.7881,-5.7881,-5.7881,-5.7881,-5.7881,-5.7881,-5.7881,-5.7881,-5.7881,-5.7881,-5.7881,-5.7881,-5.7881,-5.7881,-5.7881,-5.7881,-5.7881,-5.7881,-5.7881,-5.7881]},{"header":{"parameterUnit":"m.s-1","parameterCategory":1,"la1":30.6,"la2":29.2853,"lo1":-89.7004,"lo2":-87.6739,"dy":0.0162,"dx":0.0183,"nx":112,"ny":82,"refTime":"2024-04-03T18:00:00:Z","depth":0,"parameterNumber":3,"parameterNumberName":"V-component_of_WINDS"},"data":[0.0,0.0,0.0,0.0,0.0,0.0,0.0,0.0,0.0,0.0,0.0,0.0,0.0,0.0,0.0,0.0,0.0,0.0,0.0,0.0,0.0,0.0,0.0,0.0,0.0,0.0,0.0,0.0,0.0,0.0,0.0,0.0,0.0,0.0,0.0,0.0,0.0,0.0,0.0,0.0,0.0,0.0,0.0,0.0,0.0,0.0,0.0,0.0,0.0,0.0,0.0,0.0,0.0,0.0,0.0,0.0,0.0,0.0,0.0,0.0,0.0,0.0,0.0,0.0,0.0,0.0,0.0,0.0,0.0,0.0,0.0,0.0,0.0,0.0,0.0,0.0,0.0,0.0,0.0,0.0,0.0,0.0,0.0,0.0,0.0,0.0,0.0,0.0,0.0,0.0,2.0256,2.02,2.0203,2.0187,2.0087,2.0051,1.9856,1.9604,0.0,0.0,0.0,0.0,0.0,0.0,0.0,0.0,0.0,0.0,0.0,0.0,0.0,0.0,0.0,0.0,0.0,0.0,0.0,0.0,0.0,0.0,0.0,0.0,0.0,0.0,0.0,0.0,0.0,0.0,0.0,0.0,0.0,0.0,0.0,0.0,0.0,0.0,0.0,0.0,0.0,0.0,0.0,0.0,0.0,0.0,0.0,0.0,0.0,0.0,0.0,0.0,0.0,0.0,0.0,0.0,0.0,0.0,0.0,0.0,0.0,0.0,0.0,0.0,0.0,0.0,0.0,0.0,0.0,0.0,0.0,0.0,0.0,0.0,0.0,0.0,0.0,0.0,0.0,0.0,0.0,0.0,0.0,0.0,0.0,0.0,0.0,0.0,0.0,0.0,0.0,0.0,0.0,0.0,0.0,0.0,0.0,0.0,0.0,0.0,0.0,0.0,0.0,0.0,2.0172,1.9906,1.9893,1.9654,1.9189,1.909,1.8989,1.8626,0.0,0.0,0.0,0.0,0.0,0.0,0.0,0.0,0.0,0.0,0.0,0.0,0.0,0.0,0.0,0.0,0.0,0.0,0.0,0.0,0.0,0.0,0.0,0.0,0.0,0.0,0.0,0.0,0.0,0.0,0.0,0.0,0.0,0.0,0.0,0.0,0.0,0.0,0.0,0.0,0.0,0.0,0.0,0.0,0.0,0.0,0.0,0.0,0.0,0.0,0.0,0.0,0.0,0.0,0.0,0.0,0.0,0.0,0.0,0.0,0.0,0.0,0.0,0.0,0.0,0.0,0.0,0.0,0.0,0.0,0.0,0.0,0.0,0.0,0.0,0.0,0.0,0.0,0.0,0.0,0.0,0.0,0.0,0.0,0.0,0.0,0.0,0.0,0.0,0.0,0.0,0.0,0.0,0.0,0.0,0.0,0.0,0.0,0.0,0.0,0.0,0.0,0.0,1.9672,1.9464,1.9328,1.9181,1.8988,1.8711,1.8624,1.8576,1.8436,1.8826,0.0,0.0,0.0,0.0,0.0,0.0,0.0,0.0,0.0,0.0,0.0,0.0,0.0,0.0,0.0,0.0,0.0,0.0,0.0,0.0,0.0,0.0,0.0,0.0,0.0,0.0,0.0,0.0,0.0,0.0,0.0,0.0,0.0,0.0,0.0,0.0,0.0,0.0,0.0,0.0,0.0,0.0,0.0,0.0,0.0,0.0,0.0,0.0,0.0,0.0,0.0,0.0,0.0,0.0,0.0,0.0,0.0,0.0,0.0,0.0,0.0,0.0,0.0,0.0,0.0,0.0,0.0,0.0,0.0,0.0,0.0,0.0,0.0,0.0,0.0,0.0,0.0,0.0,0.0,0.0,0.0,0.0,0.0,0.0,0.0,0.0,0.0,0.0,0.0,0.0,0.0,0.0,0.0,0.0,0.0,0.0,0.0,0.0,0.0,0.0,0.0,0.0,1.9293,1.9147,1.8718,1.8523,1.8441,1.8626,1.8706,1.8722,1.8617,1.8878,0.0,0.0,0.0,0.0,0.0,0.0,0.0,0.0,0.0,0.0,0.0,0.0,0.0,0.0,0.0,0.0,0.0,0.0,0.0,0.0,0.0,0.0,0.0,0.0,0.0,0.0,0.0,0.0,0.0,0.0,0.0,0.0,0.0,0.0,0.0,0.0,0.0,0.0,0.0,0.0,0.0,0.0,0.0,0.0,0.0,0.0,0.0,0.0,0.0,0.0,0.0,0.0,0.0,0.0,0.0,0.0,0.0,0.0,0.0,0.0,0.0,0.0,0.0,0.0,0.0,0.0,0.0,0.0,0.0,0.0,0.0,0.0,0.0,0.0,0.0,0.0,0.0,0.0,0.0,0.0,0.0,0.0,0.0,0.0,0.0,0.0,0.0,0.0,0.0,0.0,0.0,0.0,0.0,0.0,0.0,0.0,0.0,0.0,0.0,0.0,0.0,0.0,1.9878,1.9903,1.8238,1.8063,1.8345,1.9078,1.9591,1.9679,1.9176,2.0364,0.0,0.0,0.0,0.0,0.0,0.0,0.0,0.0,0.0,0.0,0.0,0.0,0.0,0.0,0.0,0.0,0.0,0.0,0.0,0.0,0.0,0.0,0.0,0.0,0.0,0.0,0.0,0.0,0.0,0.0,0.0,0.0,0.0,0.0,0.0,0.0,0.0,0.0,0.0,0.0,0.0,0.0,0.0,0.0,0.0,0.0,0.0,0.0,0.0,0.0,0.0,0.0,0.0,0.0,0.0,0.0,0.0,0.0,0.0,0.0,0.0,0.0,0.0,0.0,0.0,0.0,0.0,0.0,0.0,0.0,0.0,0.0,0.0,0.0,0.0,0.0,0.0,0.0,0.0,0.0,0.0,0.0,0.0,0.0,0.0,0.0,0.0,0.0,0.0,0.0,0.0,0.0,0.0,0.0,0.0,0.0,0.0,0.0,0.0,0.0,0.0,0.0,2.1091,2.078,0.0,1.9904,1.9948,2.0225,2.0467,2.0158,1.928,0.0,0.0,0.0,0.0,0.0,0.0,0.0,0.0,0.0,0.0,0.0,0.0,0.0,0.0,0.0,0.0,0.0,0.0,0.0,0.0,0.0,0.0,0.0,0.0,0.0,0.0,0.0,0.0,0.0,0.0,0.0,0.0,0.0,0.0,0.0,0.0,0.0,0.0,0.0,0.0,0.0,0.0,0.0,0.0,0.0,0.0,0.0,0.0,0.0,0.0,0.0,0.0,0.0,0.0,0.0,0.0,0.0,0.0,0.0,0.0,0.0,0.0,0.0,0.0,0.0,0.0,0.0,0.0,0.0,0.0,0.0,0.0,0.0,0.0,0.0,0.0,0.0,0.0,0.0,0.0,0.0,0.0,0.0,0.0,0.0,0.0,0.0,0.0,0.0,0.0,0.0,0.0,0.0,0.0,0.0,0.0,0.0,0.0,0.0,0.0,0.0,0.0,2.2024,2.1953,2.1768,0.0,2.1084,2.1078,2.155,2.1809,2.1523,2.0554,0.0,0.0,0.0,0.0,0.0,0.0,0.0,0.0,0.0,0.0,0.0,0.0,0.0,0.0,0.0,0.0,0.0,0.0,0.0,0.0,0.0,0.0,0.0,0.0,0.0,0.0,0.0,0.0,0.0,0.0,0.0,0.0,0.0,0.0,0.0,0.0,0.0,0.0,0.0,0.0,0.0,0.0,0.0,0.0,0.0,0.0,0.0,0.0,0.0,0.0,0.0,0.0,0.0,0.0,0.0,0.0,0.0,0.0,0.0,0.0,0.0,0.0,0.0,0.0,0.0,0.0,0.0,0.0,0.0,0.0,0.0,0.0,0.0,0.0,0.0,0.0,0.0,0.0,0.0,0.0,0.0,0.0,0.0,0.0,0.0,0.0,0.0,0.0,0.0,0.0,0.0,0.0,0.0,0.0,0.0,0.0,0.0,0.0,0.0,0.0,0.0,0.0,2.1586,2.2393,2.2704,2.1647,2.1203,2.155,2.2997,2.3734,2.3899,0.0,0.0,0.0,0.0,0.0,0.0,0.0,0.0,0.0,0.0,0.0,0.0,0.0,0.0,0.0,0.0,0.0,0.0,0.0,0.0,0.0,0.0,0.0,0.0,0.0,0.0,0.0,0.0,0.0,0.0,0.0,0.0,0.0,0.0,0.0,0.0,0.0,0.0,0.0,0.0,0.0,0.0,0.0,0.0,0.0,0.0,0.0,0.0,0.0,0.0,0.0,0.0,0.0,0.0,0.0,0.0,0.0,0.0,0.0,0.0,0.0,0.0,0.0,0.0,0.0,0.0,0.0,0.0,0.0,0.0,0.0,0.0,0.0,0.0,0.0,0.0,0.0,0.0,0.0,0.0,0.0,0.0,0.0,0.0,0.0,0.0,0.0,0.0,0.0,0.0,0.0,0.0,0.0,0.0,0.0,0.0,0.0,0.0,0.0,0.0,0.0,0.0,0.0,2.3753,2.4094,2.4197,2.3872,2.3962,2.4152,2.4317,2.4495,2.4226,2.3352,0.0,0.0,0.0,0.0,0.0,0.0,0.0,0.0,0.0,0.0,0.0,0.0,0.0,0.0,0.0,0.0,0.0,0.0,0.0,0.0,0.0,0.0,0.0,0.0,0.0,0.0,0.0,0.0,0.0,0.0,0.0,0.0,0.0,0.0,0.0,0.0,0.0,0.0,0.0,0.0,0.0,0.0,0.0,0.0,0.0,0.0,0.0,0.0,0.0,0.0,0.0,0.0,0.0,0.0,0.0,0.0,0.0,0.0,0.0,0.0,0.0,0.0,0.0,0.0,0.0,0.0,0.0,0.0,0.0,0.0,0.0,0.0,0.0,0.0,0.0,0.0,0.0,0.0,0.0,0.0,0.0,0.0,0.0,0.0,0.0,0.0,0.0,0.0,0.0,0.0,0.0,0.0,0.0,0.0,0.0,0.0,0.0,0.0,0.0,0.0,0.0,0.0,2.4725,2.4776,2.4904,2.5216,2.5378,2.5271,2.5032,2.5274,2.5077,2.4313,0.0,0.0,0.0,0.0,0.0,0.0,0.0,0.0,0.0,0.0,0.0,0.0,0.0,0.0,0.0,0.0,0.0,0.0,0.0,0.0,0.0,0.0,0.0,0.0,0.0,0.0,0.0,0.0,0.0,0.0,0.0,0.0,0.0,0.0,0.0,0.0,0.0,0.0,0.0,0.0,0.0,0.0,0.0,0.0,0.0,0.0,0.0,0.0,0.0,0.0,0.0,0.0,0.0,0.0,0.0,0.0,0.0,0.0,0.0,0.0,0.0,0.0,0.0,0.0,0.0,0.0,0.0,0.0,0.0,0.0,0.0,0.0,0.0,0.0,0.0,0.0,0.0,0.0,0.0,0.0,0.0,0.0,0.0,0.0,0.0,0.0,0.0,0.0,0.0,0.0,0.0,0.0,0.0,0.0,0.0,0.0,0.0,0.0,0.0,0.0,0.0,0.0,2.4776,2.4849,2.5161,2.5929,2.5727,2.5525,2.5522,2.6022,2.6131,2.5879,0.0,0.0,0.0,0.0,0.0,0.0,0.0,0.0,0.0,0.0,0.0,0.0,0.0,0.0,0.0,0.0,0.0,0.0,0.0,0.0,0.0,0.0,0.0,0.0,0.0,0.0,0.0,0.0,0.0,0.0,0.0,0.0,0.0,0.0,0.0,0.0,0.0,0.0,0.0,0.0,0.0,0.0,0.0,0.0,0.0,0.0,0.0,0.0,0.0,0.0,0.0,0.0,0.0,0.0,0.0,0.0,0.0,0.0,0.0,0.0,2.8388,0.0,0.0,0.0,0.0,0.0,0.0,0.0,0.0,0.0,0.0,0.0,0.0,0.0,0.0,0.0,0.0,0.0,0.0,0.0,0.0,0.0,0.0,0.0,0.0,0.0,0.0,0.0,0.0,0.0,0.0,0.0,0.0,0.0,0.0,0.0,0.0,0.0,0.0,0.0,0.0,0.0,2.4776,2.5378,2.5819,2.6002,2.6188,2.6402,2.6473,2.6267,2.6357,2.6843,2.6746,0.0,0.0,0.0,0.0,0.0,0.0,0.0,0.0,0.0,0.0,0.0,0.0,0.0,0.0,0.0,0.0,0.0,0.0,0.0,0.0,0.0,0.0,0.0,0.0,0.0,0.0,0.0,0.0,0.0,0.0,0.0,0.0,0.0,0.0,0.0,0.0,0.0,0.0,0.0,0.0,0.0,0.0,0.0,0.0,0.0,0.0,0.0,0.0,0.0,0.0,0.0,0.0,0.0,0.0,0.0,0.0,0.0,0.0,0.0,0.0,2.8553,0.0,0.0,0.0,0.0,0.0,0.0,0.0,0.0,0.0,0.0,0.0,0.0,0.0,0.0,0.0,0.0,0.0,0.0,0.0,0.0,0.0,0.0,0.0,0.0,0.0,0.0,0.0,0.0,0.0,0.0,0.0,0.0,0.0,0.0,0.0,0.0,0.0,0.0,0.0,0.0,2.5359,2.5764,2.6094,2.6296,2.6463,2.657,2.6411,2.6641,2.6775,2.6606,2.6939,0.0,0.0,0.0,0.0,0.0,0.0,0.0,0.0,0.0,0.0,0.0,0.0,0.0,0.0,0.0,0.0,0.0,0.0,0.0,0.0,0.0,0.0,0.0,0.0,0.0,0.0,0.0,0.0,0.0,0.0,0.0,0.0,0.0,0.0,0.0,0.0,0.0,0.0,0.0,0.0,0.0,0.0,0.0,0.0,0.0,0.0,0.0,0.0,0.0,0.0,0.0,0.0,0.0,2.8797,2.8797,2.8797,2.8797,2.8797,2.8797,2.8797,2.8856,2.8975,2.8975,0.0,0.0,0.0,0.0,0.0,0.0,0.0,0.0,0.0,0.0,0.0,0.0,0.0,0.0,0.0,0.0,0.0,0.0,0.0,0.0,0.0,0.0,0.0,0.0,2.6427,2.6427,2.6427,0.0,0.0,0.0,0.0,0.0,0.0,0.0,0.0,0.0,0.0,0.0,2.577,2.5916,2.6152,2.6536,2.6573,2.6553,2.6417,2.7151,2.724,2.642,2.7301,2.7598,0.0,0.0,0.0,0.0,0.0,0.0,0.0,0.0,0.0,0.0,0.0,0.0,0.0,0.0,0.0,0.0,0.0,0.0,0.0,0.0,0.0,0.0,0.0,0.0,0.0,0.0,0.0,0.0,0.0,0.0,0.0,0.0,2.8397,2.808,0.0,0.0,0.0,0.0,0.0,0.0,0.0,0.0,0.0,0.0,0.0,0.0,0.0,2.8874,2.8576,2.8576,2.8397,2.814,2.814,2.814,2.814,2.814,2.814,2.814,2.814,0.0,2.8975,2.8975,0.0,0.0,0.0,0.0,0.0,0.0,0.0,0.0,0.0,0.0,0.0,0.0,0.0,0.0,0.0,0.0,0.0,0.0,0.0,0.0,0.0,0.0,2.6136,2.5844,2.5806,2.5806,0.0,2.6245,2.6591,2.6591,2.6591,0.0,0.0,0.0,0.0,0.0,0.0,0.0,2.5201,2.5504,2.5954,2.6554,2.6609,2.6971,2.7936,2.7746,2.7754,2.8101,2.7945,2.7572,2.708,2.7109,0.0,0.0,0.0,0.0,0.0,0.0,0.0,0.0,0.0,0.0,0.0,0.0,0.0,0.0,0.0,0.0,0.0,0.0,0.0,0.0,0.0,0.0,0.0,0.0,0.0,0.0,0.0,0.0,0.0,2.8319,2.8498,2.7822,2.802,2.814,0.0,0.0,0.0,0.0,0.0,0.0,0.0,0.0,0.0,2.8439,2.8439,2.8379,2.8199,2.8199,2.814,2.802,2.802,2.8199,2.8558,2.8558,2.8737,2.9094,2.9094,2.9213,2.945,2.8934,2.9035,2.9509,0.0,0.0,0.0,0.0,2.9848,2.9716,2.9757,2.941,0.0,2.8619,0.0,0.0,0.0,0.0,0.0,0.0,0.0,0.0,0.0,0.0,2.5844,2.5734,2.5679,2.5679,2.5679,2.5916,2.6081,0.0,2.6081,2.5955,2.5559,0.0,0.0,0.0,0.0,2.5308,2.5413,2.5572,2.5789,2.6063,2.6118,2.6445,2.726,2.7412,2.7574,2.7761,2.803,2.7934,2.7272,2.7182,2.706,0.0,0.0,0.0,0.0,0.0,0.0,0.0,0.0,0.0,0.0,0.0,0.0,0.0,0.0,0.0,0.0,0.0,0.0,0.0,0.0,0.0,0.0,0.0,0.0,0.0,0.0,0.0,0.0,2.8558,2.8677,2.7882,2.8062,2.8199,0.0,0.0,0.0,0.0,0.0,0.0,2.8755,2.8815,2.8732,2.8402,2.8402,2.8335,2.82,2.82,2.8139,2.8078,2.8078,2.8382,2.9046,2.9046,2.9333,2.9777,2.9658,2.9543,2.9509,2.9053,2.9213,2.9745,2.9627,2.9804,3.0039,3.0333,3.0392,3.0392,3.0373,3.0019,2.9512,2.9199,2.835,2.7368,2.7368,0.0,0.0,0.0,0.0,2.6336,2.6263,2.5898,2.5569,2.5476,2.5476,2.5476,2.5476,2.5476,2.5514,0.0,2.5679,2.559,2.5306,0.0,0.0,0.0,0.0,2.5197,2.5423,2.5476,2.5531,2.5679,2.5679,2.5953,2.6554,2.7098,2.7343,2.7232,2.8022,2.8137,2.7475,2.7311,2.7182,2.7061,0.0,0.0,0.0,0.0,0.0,0.0,0.0,0.0,0.0,0.0,0.0,0.0,0.0,0.0,0.0,0.0,0.0,0.0,0.0,0.0,0.0,0.0,0.0,0.0,0.0,0.0,0.0,0.0,0.0,2.848,2.8737,0.0,0.0,0.0,0.0,2.848,2.8797,2.9094,2.9372,2.9686,2.9677,2.9446,2.9404,2.9177,2.8654,2.8654,2.8529,2.8197,2.8197,2.8557,2.9164,2.9164,2.9339,2.9604,2.8997,2.866,2.8659,2.9509,3.0039,3.0333,2.9981,3.0098,3.0392,3.0392,3.0392,3.045,3.0743,3.0293,2.9626,2.9551,2.8581,2.7368,2.7368,2.6826,0.0,0.0,2.5953,2.5679,2.5331,2.5221,2.5183,2.4923,2.4868,2.4868,2.4868,2.4868,2.5034,0.0,2.5679,2.5679,2.5661,0.0,2.5533,2.5258,2.5186,2.511,2.4868,2.4868,2.5034,2.5624,2.5679,2.5953,2.6554,2.7098,2.7422,2.7403,2.7994,2.8119,2.7708,2.7669,2.7412,2.6814,2.6527,0.0,0.0,0.0,0.0,0.0,0.0,0.0,0.0,0.0,0.0,0.0,0.0,0.0,0.0,0.0,0.0,0.0,0.0,0.0,0.0,0.0,0.0,0.0,0.0,0.0,0.0,0.0,0.0,2.8916,2.8916,0.0,2.9213,2.814,2.808,2.9608,2.9315,2.9282,2.9822,3.0204,3.0307,3.0009,2.9578,2.9217,2.9047,2.8563,2.8329,2.8186,2.8186,2.8563,2.9172,2.9172,2.9413,2.9886,2.9428,2.9428,2.9804,2.9858,2.9863,2.9726,2.9194,2.9686,3.0645,3.0216,3.0333,3.0723,3.0489,3.0234,2.9865,2.9199,2.8687,2.8181,2.7791,2.7437,2.7175,2.7175,2.6819,2.6367,2.6254,2.5913,2.5646,2.5532,2.5475,2.5475,2.5475,2.5475,2.5589,2.576,2.5419,2.5145,2.5145,2.5145,2.509,2.4979,2.4923,2.4923,2.4812,2.5145,2.5459,2.5679,2.6063,2.65,2.7043,2.7314,2.7584,2.796,2.8194,2.8223,2.8066,2.7865,2.7623,2.7361,2.671,2.628,0.0,0.0,0.0,0.0,0.0,0.0,0.0,0.0,0.0,0.0,0.0,0.0,0.0,0.0,0.0,0.0,0.0,0.0,0.0,0.0,0.0,0.0,0.0,0.0,0.0,0.0,2.9686,2.9035,2.9044,2.9117,2.9297,2.846,2.8653,3.0398,2.986,2.9745,3.0433,3.0696,3.0736,3.0431,3.0182,3.0049,2.9924,2.9499,2.9136,2.8882,2.9136,2.9517,2.9879,3.0149,3.0497,3.099,3.0506,3.0368,3.0528,3.0005,2.968,2.9549,2.9372,2.9981,3.084,3.0411,3.0528,3.082,3.0141,2.9929,2.9737,2.8691,2.8201,2.7974,2.7594,2.7422,2.7365,2.748,2.7251,2.7022,2.7022,2.6734,2.6388,2.629,2.6232,2.6232,2.6232,2.6232,2.6232,2.6232,2.5646,2.515,2.515,2.515,2.515,2.515,2.515,2.515,2.515,2.5527,2.5751,2.5751,2.6348,2.6792,2.6994,2.7358,2.7736,2.7979,2.8194,2.8301,2.8301,2.8027,2.7865,2.7728,2.6973,2.6523,2.6387,0.0,0.0,0.0,0.0,0.0,0.0,0.0,0.0,0.0,0.0,0.0,0.0,0.0,0.0,0.0,0.0,0.0,0.0,0.0,0.0,0.0,0.0,0.0,3.0898,2.9272,2.8319,2.8934,2.9101,2.8911,2.8254,2.9083,3.0,3.068,3.0433,3.0513,3.111,3.121,3.109,3.0809,3.1477,3.1727,3.1479,3.146,3.1073,3.0378,3.1055,3.1377,3.1442,3.2083,3.2511,3.2688,3.2028,3.1323,3.0524,2.9883,2.9702,2.9941,3.0587,3.082,3.084,3.082,3.082,3.0704,2.9718,2.9335,2.9201,2.814,2.7383,2.6942,2.6942,2.6694,2.6597,2.6902,2.7229,2.7459,2.7459,2.7459,2.7344,2.7018,2.696,2.696,2.696,2.696,2.696,2.696,2.6441,2.596,2.5943,2.5943,2.5943,2.5943,2.5943,0.0,2.5943,2.5943,2.5943,2.5943,2.6521,2.6765,2.6317,2.7401,2.7895,2.7479,2.7999,2.8301,2.8301,2.8301,2.8086,2.7728,2.7246,2.6836,2.6406,0.0,0.0,0.0,0.0,0.0,0.0,0.0,0.0,0.0,0.0,0.0,0.0,0.0,0.0,0.0,0.0,0.0,0.0,0.0,0.0,0.0,0.0,3.0157,3.0157,3.0117,2.9917,2.942,2.987,3.0176,3.0272,2.9723,3.0043,3.1661,3.1364,3.1619,3.2691,3.3398,3.3656,3.3578,3.3337,3.3133,3.3049,3.2273,3.1734,3.1538,3.1441,3.1377,3.1377,3.157,3.1707,3.1769,3.128,3.0895,3.0655,3.0167,2.999,2.986,2.9085,2.9331,3.0039,2.9153,2.939,3.0216,3.0393,3.0471,3.0393,3.0103,2.993,2.9755,2.9755,2.9406,2.8938,2.9056,2.8645,2.8215,2.8215,2.8056,2.7819,2.77,2.77,2.77,2.77,2.77,2.77,2.77,2.7522,2.7228,2.6725,2.6637,2.6637,2.6637,2.6637,0.0,2.6637,2.7022,2.7194,2.6924,2.748,2.7785,2.7675,2.8164,2.8368,2.8189,2.8532,2.8613,2.8301,2.8301,2.8086,2.7728,2.7539,2.7266,0.0,0.0,0.0,0.0,0.0,0.0,0.0,0.0,0.0,0.0,0.0,0.0,0.0,0.0,0.0,0.0,0.0,0.0,0.0,0.0,0.0,0.0,3.0587,3.0292,3.0227,3.0306,3.0338,3.0251,3.0395,3.0674,3.1208,3.0827,3.1183,3.2719,3.2603,3.2738,3.3515,3.3977,3.4313,3.4313,3.4181,3.4115,3.4115,3.3472,3.2936,3.2441,3.2523,3.2252,3.1827,3.2083,3.2211,3.2192,3.1966,3.1759,3.1552,3.1328,3.1092,0.0,0.0,0.0,0.0,0.0,2.9686,3.0352,3.047,3.047,3.0411,3.0039,2.9863,2.9863,2.9745,2.9527,2.9331,2.945,2.9213,2.8897,2.8897,2.8778,2.8618,2.8439,2.8439,2.8439,2.8439,2.8558,2.8618,2.8439,2.8618,0.0,2.7885,2.7638,2.758,2.758,2.758,2.758,2.758,2.7755,2.7813,2.7638,2.8162,2.8436,2.827,2.8747,0.0,0.0,0.0,2.9004,2.8574,2.8379,0.0,0.0,0.0,2.7715,2.7285,0.0,0.0,0.0,2.6152,2.6182,0.0,0.0,0.0,0.0,0.0,0.0,0.0,0.0,0.0,0.0,0.0,0.0,0.0,0.0,0.0,0.0,3.0937,3.0937,3.0806,3.0298,3.0265,3.1068,3.084,3.0929,3.1626,3.2292,3.2927,3.3766,3.3757,3.3795,3.3861,0.0,0.0,0.0,0.0,3.4844,3.4844,3.4805,3.4243,3.3318,3.3843,3.3527,3.2549,3.3102,3.3418,3.3418,3.3418,3.314,3.2727,3.275,3.2446,3.184,3.0761,3.0333,3.0392,3.0704,3.082,3.0762,3.0216,0.0,0.0,2.9016,2.8778,2.8719,2.8439,2.8498,2.8815,2.9112,2.939,2.9627,2.9627,2.9568,2.945,2.9153,2.9035,2.9035,2.9035,2.9272,2.939,2.9094,2.945,2.9627,2.9094,2.8797,2.8659,2.86,2.8659,2.8659,2.8659,2.8379,2.8199,2.814,0.0,0.0,2.8462,2.9257,2.9661,2.9218,2.9441,2.9375,2.8945,2.8555,2.834,2.8301,2.8301,2.8105,2.7787,2.7787,2.7539,2.7148,2.707,2.7114,0.0,0.0,0.0,0.0,0.0,0.0,0.0,0.0,0.0,0.0,0.0,0.0,0.0,0.0,0.0,3.0898,3.1172,3.1483,3.1852,3.208,3.1837,3.0976,3.2024,3.2778,3.2811,3.3162,3.3775,3.4425,3.4289,3.4432,3.5054,3.5384,3.5559,3.5559,3.5694,3.5762,3.5762,3.543,3.4973,3.4374,0.0,0.0,3.3228,3.3355,3.3418,3.3418,3.3418,3.3063,3.246,3.245,3.2131,3.167,3.0462,3.002,3.0001,3.0098,3.0274,3.0567,3.0918,3.0879,3.0704,3.047,3.047,3.0411,3.0352,3.0352,0.0,3.0528,3.0392,3.0216,3.0216,3.0039,2.9745,2.945,2.939,2.939,2.939,2.9213,2.9153,2.939,2.9272,2.9153,2.9035,2.9331,2.9568,2.9331,2.9509,2.9627,2.9627,2.9568,2.945,2.9194,2.9253,2.9275,2.9201,2.9613,2.9813,2.9661,2.9597,2.9375,2.8945,2.8848,2.8633,2.8301,2.8301,2.8262,2.8164,2.8164,2.8125,2.8027,2.7344,2.7012,0.0,0.0,0.0,0.0,0.0,0.0,0.0,0.0,0.0,0.0,0.0,3.0898,3.0898,0.0,3.0957,3.1172,3.1387,3.1738,3.2383,3.2656,3.2622,3.2144,3.2587,3.3199,3.3835,3.3795,3.4184,3.5285,3.523,3.5278,3.5703,3.5898,3.6016,3.6016,3.6016,3.6016,3.6016,3.5801,3.5371,3.4707,3.4492,3.4043,3.3418,3.3418,3.3418,3.3418,3.3418,3.3228,3.2892,3.2844,3.2676,3.2422,3.1397,3.1011,3.0956,3.0879,3.0976,3.115,3.1441,3.1441,3.1286,3.0995,3.0937,3.082,3.0528,3.0411,3.0352,3.0235,3.0098,2.9922,2.9745,2.9568,2.939,2.9272,2.9272,2.9272,2.9272,2.9272,2.9272,2.9272,2.9331,2.9331,2.9035,2.9509,2.9804,2.9568,2.9745,2.9922,2.9922,2.9922,2.9863,2.9667,2.9667,2.9667,2.9667,2.9981,3.0198,3.0335,3.008,2.9785,2.957,2.9355,2.9043,2.8613,2.8613,2.8496,2.8301,2.8301,2.8301,2.8281,2.7851,2.7656,0.0,0.0,0.0,0.0,0.0,0.0,0.0,0.0,3.0898,3.0898,3.0898,3.0898,3.0898,3.0957,3.1133,3.1465,3.166,3.2012,3.2695,3.2871,3.3066,3.3496,3.3154,3.3443,3.4719,3.448,3.4746,3.5928,3.6016,3.6016,3.6016,3.6016,3.6016,3.6016,3.6016,3.6016,3.6016,3.6016,3.5586,3.4707,3.4707,3.4258,3.3418,3.3418,3.3418,3.3418,3.3418,3.3418,3.3398,3.3358,3.3344,3.3243,3.2564,3.2293,3.2237,3.1934,3.187,3.1908,3.1865,3.1845,3.173,3.1208,3.1034,3.0781,3.0274,2.9981,2.9863,2.9627,2.9509,2.945,2.9153,2.9035,2.8975,2.8975,2.8975,2.9035,2.9094,2.9272,2.9331,2.9153,2.945,2.9568,2.9094,2.939,2.9686,2.9509,2.9804,2.9981,2.9981,3.0039,3.0098,3.0098,3.0098,3.0098,3.0098,3.0333,3.0645,3.0898,3.0547,3.0293,3.0195,2.9863,2.9492,2.9062,2.9043,2.8887,2.8535,2.8535,2.8496,2.8418,2.8418,2.8379,3.0762,3.0898,3.0898,3.0898,3.0898,3.0898,0.0,0.0,3.0898,3.0898,3.0898,3.0898,3.0898,3.1191,3.1465,3.1504,3.2148,3.2676,3.2793,3.3105,3.3516,3.3945,3.431,3.4673,3.5273,3.5568,3.5821,3.6016,3.6016,3.6016,3.6016,3.6016,3.6016,3.6016,3.6016,3.6016,3.6016,3.6016,3.5586,3.4707,3.4707,3.4258,3.3418,3.3418,3.3418,3.3418,3.3418,3.3418,3.3418,3.3379,3.3422,3.3364,3.3201,3.3188,3.3049,3.2276,3.2135,3.2311,3.2275,3.2076,3.1787,3.173,3.1325,3.0918,3.0781,3.0392,2.9863,2.9863,2.9608,2.9431,2.9372,2.9213,2.8975,2.8975,2.8975,2.9094,2.939,2.9213,2.9153,2.939,2.9272,2.9094,2.8975,2.9035,2.9213,2.945,2.9981,3.0333,3.0333,3.0587,3.0782,3.0782,3.0782,3.0782,3.0782,3.082,3.084,3.0898,3.084,3.0625,3.0215,3.0156,2.9922,2.9512,2.9492,2.9473,2.9434,2.9434,2.9238,2.8848,2.8848,2.8652,3.0704,3.0645,0.0,0.0,3.0587,3.0411,3.082,3.0898,3.0898,3.0898,3.0898,3.0898,3.0898,3.123,3.1601,0.0,3.2402,3.2871,3.3125,3.332,3.3672,3.4355,3.459,3.4883,3.5351,3.5578,3.5811,3.6016,3.6016,3.6016,3.6016,3.6016,3.6016,3.6016,3.6016,3.6016,3.6016,3.6016,3.5586,3.4707,3.4707,3.4258,3.3418,3.3418,3.3418,3.3418,3.3418,3.3418,3.3418,3.3418,3.3418,3.3398,3.3348,3.3352,3.3296,3.2794,3.2673,3.2705,3.2639,3.253,3.2326,3.2133,3.1903,3.1614,3.1092,3.0684,3.0392,2.9804,2.9568,2.9372,2.8975,2.8797,2.8696,2.8439,2.8439,2.8439,2.8618,2.8498,2.8498,2.8856,2.8815,2.8755,2.8993,2.8975,2.9035,2.9213,2.9568,2.9922,3.0098,3.0392,3.0704,3.0898,3.0898,3.0898,3.0898,3.0898,3.0898,3.0898,3.0898,3.0801,3.0605,3.0605,3.0391,2.9941,2.9941,2.9805,2.9626,2.9626,2.9473,2.9297,2.9297,2.9199,3.0762,0.0,0.0,3.0762,3.0528,3.0294,3.0782,3.0898,3.0898,3.0898,3.0898,3.0898,3.0898,3.1328,3.1797,3.2109,3.2617,3.3066,3.3379,3.3418,3.373,3.459,3.4707,3.4922,3.5508,3.5636,3.5743,3.5947,3.6016,3.6016,3.6016,3.6016,3.6016,3.6016,3.6016,3.6016,3.6016,3.5898,3.5449,3.4707,3.459,3.4141,3.3418,3.3418,3.3418,3.3418,3.3418,3.3418,3.3418,3.3418,3.3418,3.3418,3.3418,3.3418,3.3403,3.3208,3.3115,3.2967,3.2883,3.281,3.2669,3.2477,3.2305,3.2018,3.1363,3.1014,3.0723,2.9863,2.9568,2.9331,2.8576,2.8277,2.814,2.79,2.784,2.79,2.796,2.802,2.808,2.8337,2.8337,2.8457,2.8677,2.8737,2.8737,2.8874,2.9035,2.9331,2.9745,3.0157,3.0509,3.0762,3.082,3.0898,3.0898,3.0898,3.0898,3.0898,3.0898,3.0898,3.0898,3.0898,3.0742,3.0391,3.0391,3.0234,2.9941,2.9941,2.9863,2.9746,2.9746,2.9744,3.0937,0.0,3.0879,3.0898,3.0898,3.0879,3.0898,3.0898,3.0898,3.0898,3.0898,3.0898,3.0898,3.1582,3.2148,3.2229,3.2871,3.3398,3.3418,3.3418,3.373,3.459,3.4707,3.5039,0.0,3.6016,3.6016,3.6016,3.6016,3.6016,3.6016,3.6016,3.6016,3.6016,3.6016,3.6016,3.6016,3.5605,3.5176,3.4687,3.4297,3.3867,3.3418,3.3418,3.3418,3.3418,3.3418,3.3418,3.3418,3.3418,3.3418,3.3418,3.3418,3.3418,3.3418,3.3398,3.3265,3.3095,3.2946,3.281,3.2669,3.2669,3.2268,3.1787,3.1787,3.1305,3.0645,3.0039,2.9667,2.9194,2.8259,2.7762,2.7521,2.7521,2.7521,2.7581,2.796,2.802,2.802,2.802,2.802,2.802,2.802,2.802,2.814,2.8457,2.8517,2.8755,2.945,3.0039,3.0392,3.0392,3.0704,3.0898,3.0898,3.0898,3.0898,3.0898,3.0898,3.0898,3.0898,3.0898,3.0879,3.0859,3.0859,3.0859,3.0859,3.0859,3.0625,3.0176,3.0176,2.9961,3.0762,0.0,2.9823,3.0704,3.0587,3.0352,3.0762,3.0898,3.0898,3.0898,3.0898,3.0898,3.0898,3.1601,3.2229,3.2229,3.2871,3.3418,3.3418,3.3418,3.373,3.459,3.4707,0.0,0.0,0.0,0.0,3.6016,3.6016,3.6016,3.6016,3.6016,3.6016,3.6016,3.6016,3.6016,3.6016,3.5605,3.5156,3.4687,3.3984,3.3555,3.3418,3.3418,3.3418,3.3418,3.3418,3.3418,3.3418,3.3418,3.3418,3.3418,3.3418,3.3418,3.3418,3.3418,3.3316,3.3234,3.3095,3.2946,3.283,3.2715,3.2555,3.2326,3.1903,3.1672,3.1305,3.0665,2.9962,2.9313,2.8797,2.8439,2.8002,2.7358,2.7539,2.7779,2.7478,2.7435,2.7478,2.7642,2.7642,2.7762,2.796,2.802,2.802,2.814,2.8737,2.9213,2.945,2.9863,3.0157,3.0392,3.0509,3.0645,3.0898,3.0898,3.0898,3.0898,3.0898,3.0898,3.0898,3.0898,3.0898,3.0898,3.0898,3.0898,3.0898,3.0898,3.082,3.0664,3.0664,3.0586,3.0411,2.9823,2.929,3.0587,3.0411,3.0098,3.0762,3.0898,3.0898,3.0898,3.0898,3.0898,3.0898,3.1601,3.2229,3.2229,3.2871,3.3418,3.3418,3.3418,3.373,3.459,3.4707,3.5039,0.0,0.0,0.0,3.6016,3.6016,3.6016,3.6016,3.6016,3.6016,3.6016,3.6016,3.6016,3.6016,3.543,3.4844,3.4238,3.3691,3.3418,3.3418,3.3418,3.3418,3.3418,3.3418,3.3418,3.3418,3.3418,3.3418,3.3418,3.3418,3.3418,3.3418,3.3418,3.3368,3.3322,3.3193,3.3074,3.286,3.2827,3.2736,3.2612,3.2268,3.2133,3.196,3.1363,3.0723,3.0138,2.9509,2.9153,2.8778,2.796,2.79,2.79,2.7478,2.7254,2.7133,2.7297,2.7358,2.7418,2.7659,2.7779,2.7822,2.7822,2.8677,2.9213,2.8975,2.9331,2.9745,3.0157,3.0333,3.0567,3.0995,3.0957,3.0898,3.0898,3.0898,3.0898,3.0898,3.0898,3.0898,3.0898,3.0898,3.0898,3.0898,3.0898,3.0898,3.0898,3.0898,3.0898,3.0039,2.945,2.9331,3.0528,3.0411,3.0098,3.0762,3.0898,3.0898,3.0898,3.0898,3.0898,0.0,0.0,3.2148,3.2229,3.2851,3.3398,3.3418,3.3418,3.373,0.0,0.0,0.0,0.0,0.0,0.0,3.6016,0.0,3.6016,3.6016,3.6016,3.6016,3.6016,3.6016,3.6016,3.6016,3.5137,3.4277,3.3418,3.3418,3.3418,3.3418,3.3418,3.3418,3.3418,3.3418,3.3418,3.3418,3.3418,3.3418,3.3418,3.3418,3.3418,3.3418,3.3418,3.3418,3.3359,3.3342,3.3095,3.2883,3.2921,3.2789,3.2669,3.2669,3.2669,3.2555,3.2018,3.1787,3.1441,3.0274,2.9922,2.9745,2.9094,2.8498,2.808,2.796,2.7539,2.7133,2.7133,2.7073,2.7073,2.7073,2.7297,2.7521,2.7521,2.8319,2.8737,2.814,2.8618,2.9213,2.9863,3.0157,3.0626,3.1208,3.1054,3.0898,3.0898,3.0898,3.0898,3.0898,3.0898,3.0898,3.0898,3.0898,3.0898,3.0898,3.0898,3.0898,3.0898,3.0898,3.0898,2.9272,2.945,2.9745,3.0039,3.0411,3.0704,3.084,3.0898,3.0898,3.0898,3.0898,3.0898,0.0,0.0,0.0,3.2109,3.2617,0.0,3.3379,3.3418,0.0,3.459,0.0,3.5039,3.5937,3.6016,0.0,0.0,3.6016,3.6016,3.6016,3.6016,3.6016,3.6016,3.6016,3.6016,3.6016,3.5137,3.4277,3.3418,3.3418,3.3418,3.3418,3.3418,3.3418,3.3418,3.3418,3.3418,3.3418,3.3418,3.3418,3.3418,3.3418,3.3418,3.3418,3.3418,3.3418,3.3418,3.3364,3.3065,3.2695,3.2847,3.2499,3.2076,3.2555,3.2383,3.2076,3.2383,3.1614,3.0723,3.0606,3.0255,2.9627,2.8498,2.8856,2.9035,2.7599,2.7539,2.7659,2.7194,2.7073,2.7073,2.7073,2.7133,2.7358,2.7779,2.808,2.8379,2.8677,2.8856,2.9331,3.0157,2.9903,3.002,3.0937,3.1112,3.1112,3.0898,3.1112,3.1112,3.0898,3.0898,3.0898,3.0898,3.0898,3.0898,3.0898,3.0898,3.0898,3.0898,3.0898,3.0898,2.8797,2.8797,2.9213,2.9745,2.9981,3.0235,3.0782,3.0898,3.0898,3.0898,3.0898,0.0,3.0898,0.0,0.0,0.0,0.0,0.0,3.3359,3.3418,3.373,0.0,3.4707,0.0,3.5937,3.6016,3.6016,0.0,3.6016,3.6016,3.6016,3.6016,3.6016,3.6016,3.6016,3.584,3.5449,3.4941,3.4277,3.3418,3.3418,3.3418,3.3418,3.3418,3.3418,3.3418,0.0,3.3418,3.3418,3.3418,3.3418,3.3418,3.3418,3.3418,3.3418,3.3418,3.3418,3.3418,3.3418,3.3113,3.2729,3.2754,3.2431,3.2087,3.2252,3.2076,3.1903,3.2383,3.1787,3.1034,3.1189,3.0898,3.0274,2.945,2.9568,2.9627,2.8558,2.8379,2.8259,2.7616,2.7254,2.7073,2.7073,2.7073,2.7315,2.79,2.8259,2.8677,2.9331,2.9272,2.9509,3.0333,2.9903,3.0039,3.0995,3.0976,3.0918,3.0898,3.117,3.1208,3.1112,3.1054,3.1054,3.1054,3.0957,3.0898,3.0898,3.0898,3.0898,3.0898,3.0898,3.0898,2.8379,2.808,2.8498,2.9509,2.945,2.945,3.0645,3.0898,3.0898,3.0898,0.0,3.0898,3.0898,3.1191,3.1582,3.2012,0.0,3.2851,3.3281,3.3379,3.373,3.459,3.4707,3.5039,3.5937,3.6016,3.6016,3.6016,3.6016,3.6016,3.6016,3.6016,3.6016,3.6016,3.6016,3.5586,3.4707,3.4707,3.4277,3.3418,3.3418,3.3418,3.3418,3.3418,3.3418,3.3418,3.3418,0.0,3.3418,3.3418,3.3418,3.3418,3.3418,3.3418,3.3418,3.3418,3.3418,3.3418,3.3418,3.3184,3.2874,3.2729,3.2535,3.2333,3.1951,3.181,3.181,3.2153,3.196,3.1672,3.173,3.1498,3.117,3.082,3.0411,2.9981,2.9804,2.939,2.8797,2.814,2.7599,2.7194,2.7133,2.7194,2.7435,2.802,2.8677,2.9331,2.9922,2.9667,2.9726,3.0392,3.0098,3.0274,3.115,3.0801,3.0626,3.0898,3.117,3.1267,3.1267,3.1267,3.1325,3.1325,3.1112,3.0995,3.0995,3.0995,3.0995,3.0995,3.0995,3.0995,2.7779,2.8379,2.9509,2.9213,2.945,2.9922,3.0704,3.0898,0.0,0.0,3.0898,3.0898,3.0898,3.0957,3.1133,3.1562,0.0,0.0,0.0,0.0,3.373,0.0,0.0,0.0,0.0,0.0,0.0,0.0,0.0,3.6016,3.6016,3.6016,3.6016,3.6016,3.6016,3.5586,3.4707,3.4707,3.4277,3.3418,3.3418,3.3418,3.3418,3.3418,3.3418,3.3418,3.3418,0.0,3.3418,3.3418,3.3418,3.3418,3.3418,3.3418,3.3418,3.3418,3.3418,3.3418,3.3418,3.3379,3.3305,3.3184,3.2769,3.2274,3.2274,3.1919,3.1624,3.183,3.1518,3.1112,3.1325,3.117,3.082,3.0235,3.0411,3.0411,2.939,2.9035,2.8797,2.814,2.79,2.7659,2.7194,2.7478,2.808,2.8737,2.9331,2.9981,3.0645,3.0157,3.0039,3.0762,3.0294,3.0157,3.0879,3.1112,3.1034,3.0898,3.117,3.1208,3.0995,3.117,3.1325,3.1325,3.1498,3.1614,3.1614,3.1614,3.1614,3.1614,3.1614,3.1614,2.7779,2.8259,2.9331,2.9035,2.9213,2.9686,3.0645,0.0,0.0,0.0,3.0898,3.0898,3.0898,3.0898,0.0,3.1445,0.0,0.0,0.0,0.0,0.0,0.0,0.0,0.0,0.0,0.0,0.0,0.0,0.0,3.6016,3.6016,3.6016,3.6016,3.6016,3.6016,3.5586,3.4707,3.4707,3.4277,3.3418,3.3418,3.3418,3.3418,3.3418,3.3418,3.3418,3.3418,0.0,3.3418,3.3418,3.3418,3.3418,3.3418,3.3418,3.3418,3.3418,3.3418,3.3418,3.3418,3.3418,3.3379,3.3371,3.2956,3.2483,3.2334,3.1919,3.1524,3.1838,3.1406,3.0937,3.1208,3.1112,3.082,3.0528,3.0645,3.0704,3.0117,2.9705,2.939,2.9035,2.8737,2.8439,2.814,2.8319,2.8737,2.939,2.9686,3.0157,3.082,3.0645,3.0528,3.0898,3.047,3.0333,3.084,3.0879,3.0859,3.0898,3.117,3.1208,3.1112,3.1208,3.1325,3.1325,3.1344,3.1344,3.1344,3.1344,3.1344,3.1344,3.1344,3.1344,2.808,2.8157,2.9035,2.9153,2.9094,2.9331,3.0587,3.0898,0.0,0.0,3.0898,3.0898,3.0898,3.0898,3.0996,0.0,3.1836,0.0,0.0,0.0,0.0,0.0,0.0,0.0,0.0,0.0,0.0,0.0,0.0,0.0,3.6016,3.6016,3.6016,3.6016,3.6016,3.5586,3.4707,3.4773,3.4342,3.3418,3.3481,3.3481,3.3418,3.3418,3.3418,3.3418,3.3418,0.0,0.0,3.3418,3.3418,3.3418,3.3418,3.3418,3.3418,3.3418,3.3418,3.3418,3.3418,3.3418,3.3418,3.3418,3.3203,3.2851,3.2422,3.207,3.1837,3.1978,3.1525,3.1074,3.1308,3.1113,3.0898,3.0898,3.0898,3.0898,3.0898,3.047,3.0039,2.9922,2.9509,2.9153,2.9035,2.9094,2.9331,2.9804,3.0039,3.0294,3.082,3.0898,3.0898,3.0898,3.0645,3.0626,3.0898,3.0645,3.0645,3.0898,3.1112,3.1208,3.1208,3.1267,3.1325,3.1325,3.117,3.1112,3.1112,3.1112,3.1112,3.1112,3.1112,3.1112,2.8498,2.8439,2.9094,2.9686,2.939,2.9331,3.0587,0.0,0.0,3.0898,3.0898,3.0898,3.0898,3.0898,3.0898,3.0937,0.0,3.2187,0.0,0.0,0.0,0.0,0.0,0.0,0.0,0.0,0.0,0.0,0.0,0.0,3.6016,3.6016,3.6016,3.6016,3.6016,3.5586,3.4707,3.5015,3.4581,3.3418,3.3733,3.367,3.3418,3.3418,3.3418,3.3418,3.3418,0.0,0.0,3.3418,3.3418,3.3418,3.3418,3.3418,3.3418,3.3418,3.3418,3.3418,3.3418,3.3418,3.3418,3.3418,3.3398,3.3281,3.2871,3.2715,3.2598,3.2268,3.1857,3.1465,3.1465,3.1172,3.0898,3.0898,3.0898,3.0898,3.0898,3.082,3.0645,3.0039,2.9863,2.9627,2.9094,2.945,2.9863,2.9863,3.0411,3.082,3.0898,3.0898,3.0898,3.0898,3.0879,3.0879,3.0898,3.0879,3.0879,3.0898,3.0937,3.0937,3.0937,3.117,3.1325,3.1325,3.1556,3.173,3.173,3.173,3.173,3.173,3.173,3.173,2.86,2.8737,2.9509,2.939,2.945,2.9686,3.0176,0.0,3.0898,3.0898,3.0898,3.0898,3.0898,3.0898,3.0898,3.0898,0.0,0.0,0.0,0.0,0.0,0.0,0.0,0.0,0.0,0.0,0.0,0.0,0.0,0.0,3.6016,3.6016,3.6016,3.6016,3.6016,3.5653,3.5034,3.5145,3.4774,3.3985,3.411,3.4047,3.3733,3.3922,3.3796,3.3418,3.3607,0.0,0.0,3.3418,3.3418,3.3418,3.3418,3.3418,3.3418,3.3418,3.3418,3.3418,3.3418,3.3418,3.3418,3.3418,3.3418,3.3398,3.3223,3.2988,3.2754,3.2598,3.2246,3.1914,3.1914,3.1582,3.1211,3.0957,3.0898,3.0898,3.0898,3.0898,3.082,3.0528,3.0528,3.0411,3.0176,3.0352,3.0528,3.0528,3.0704,3.0898,3.0898,3.0898,3.0898,3.0898,3.0898,3.0898,3.0898,3.0898,3.0898,3.0898,3.0898,3.0898,3.0898,3.0995,3.1054,3.1054,3.117,3.1286,3.1286,3.1286,3.1286,3.1286,3.1286,3.1286,2.9253,2.9153,2.9627,2.9568,2.9587,2.9745,0.0,0.0,3.0898,3.0898,3.0898,3.0898,3.0898,3.0898,3.0898,0.0,0.0,3.2229,0.0,0.0,0.0,0.0,0.0,0.0,0.0,0.0,0.0,0.0,0.0,0.0,3.6016,3.6016,3.6016,3.6016,3.6016,3.5731,3.5231,3.529,3.5047,3.4435,3.4546,3.436,3.4047,3.4298,3.411,3.3544,3.3796,0.0,0.0,3.3418,3.3418,3.3418,3.3418,3.3418,3.3418,3.3418,3.3418,3.3418,3.3418,3.3418,3.3418,3.3418,3.3418,3.3418,3.3418,3.3223,3.2988,3.2988,3.2676,3.2324,3.2207,3.1934,3.1601,3.1172,3.1074,3.1035,3.0918,3.0898,3.0898,3.0898,3.0898,3.0898,3.0898,3.0898,3.0898,3.0898,3.0898,3.0898,3.0898,3.0898,3.0898,3.0898,3.0898,3.0898,3.0898,3.0898,3.0898,3.0898,3.0898,3.0898,3.0898,3.0898,3.0898,3.0898,3.0898,3.0898,3.0898,3.0898,3.0898,3.0898,3.0898,3.0898,3.0626,2.9686,2.929,3.0587,2.9941,2.9331,0.0,0.0,3.0898,3.0898,3.0898,3.0898,3.0898,3.0898,3.0898,3.0898,0.0,0.0,0.0,0.0,0.0,0.0,0.0,0.0,0.0,0.0,0.0,0.0,0.0,0.0,3.6016,3.6016,3.6016,3.6016,3.6016,3.582,3.5391,3.558,3.5336,3.4576,3.4813,3.4735,3.4423,3.4423,3.4235,0.0,0.0,0.0,0.0,3.3418,3.3418,3.3418,3.3418,3.3418,3.3418,3.3418,3.3418,3.3418,3.3418,3.3418,3.3418,3.3418,3.3418,3.3418,3.3418,3.3418,3.3418,3.3418,3.3105,3.2695,3.2285,3.2229,3.2051,3.1621,3.1504,3.1406,3.0976,3.0898,3.0898,3.0898,3.0898,3.0898,3.0898,3.0898,3.0898,3.0898,3.0898,3.0898,3.0898,3.0898,3.0898,3.0898,3.0898,3.0898,3.0898,3.0898,3.0898,3.0898,3.0898,3.0898,3.0898,3.0898,3.0898,3.0898,3.0898,3.0898,3.0898,3.0898,3.0898,3.0898,3.0898,3.0898,3.0684,3.0333,3.0294,3.0235,3.0235,3.0294,3.0235,0.0,3.0898,3.0898,3.0898,3.0957,3.117,3.115,3.115,3.115,3.18,0.0,0.0,0.0,0.0,0.0,0.0,0.0,0.0,0.0,0.0,0.0,0.0,0.0,3.6016,3.6016,3.6016,3.6016,3.6016,3.5955,3.5724,3.5711,3.5574,3.5278,3.5271,3.5046,3.4735,3.4984,3.4673,0.0,0.0,0.0,0.0,3.3733,3.3733,3.3733,3.3481,3.3418,3.3418,3.3418,3.3418,3.3418,3.3418,3.3418,3.3418,3.3418,3.3418,3.3418,3.3418,3.3418,3.3418,3.3418,3.332,3.3125,3.2695,3.2598,3.25,3.207,3.1953,3.1836,3.1406,3.1328,3.123,3.0937,3.0898,3.0898,3.0898,3.0898,3.0898,3.0898,3.0898,3.0898,3.0898,3.0898,3.0898,3.0898,3.0898,3.0898,3.0898,3.0898,3.0898,3.0898,3.0898,3.0898,3.0898,3.0898,3.0898,3.0898,3.0898,3.0898,3.0898,3.0898,3.0898,3.0898,3.0898,3.0898,3.1092,3.0743,3.047,3.0352,3.0411,3.047,0.0,0.0,3.0898,3.0898,3.0898,3.0995,3.1267,3.1208,3.117,3.1267,0.0,0.0,0.0,0.0,0.0,0.0,0.0,0.0,0.0,0.0,0.0,0.0,0.0,0.0,3.6016,3.6016,3.6016,3.6016,3.6016,3.5966,3.5961,3.579,3.5675,3.5648,3.5478,3.5294,3.5108,3.5294,3.4922,0.0,0.0,0.0,0.0,3.3922,3.3922,3.3859,3.3544,3.3418,3.3418,3.3418,3.3418,3.3418,3.3418,3.3418,3.3418,3.3418,3.3418,3.3418,3.3418,3.3418,3.3418,3.3418,3.3418,3.3359,3.3105,3.3027,3.293,3.25,3.2402,3.2285,3.1855,3.1641,3.1445,3.1172,3.0996,3.0898,3.0898,3.0898,3.0898,3.0898,3.0898,3.0898,3.0898,3.0898,3.0898,3.0898,3.0898,3.0898,3.0898,3.0898,3.0898,3.0898,3.0898,3.0898,3.0898,3.0898,3.0898,3.0898,3.0898,3.0898,3.0898,3.0898,3.0898,3.0898,3.0898,3.0898,0.0,3.0918,3.0098,3.0762,3.0411,3.0098,3.0762,0.0,0.0,3.0898,3.0898,3.0995,3.1267,3.1112,3.0995,3.1325,0.0,0.0,0.0,0.0,0.0,0.0,0.0,0.0,0.0,0.0,0.0,0.0,0.0,0.0,3.6016,3.6016,3.6016,3.6016,3.6016,3.6016,3.6016,3.5798,3.5666,3.5731,3.5476,3.5418,3.5418,3.5418,3.5046,0.0,0.0,0.0,0.0,3.3922,3.3922,3.3922,3.3544,3.3418,3.3418,3.3418,3.3418,3.3418,3.3418,3.3418,3.3418,3.3418,3.3418,3.3418,3.3418,3.3418,3.3418,3.3418,3.3418,3.3418,3.3418,3.3418,3.332,3.293,3.2832,3.2734,3.2305,3.1894,3.1601,3.1562,3.123,3.0937,3.0937,3.0918,3.0898,3.0898,3.0898,3.0898,3.0898,3.0898,3.0898,3.0898,3.0898,3.0898,3.0898,3.0898,3.0898,3.0898,3.0898,3.0898,3.0898,3.0898,3.0898,3.0898,3.0898,3.0898,3.0898,3.0898,3.0898,3.0898,3.0898,3.0898,3.1498,0.0,3.0704,3.084,3.0762,3.0704,0.0,3.0898,0.0,0.0,0.0,0.0,0.0,0.0,0.0,0.0,0.0,0.0,0.0,0.0,0.0,0.0,0.0,0.0,0.0,0.0,0.0,0.0,0.0,3.6016,3.6016,3.6016,3.6016,3.6016,3.6016,3.6016,3.6016,3.5798,3.5666,3.5731,3.5476,3.5418,3.5418,3.5418,3.5046,0.0,0.0,0.0,3.4298,3.4298,3.4298,3.4235,3.3922,3.3607,3.3418,3.3418,3.3418,3.3418,3.3418,3.3418,3.3418,3.3418,3.3418,3.3418,3.3418,3.3418,3.3418,3.3418,3.3418,3.3418,3.3418,3.3418,3.3398,3.3301,3.3281,3.3164,3.2734,3.2578,3.2402,3.207,3.166,3.1367,3.1367,3.1094,3.0898,3.0898,3.0898,3.0898,3.0898,3.0898,3.0898,3.0898,3.0898,3.0898,3.0898,3.0898,3.0898,3.0898,3.0898,3.0898,3.0898,3.0898,3.0898,3.0898,3.0898,3.0898,3.0898,3.0898,3.0898,3.0898,3.0898,3.0898,3.1383,3.1112,3.0898,3.0898,3.0898,3.0898,3.0898,0.0,0.0,0.0,0.0,0.0,0.0,0.0,0.0,0.0,0.0,0.0,0.0,0.0,0.0,0.0,0.0,0.0,0.0,0.0,0.0,0.0,0.0,3.6016,3.6016,3.6016,3.6016,3.6016,3.6016,3.6016,3.6016,3.5798,3.5666,3.5731,3.5476,3.5294,3.517,3.517,3.4797,0.0,0.0,0.0,3.4423,3.4548,3.4548,3.436,3.4047,3.367,3.3418,3.3418,3.3418,3.3418,3.3418,3.3418,3.3418,3.3418,3.3418,3.3418,3.3418,3.3418,3.3418,3.3418,3.3418,3.3418,3.3418,3.3418,3.3418,3.3418,3.3418,3.3359,3.3125,3.293,3.2734,3.25,3.2109,3.1816,3.1816,3.1465,3.1172,3.1172,3.1016,3.0898,3.0898,3.0898,3.0898,3.0898,3.0898,3.0898,3.0898,3.0898,3.0898,3.0898,3.0898,3.0898,3.0898,3.0898,3.0898,3.0898,3.0898,3.0898,3.0898,3.0898,3.0898,3.0898,3.0898,3.0898,3.1325,3.1054,3.0898,3.0898,3.0898,3.0898,3.0898,0.0,0.0,0.0,0.0,0.0,0.0,3.1112,0.0,0.0,0.0,0.0,0.0,0.0,0.0,0.0,0.0,0.0,0.0,0.0,0.0,0.0,0.0,3.6016,3.6016,3.6016,3.6016,3.6016,3.6016,3.6016,3.6016,3.5798,3.5666,3.5731,3.5476,3.5232,3.4984,3.4984,3.461,3.411,0.0,0.0,3.4485,3.4797,3.4673,3.436,3.411,3.3733,3.3418,3.3418,3.3418,3.3418,3.3418,3.3418,3.3418,3.3418,3.3418,3.3418,3.3418,3.3418,3.3418,3.3418,3.3418,3.3418,3.3418,3.3418,3.3418,3.3418,3.3418,3.3418,3.3418,3.3144,3.2891,3.2891,3.2559,3.2266,3.2266,3.1914,3.1621,3.1621,3.125,3.0996,3.0996,3.0937,3.0898,3.0898,3.0898,3.0898,3.0898,3.0898,3.0898,3.0898,3.0898,3.0898,3.0898,3.0898,3.0898,3.0898,3.0898,3.0898,3.0898,3.0898,3.0898,3.0898,3.0898,3.0898,3.1112,3.0957,3.0898,3.0898,3.0898,3.0898,3.0898,0.0,0.0,0.0,0.0,0.0,0.0,3.1267,3.1441,0.0,0.0,0.0,0.0,0.0,0.0,0.0,0.0,0.0,0.0,0.0,0.0,0.0,0.0,3.6016,3.6016,3.6016,3.6016,3.6016,3.6016,3.6016,3.6016,3.5798,3.5666,3.5731,3.5476,3.5356,3.5294,3.5294,3.5108,3.4735,0.0,3.4859,3.4859,3.4859,3.4673,3.4423,3.436,3.3922,3.3418,3.3418,3.3418,3.3418,3.3418,3.3418,3.3418,3.3418,3.3418,3.3418,3.3418,3.3418,3.3418,3.3418,3.3418,3.3418,3.3418,3.3418,3.3418,3.3418,3.3418,3.3418,3.3418,3.3379,3.332,3.332,3.2988,3.2695,3.2695,3.2344,3.207,3.207,3.1699,3.1426,3.1426,3.1113,3.0898,3.0898,3.0898,3.0898,3.0898,3.0898,3.0898,3.0898,3.0898,3.0898,3.0898,3.0898,3.0898,3.0898,3.0898,3.0898,3.0898,3.0898,3.0898,3.0898,3.0898,3.0898,3.1054,3.0898,3.0898,3.0898,3.0898,3.0898,3.0898,0.0,0.0,0.0,0.0,0.0,0.0,0.0,0.0,0.0,0.0,0.0,0.0,0.0,0.0,0.0,0.0,0.0,0.0,0.0,0.0,0.0,0.0,0.0,3.6016,3.6016,3.6016,3.6016,3.6016,3.6016,3.6016,3.5798,3.5666,3.5731,3.5476,3.5294,3.5108,3.5108,3.4922,3.461,0.0,3.4922,3.4922,3.5108,3.4859,3.4423,3.4423,3.3985,3.3418,3.3418,3.3418,3.3418,3.3418,3.3418,3.3418,3.3418,3.3418,3.3418,3.3418,3.3418,3.3418,3.3418,3.3418,3.3418,3.3418,3.3418,3.3418,3.3418,3.3418,3.3418,3.3418,3.3418,3.3418,3.3418,3.3262,3.3125,3.3125,3.2793,3.25,3.25,3.2148,3.1777,3.1543,3.1348,3.1133,3.0918,3.0898,3.0898,3.0898,3.0898,3.0898,3.0898,3.0898,3.0898,3.0898,3.0898,3.0898,3.0898,3.0898,3.0898,3.0898,3.0898,3.0898,3.0898,3.0898,3.0898,3.1054,3.0898,3.0898,3.0898,3.0898,3.0898,3.0898,3.0937,0.0,0.0,0.0,0.0,0.0,0.0,0.0,0.0,0.0,0.0,0.0,0.0,0.0,0.0,0.0,0.0,0.0,0.0,0.0,0.0,0.0,0.0,3.6016,3.6016,3.6016,3.6016,3.6016,3.6016,3.6016,3.5852,3.5721,3.5731,3.5476,3.5294,3.5046,3.5046,3.4859,3.4673,3.4922,3.5046,3.5046,3.5232,3.4922,3.4423,3.4298,3.3922,3.3418,3.3418,3.3418,3.3418,3.3418,3.3418,3.3418,3.3418,3.3418,3.3418,3.3418,3.3418,3.3418,3.3418,3.3418,3.3418,3.3418,3.3418,3.3418,3.3418,3.3418,3.3418,3.3418,3.3418,3.3418,3.3418,3.3418,3.3418,3.3418,3.3144,3.2949,3.2949,3.2578,3.2187,3.1855,3.1719,3.1504,3.1094,3.1035,3.0996,3.0898,3.0898,3.0898,3.0898,3.0898,3.0898,3.0898,3.0898,3.0898,3.0898,3.0898,3.0898,3.0898,3.0898,3.0898,3.0898,3.0898,3.0898,3.0995,3.0898,3.0898,3.0898,3.0898,3.0898,3.0898,3.1112,0.0,3.0937,0.0,0.0,0.0,0.0,0.0,0.0,0.0,0.0,0.0,0.0,0.0,0.0,0.0,0.0,0.0,0.0,0.0,0.0,0.0,0.0,3.6016,3.6016,3.6016,3.6016,3.6016,3.6016,3.6016,3.5902,3.5844,3.5731,3.5476,3.5356,3.5356,3.5356,3.5356,3.5356,3.5356,3.5356,3.5356,3.5046,3.4735,3.436,3.4047,3.3733,3.3418,3.3418,3.3418,3.3418,3.3418,3.3418,3.3418,3.3418,3.3418,3.3418,3.3418,3.3418,3.3418,3.3418,3.3418,3.3418,3.3418,3.3418,3.3418,3.3418,3.3418,3.3418,3.3418,3.3418,3.3418,3.3418,3.3418,3.3418,3.3418,3.3398,3.3379,3.3379,3.3008,3.2734,3.2715,3.2363,3.1953,3.1523,3.1465,3.1309,3.0918,3.0898,3.0898,3.0898,3.0898,3.0898,3.0898,3.0898,3.0898,3.0898,3.0898,3.0898,3.0898,3.0898,3.0898,3.0898,3.0898,3.0898,3.0937,3.0898,3.0898,3.0898,3.0898,3.0898,0.0,3.0995,3.1054,3.117,3.1325,0.0,0.0,0.0,0.0,0.0,0.0,0.0,0.0,0.0,0.0,0.0,0.0,0.0,0.0,0.0,0.0,0.0,0.0,0.0,3.6016,3.6016,3.6016,3.6016,3.6016,3.6016,3.6016,3.5941,3.5891,3.5844,3.5588,3.55,3.5418,3.5418,3.5418,3.5356,3.517,3.5108,3.5046,3.4735,3.436,3.4047,3.3733,3.3481,3.3418,3.3418,3.3418,3.3418,3.3418,3.3418,3.3418,3.3418,3.3418,3.3418,3.3418,3.3418,3.3418,3.3418,3.3418,3.3418,3.3418,3.3418,3.3418,3.3418,3.3418,3.3418,3.3418,3.3418,3.3418,3.3418,3.3418,3.3418,3.3418,3.3418,3.3418,3.3418,3.3281,3.3086,3.2832,3.2656,3.2402,3.1973,3.168,3.1445,3.1289,3.1035,3.0898,3.0898,3.0898,3.0898,3.0898,3.0898,3.0898,3.0898,3.0898,3.0898,3.0898,3.0898,3.0898,3.0898,3.0898,3.0898,3.0937,3.0898,3.0937,3.0995,0.0,0.0,3.1112,3.117,3.1228,3.1267,3.1482,3.1896,3.2631,0.0,0.0,0.0,0.0,0.0,0.0,0.0,0.0,0.0,0.0,0.0,0.0,0.0,0.0,0.0,0.0,0.0,0.0,3.6016,3.6016,3.6016,3.6016,3.6016,3.6016,3.5925,3.5929,3.5924,3.5735,3.5575,3.5438,3.5438,3.5418,3.5356,3.5046,3.4922,3.4859,3.4423,3.4047,3.3733,3.3481,3.3418,3.3418,3.3418,3.3418,3.3418,3.3418,3.3418,3.3418,3.3418,3.3418,3.3418,3.3418,3.3418,3.3418,3.3418,3.3418,3.3418,3.3418,3.3418,3.3418,3.3418,3.3418,3.3418,3.3418,3.3418,3.3418,3.3418,3.3418,3.3418,3.3418,3.3418,3.3418,3.3418,3.3418,3.332,3.3027,3.2988,3.2832,3.2422,3.1973,3.1719,3.1719,3.1465,3.1289,3.1289,3.1172,3.1035,3.0898,3.0898,3.0898,3.0898,3.0898,3.0898,3.0898,3.0898,3.0957,3.1094,3.1094,3.1172,3.0898,3.0898,3.0937,3.1208,0.0,0.0,3.1672,3.1787,3.1672,3.1383,3.1916,3.2651,3.3454,0.0,0.0,0.0,0.0,0.0,0.0,0.0,0.0,0.0,0.0,0.0,0.0,0.0,0.0,0.0,0.0,0.0,0.0,3.6016,3.6016,3.6016,3.6016,3.6016,3.6016,3.6016,3.5936,3.5924,3.5776,3.5638,3.5595,3.5438,3.5418,3.5356,3.5046,3.4922,3.4859,3.4173,3.367,3.3418,3.3418,3.3418,3.3418,3.3418,3.3418,3.3418,3.3418,3.3418,3.3418,3.3418,3.3418,3.3418,3.3418,3.3418,3.3418,3.3418,3.3418,3.3418,3.3418,3.3418,3.3418,3.3418,3.3418,3.3418,3.3418,3.3418,3.3418,3.3418,3.3418,3.3418,3.3418,3.3418,3.3418,3.3418,3.3418,3.3418,3.3418,3.3418,3.3262,3.2851,3.2422,3.2229,3.2229,3.2229,3.2229,3.2229,3.1758,3.1328,3.0918,3.0898,3.0898,3.0898,3.0898,3.0898,3.0898,3.0898,3.1113,3.1523,3.1523,3.1758,3.0898,3.0898,0.0,3.0995,0.0,0.0,0.0,3.1441,0.0,0.0,3.3151,3.372,3.374,0.0,0.0,0.0,0.0,0.0,0.0,0.0,0.0,0.0,0.0,0.0,0.0,0.0,0.0,0.0,0.0,0.0,0.0,3.6016,3.6016,3.6016,3.6016,3.6016,3.6016,3.6016,3.5957,3.5955,3.5858,3.5766,3.5595,3.5438,3.5418,3.5356,3.4797,3.4548,3.4485,3.3796,3.3481,3.3418,3.3418,3.3418,3.3418,3.3418,3.3418,3.3418,3.3418,3.3418,3.3418,3.3418,3.3418,3.3418,3.3418,3.3418,3.3418,3.3418,3.3418,3.3418,3.3418,3.3418,3.3418,3.3418,3.3418,3.3418,3.3418,3.3418,3.3418,3.3418,3.3418,3.3418,3.3418,3.3418,3.3418,3.3418,3.3418,3.3418,3.3418,3.3418,3.3379,3.3242,3.2851,3.2598,3.2598,3.2344,3.2229,3.2229,3.2051,3.1914,3.1797,3.1504,3.1484,3.1777,3.1797,3.1797,3.1797,3.1797,3.1855,3.1973,3.1973,3.2051,3.0898,3.0898,0.0,3.1054,3.117,3.1422,3.1834,0.0,0.0,0.0,0.0,3.4085,0.0,0.0,0.0,0.0,0.0,0.0,0.0,0.0,0.0,0.0,0.0,0.0,0.0,0.0,0.0,0.0,0.0,0.0,0.0,3.6016,3.6016,3.6016,3.6016,3.6016,3.6016,3.6016,3.6016,3.6016,3.5922,3.581,3.5648,3.5517,3.5459,3.5356,3.4673,3.4235,3.3985,3.3544,3.3418,3.3418,3.3418,3.3418,3.3418,3.3418,3.3418,3.3418,3.3418,3.3418,3.3418,3.3418,3.3418,3.3418,3.3418,3.3418,3.3418,3.3418,3.3418,3.3418,3.3418,3.3418,3.3418,3.3418,3.3418,3.3418,3.3418,3.3418,3.3418,3.3418,3.3418,3.3418,3.3418,3.3418,3.3418,3.3418,3.3418,3.3418,3.3418,3.3418,3.3418,3.3418,3.3184,3.3047,3.3047,3.2812,3.2656,3.2656,3.2519,3.25,3.2656,3.209,3.1894,3.2168,3.2229,3.2229,3.2229,3.2229,3.2246,3.2422,3.2422,3.25,3.0898,3.0898,0.0,3.1228,3.1364,0.0,3.2743,3.3003,3.3268,3.4085,0.0,0.0,0.0,0.0,0.0,0.0,0.0,0.0,0.0,0.0,0.0,0.0,0.0,0.0,0.0,0.0,0.0,0.0,0.0,0.0,0.0,3.6016,3.6016,3.6016,3.6016,3.6016,3.6016,3.6016,3.6016,3.6016,3.5961,3.5838,3.5731,3.5608,3.5476,3.5294,3.4673,3.4047,3.3418,3.3418,3.3418,3.3418,3.3418,3.3418,3.3418,3.3418,3.3418,3.3418,3.3418,3.3418,3.3418,3.3418,3.3418,3.3418,3.3418,3.3418,3.3418,3.3418,3.3418,3.3418,3.3418,3.3418,3.3418,3.3418,3.3418,3.3418,3.3418,3.3418,3.3418,3.3418,3.3418,3.3418,3.3418,3.3418,3.3418,3.3418,3.3418,3.3418,3.3418,3.3418,3.3418,3.3418,3.3418,3.3418,3.3418,3.3418,3.3418,3.3418,3.3066,3.3027,3.3398,3.2656,3.2246,3.2285,3.2285,3.2285,3.2285,3.2285,3.248,3.2851,3.2851,3.3066,3.0898,3.1054,0.0,0.0,3.1602,3.2549,3.3587,3.3897,3.4024,0.0,0.0,0.0,0.0,0.0,0.0,0.0,0.0,0.0,0.0,0.0,0.0,0.0,0.0,0.0,0.0,0.0,0.0,0.0,0.0,0.0,3.6016,3.6016,3.6016,3.6016,3.6016,3.6016,3.6016,3.6016,3.6016,0.0,3.6005,3.587,3.5731,3.5608,3.535,3.4984,3.461,3.4173,3.3796,3.3481,3.3418,3.3418,3.3418,3.3418,3.3418,3.3418,3.3418,3.3418,3.3418,3.3418,3.3418,3.3418,3.3418,3.3418,3.3418,3.3418,3.3418,3.3418,3.3418,3.3418,3.3418,3.3418,3.3418,3.3418,3.3418,3.3418,3.3418,3.3418,3.3418,3.3418,3.3418,3.3418,3.3418,3.3418,3.3418,3.3418,3.3418,3.3418,3.3418,3.3418,3.3418,3.3418,3.3418,3.3418,3.3418,3.3418,3.3418,3.3418,3.334,3.332,3.3418,3.293,3.2812,3.3144,3.3144,3.3144,3.3144,3.3144,3.3203,3.3281,3.3281,3.334,3.0898,0.0,0.0,3.1286,0.0,3.2749,3.385,0.0,0.0,0.0,0.0,0.0,0.0,0.0,0.0,0.0,0.0,0.0,0.0,0.0,0.0,0.0,0.0,0.0,0.0,0.0,0.0,0.0,0.0,3.6016,3.6016,3.6016,3.6016,3.6016,3.6016,3.6016,3.6016,3.6016,3.6016,3.6016,3.6016,3.5882,3.5711,3.5575,3.5271,3.4859,3.4735,3.4423,3.411,3.3922,3.3796,3.3607,3.3607,3.3544,3.3418,3.3418,3.3418,3.3418,3.3418,3.3418,3.3418,3.3418,3.3418,3.3418,3.3418,3.3418,3.3418,3.3418,3.3418,3.3418,3.3418,3.3418,3.3418,3.3418,3.3418,3.3418,3.3418,3.3418,3.3418,3.3418,3.3418,3.3418,3.3418,3.3418,3.3418,3.3418,3.3418,3.3418,3.3418,3.3418,3.3418,3.3418,3.3418,3.3418,3.3418,3.3418,3.3418,3.3418,3.3418,3.3418,3.3418,3.3203,3.3203,3.3418,3.3418,3.3418,3.3418,3.3418,3.3418,3.3418,3.3418,3.3418,3.0898,0.0,3.1054,3.173,3.2188,0.0,0.0,0.0,0.0,0.0,0.0,0.0,0.0,0.0,0.0,0.0,0.0,0.0,0.0,0.0,0.0,0.0,0.0,0.0,0.0,0.0,0.0,0.0,0.0,3.5937,3.6016,3.6016,3.6016,3.6016,3.6016,3.6016,3.6016,3.6016,3.6016,3.6016,3.6025,3.589,3.5711,3.5537,3.5252,3.4984,3.4922,3.4735,3.4485,3.4423,3.4235,3.3985,3.3985,3.3796,3.3544,3.3481,3.3481,3.3481,3.3418,3.3418,3.3418,3.3418,3.3418,3.3418,3.3418,3.3418,3.3418,3.3418,3.3418,3.3418,3.3418,3.3418,3.3418,3.3418,3.3418,3.3418,3.3418,3.3418,3.3418,3.3418,3.3418,3.3418,3.3418,3.3418,3.3418,3.3418,3.3418,3.3418,3.3418,3.3418,3.3418,3.3418,3.3418,3.3418,3.3418,3.3418,3.3418,3.3418,3.3418,3.3418,3.3418,3.3418,3.3418,3.3418,3.3418,3.3418,3.3418,3.3418,3.3418,3.3418,3.3418,3.3418,0.0,0.0,3.1112,0.0,0.0,0.0,0.0,0.0,0.0,0.0,0.0,0.0,0.0,0.0,0.0,0.0,0.0,0.0,0.0,0.0,0.0,0.0,0.0,0.0,0.0,0.0,0.0,0.0,3.5215,3.5644,3.5996,3.6016,3.6016,3.6016,3.6016,3.6016,3.6016,3.6016,3.6016,3.6016,3.5913,3.5858,3.5711,3.5611,3.5477,3.5294,3.5046,3.4859,3.4797,3.4548,3.436,3.436,3.436,3.4298,3.4235,3.3922,3.3859,3.3796,3.3481,3.3418,3.3418,3.3418,3.3418,3.3418,3.3418,3.3418,3.3418,3.3418,3.3418,3.3418,3.3418,3.3418,3.3418,3.3418,3.3418,3.3418,3.3418,3.3418,3.3418,3.3418,3.3418,3.3418,3.3418,3.3418,3.3418,3.3418,3.3418,3.3418,3.3418,3.3418,3.3418,3.3418,3.3418,3.3418,3.3418,3.3418,3.3418,3.3418,3.3418,3.3418,3.3418,3.3418,3.3418,3.3418,3.3418,3.3418,3.3418,3.3418,3.3418,3.3418,3.3418,3.3418,3.0898,0.0,0.0,0.0,0.0,0.0,0.0,0.0,0.0,0.0,0.0,0.0,0.0,0.0,0.0,0.0,0.0,0.0,0.0,0.0,0.0,0.0,0.0,0.0,0.0,0.0,0.0,0.0,3.5,3.5469,3.5664,3.5898,3.6016,3.6016,3.6016,3.6016,3.6016,3.6016,3.6016,3.6016,3.5975,3.5838,3.5666,3.5679,3.5595,3.5418,3.5232,3.517,3.517,3.5046,3.4859,3.4673,3.4673,3.4548,3.436,3.4235,3.4047,3.3859,3.3733,3.3544,3.3418,3.3418,3.3418,3.3418,3.3418,3.3418,3.3418,3.3418,3.3418,3.3418,3.3418,3.3418,3.3418,3.3418,3.3418,3.3418,3.3607,3.3544,3.3418,3.3418,3.3418,3.3418,3.3418,3.3418,3.3418,3.3418,3.3418,3.3418,3.3418,3.3418,3.3418,3.3418,3.3418,3.3418,3.3418,3.3418,3.3418,3.3418,3.3418,3.3418,3.3418,3.3418,3.3418,3.3418,3.3418,3.3418,3.3418,3.3418,3.3418,3.3418,3.3418,3.3418,0.0,0.0,0.0,0.0,0.0,0.0,0.0,0.0,0.0,0.0,0.0,0.0,0.0,0.0,0.0,0.0,0.0,0.0,0.0,0.0,0.0,0.0,0.0,0.0,0.0,0.0,0.0,0.0,3.4687,3.5156,3.5391,3.5684,3.5918,3.6016,3.6016,3.6016,3.6016,3.6016,3.6016,3.6016,3.6016,3.5882,3.5666,3.5666,3.5588,3.5418,3.5418,3.5418,3.5418,3.5418,3.5232,3.5046,3.5046,3.4859,3.4673,3.4548,3.436,3.411,3.3985,3.3733,3.3481,3.3418,3.3418,3.3418,3.3418,3.3418,3.3418,3.3418,3.3418,3.3418,3.3418,3.3418,3.3418,3.3418,3.3481,3.3607,3.3859,3.3796,3.3607,3.3544,3.3544,3.3481,3.3418,3.3418,3.3418,3.3418,3.3418,3.3418,3.3418,3.3418,3.3418,3.3418,3.3418,3.3418,3.3418,3.3418,3.3418,3.3418,3.3418,3.3418,3.3418,3.3418,3.3418,3.3418,3.3418,3.3418,3.3418,3.3418,3.3418,3.3418,3.3418,3.3418,0.0,0.0,0.0,0.0,0.0,0.0,0.0,0.0,0.0,0.0,0.0,0.0,0.0,0.0,0.0,0.0,0.0,0.0,0.0,0.0,0.0,0.0,0.0,0.0,0.0,0.0,0.0,0.0,3.4121,3.4512,3.5351,3.541,3.5605,3.6016,3.6016,3.6016,3.6016,3.6016,3.6016,3.6016,3.6016,3.5882,3.5666,3.5666,3.5588,3.5418,3.5418,3.5418,3.5418,3.5418,3.5356,3.5356,3.5356,3.5356,3.5294,3.4984,3.4859,3.4735,3.411,3.3859,3.3796,3.3481,3.3418,3.3418,3.3418,3.3418,3.3418,3.3418,3.3418,3.3418,3.3418,3.3418,3.3418,3.3418,3.367,3.3859,3.3922,3.411,3.4235,3.3922,3.3859,3.3796,3.3418,3.3418,3.3418,3.3418,3.3418,3.3418,3.3418,3.3418,3.3418,3.3418,3.3418,3.3418,3.3418,3.3418,3.3418,3.3418,3.3418,3.3418,3.3418,3.3418,3.3418,3.3418,3.3418,3.3418,3.3418,3.3418,3.3418,3.3418,3.3418,3.3418,0.0,0.0,0.0,0.0,0.0,0.0,0.0,0.0,0.0,0.0,0.0,0.0,0.0,0.0,0.0,0.0,0.0,0.0,0.0,0.0,0.0,0.0,0.0,0.0,0.0,0.0,0.0,0.0,0.0,3.4219,3.4531,3.5078,3.5469,3.5605,3.5879,3.6016,3.6016,3.6016,3.6016,3.6016,3.6016,3.5882,3.5666,3.5666,3.5588,3.5418,3.5418,3.5418,3.5418,3.5418,3.5418,3.5418,3.5418,3.5418,3.5356,3.5294,3.5108,3.4859,3.436,3.411,3.3859,3.3481,3.3418,3.3418,3.3418,3.3418,3.3418,3.3418,3.3418,3.3418,3.3418,3.3544,3.3796,3.3985,3.4298,3.4485,3.4298,3.4298,3.4298,3.3985,3.3922,3.3859,3.3733,3.3544,3.3418,3.3418,3.3418,3.3418,3.3418,3.3418,3.3418,3.3418,3.3418,3.3418,3.3418,3.3418,3.3418,3.3418,3.3418,3.3418,3.3418,3.3418,3.3555,3.3828,3.3848,3.3691,3.3418,3.3418,3.3418,3.3418,3.3418,3.3418,3.0898,0.0,0.0,0.0,0.0,0.0,0.0,0.0,0.0,0.0,0.0,0.0,0.0,0.0,0.0,0.0,0.0,0.0,0.0,0.0,0.0,0.0,0.0,0.0,0.0,0.0,0.0,0.0,0.0,0.0,3.4062,3.4629,3.5098,3.5391,3.5664,3.5879,3.6016,3.6016,3.6016,3.6016,3.6014,3.5877,3.5666,3.5654,3.5572,3.5418,3.5418,3.5418,3.5418,3.5418,3.5418,3.5418,3.5418,3.5418,3.5418,3.5418,3.5232,3.5046,3.4673,3.436,3.3985,3.367,3.3481,3.3418,3.3418,3.3418,3.3418,3.3418,3.3418,3.3418,3.3418,3.367,3.3985,3.4485,3.4735,3.4797,3.4485,3.461,3.461,3.4173,3.4173,3.4173,3.3922,3.3733,3.3544,3.3418,3.3418,3.3418,3.3418,3.3418,3.3418,3.3418,3.3418,3.3418,3.3418,3.3418,3.3418,3.3418,3.3418,3.3418,3.3418,3.3555,3.3769,3.4062,3.4219,3.4141,3.3848,3.3848,3.3848,3.3848,3.3848,3.3848,0.0,0.0,0.0,0.0,0.0,0.0,0.0,0.0,0.0,0.0,0.0,0.0,0.0,0.0,0.0,0.0,0.0,0.0,0.0,0.0,0.0,0.0,0.0,0.0,0.0,0.0,0.0,0.0,3.3418,3.3613,3.4023,3.4062,3.4473,3.5351,3.5371,3.5566,3.5976,3.5976,3.5976,3.5976,3.5902,3.5844,3.5711,3.5608,3.5539,3.5418,3.5418,3.5418,3.5418,3.5418,3.5418,3.5418,3.5418,3.5418,3.5418,3.5418,3.5418,3.5356,3.5046,3.4673,3.436,3.3985,3.367,3.3418,3.3418,3.3418,3.3418,3.3418,3.3418,3.3418,3.3418,3.367,3.411,3.4735,3.4922,3.4797,3.4485,3.4922,3.517,3.4548,3.4673,3.4673,3.4047,3.3922,3.3796,3.3481,3.3418,3.3418,3.3418,3.3418,3.3418,3.3418,3.3418,3.3418,3.3418,3.3418,3.3418,3.3418,3.3418,3.3418,3.3418,3.3828,3.4062,3.4082,3.4492,3.4707,3.4746,3.4707,3.4707,3.4707,3.4707,3.4707,3.0898,0.0,0.0,0.0,0.0,0.0,3.219,3.2707,0.0,0.0,0.0,0.0,0.0,0.0,0.0,0.0,0.0,0.0,0.0,0.0,0.0,0.0,0.0,0.0,0.0,0.0,0.0,0.0,3.3418,3.3476,3.3594,3.3906,3.4316,3.4883,3.5146,3.5337,3.5389,3.5653,3.5785,3.5785,3.5731,3.569,3.5651,3.5593,3.5539,3.5418,3.5418,3.5418,3.5418,3.5418,3.5418,3.5418,3.5418,3.5418,3.5418,3.5418,3.5418,3.5356,3.5046,3.4859,3.4673,3.411,3.3859,3.3733,3.3481,3.3418,3.3418,3.3418,3.3418,3.3481,3.3985,3.4173,3.4423,3.5108,3.5232,3.5108,3.4548,3.4922,3.517,3.4548,3.4673,3.4859,3.4673,3.4235,3.3859,3.3796,3.3544,3.3418,3.3418,3.3418,3.3418,3.3418,3.3607,3.367,3.3418,3.3607,3.367,3.3418,3.3418,3.3418,3.3418,3.3535,3.3887,3.4512,3.4648,3.5019,3.5644,3.5019,3.4707,3.4707,3.4707,3.4883,0.0,0.0,0.0,0.0,0.0,0.0,3.2415,3.2849,3.3095,0.0,0.0,0.0,0.0,0.0,0.0,0.0,0.0,0.0,0.0,0.0,0.0,0.0,0.0,0.0,0.0,3.3418,3.3418,3.3418,3.3418,3.3418,3.3418,3.3672,3.4004,3.4434,3.4758,3.5032,3.521,3.5536,3.5666,3.5666,3.5679,3.5648,3.5595,3.5537,3.5479,3.5418,3.5418,3.5418,3.5418,3.5418,3.5418,3.5418,3.5418,3.5418,3.5418,3.5418,3.5418,3.5356,3.517,3.5046,3.4797,3.4298,3.3985,3.3859,3.3481,3.3418,3.3418,3.3418,3.3418,3.3544,3.4235,3.4423,3.4548,3.5232,3.5294,3.5046,3.4485,3.4735,3.4859,3.4485,3.4797,3.5046,3.4922,3.461,3.4298,3.411,3.3796,3.3607,3.3607,3.3481,3.3418,3.3418,3.3544,3.3607,3.3418,3.3607,3.3607,3.3418,3.3418,3.3418,3.3418,3.3594,3.3926,3.4434,3.4609,3.5059,3.5762,3.541,3.5254,3.5254,3.5254,3.5312,0.0,0.0,0.0,0.0,3.187,0.0,3.2763,3.3032,3.3175,0.0,0.0,0.0,0.0,0.0,0.0,0.0,0.0,0.0,0.0,0.0,0.0,0.0,0.0,0.0,3.3418,3.3418,3.3418,3.3418,3.3418,3.3418,3.3418,3.3418,3.3594,3.3984,3.4389,3.4695,3.5137,3.5461,3.5654,3.5654,3.559,3.5597,3.5577,3.5417,3.5418,3.5418,3.5418,3.5418,3.5418,3.5418,3.5418,3.5418,3.5418,3.5418,3.5418,3.5418,3.5418,3.5418,3.5418,3.517,3.4922,3.4548,3.4173,3.3922,3.3544,3.3418,3.3418,3.3418,3.3418,3.3544,3.4173,3.436,3.4485,3.517,3.5108,3.4797,3.4485,3.4423,3.4423,3.436,3.4859,3.5232,3.4922,3.4922,3.4797,3.4485,3.4173,3.3922,3.3922,3.3607,3.3418,3.3418,3.3418,3.3418,3.3418,3.3418,3.3418,3.3418,3.3418,3.3418,3.3418,3.3789,3.4023,3.4082,3.4492,3.4902,3.5312,3.5801,3.6016,3.6016,3.6016,3.5801,0.0,0.0,0.0,0.0,0.0,0.0,3.2954,3.3135,3.325,0.0,0.0,0.0,0.0,0.0,0.0,0.0,0.0,0.0,0.0,0.0,0.0,0.0,0.0,0.0,3.3418,3.3418,3.3418,3.3418,3.3418,3.3418,3.3418,3.3418,3.3457,3.3535,3.3871,3.4226,3.4558,3.4873,3.5187,3.5437,3.5479,3.5438,3.5438,3.5397,3.5418,3.5418,3.5418,3.5418,3.5418,3.5418,3.5418,3.5418,3.5418,3.5418,3.5418,3.5418,3.5418,3.5418,3.5418,3.5356,3.517,3.461,3.436,3.4235,3.3922,3.3607,3.3418,3.3418,3.3418,3.3481,3.3922,3.3985,3.4173,3.4859,3.4922,3.4797,3.4485,3.461,3.4673,3.411,3.4548,3.4984,3.4922,3.4922,3.4859,3.4797,3.4548,3.4173,3.3922,3.3859,3.367,3.3418,3.3607,3.367,3.3418,3.367,3.367,3.3418,3.3418,3.3418,3.3418,3.3496,3.3711,3.4062,3.4492,3.4746,3.4844,3.5625,3.6016,3.6016,3.6016,3.5801,0.0,0.0,0.0,3.2674,0.0,0.0,0.0,3.3251,3.3285,3.3316,0.0,0.0,0.0,0.0,0.0,0.0,0.0,0.0,0.0,0.0,0.0,0.0,0.0,0.0,3.3418,3.3418,3.3418,3.3418,3.3418,3.3418,3.3418,3.3418,3.3418,3.3418,3.3733,3.4047,3.4423,3.4735,3.5046,3.5418,3.5418,3.5418,3.5418,3.5418,3.5418,3.5418,3.5418,3.5418,3.5418,3.5418,3.5418,3.5418,3.5418,3.5418,3.5418,3.5418,3.5418,3.5418,3.5418,3.5418,3.5294,3.4797,3.4548,3.436,3.3985,3.367,3.3418,3.3607,3.3544,3.3481,3.3796,3.3922,3.4047,3.4548,3.4548,3.436,3.4173,3.4173,3.4047,3.3733,3.4047,3.4423,3.461,3.4673,3.4673,3.4673,3.436,3.411,3.3922,3.3733,3.3607,3.3418,3.3544,3.3607,3.3418,3.3544,3.3607,3.3418,3.3418,3.3418,3.3418,3.3418,3.3516,3.375,3.418,3.4394,3.4394,3.5039,3.5351,3.5351,3.5351,3.5137,0.0,0.0,0.0,0.0,0.0,3.3275,0.0,0.0,0.0,3.3422,0.0,0.0,0.0,0.0,0.0,0.0,0.0,0.0,0.0,0.0,0.0,0.0,0.0,0.0,0.0,3.3418,3.3418,3.3418,3.3418,3.3418,3.3418,3.3418,3.3418,3.3418,3.367,3.3985,3.4423,3.4673,3.4984,3.5418,3.5418,3.5418,3.5418,3.5418,3.5418,3.5418,3.5418,3.5418,3.5418,3.5418,3.5418,3.5418,3.5418,3.5418,3.5418,3.5418,3.5418,3.5418,3.5418,3.5418,3.5356,3.4984,3.4735,3.4423,3.411,3.3796,3.3607,3.3859,3.367,3.3481,3.3733,3.3796,3.3859,3.4235,3.411,3.3922,3.3922,3.367,3.3481,3.3418,3.3607,3.3922,3.4235,3.436,3.4423,3.4423,3.4173,3.3985,3.3922,3.367,3.3481,3.3418,3.3418,3.3418,3.3418,3.3418,3.3418,3.3418,3.3418,3.3418,3.3418,3.3418,3.3418,3.3418,3.3769,3.3945,3.3945,3.4297,3.4531,3.4707,3.4707,3.4473,0.0,0.0,0.0,0.0,3.5945,0.0,0.0,0.0,3.3359,3.3418,0.0,0.0,0.0,0.0,0.0,0.0,0.0,0.0,0.0,0.0,0.0,0.0,0.0,0.0,0.0,3.3418,3.3418,3.3418,3.3418,3.3418,3.3418,3.3418,3.3418,3.3418,3.3418,3.3733,3.4423,3.4423,3.4797,3.5418,3.5418,3.5418,3.5418,3.5418,3.5418,3.5418,3.5418,3.5418,3.5418,3.5418,3.5418,3.5418,3.5418,3.5418,3.5418,3.5418,3.5418,3.5418,3.5418,3.5418,3.5356,3.4984,3.4859,3.4797,3.4423,3.4298,3.4235,3.3985,3.367,3.3418,3.3418,3.3481,3.3544,3.3859,3.3922,3.3922,3.3922,3.3859,3.3733,3.3481,3.3418,3.3544,3.3922,3.4173,3.4423,3.4423,3.436,3.4235,3.3922,3.3859,3.3733,3.3418,3.3418,3.3418,3.3418,3.3418,3.3418,3.3418,3.3418,3.3418,3.3418,3.3418,3.3418,3.3418,3.3476,3.3496,3.3496,3.3535,3.3945,3.4707,3.4707,3.4473,0.0,0.0,0.0,0.0,0.0,0.0,3.652,0.0,3.459,0.0,0.0,0.0,0.0,0.0,0.0,0.0,0.0,0.0,0.0,0.0,0.0,0.0,0.0,0.0,0.0,0.0,0.0,0.0,3.3418,3.3418,3.3418,3.3418,3.3418,3.3418,3.3418,3.3733,3.4423,3.4235,3.4548,3.5418,3.517,3.5232,3.5418,3.5418,3.5418,3.5418,3.5418,3.5418,3.5418,3.5418,3.5418,3.5418,3.5418,3.5418,3.5418,3.5418,3.5418,3.5418,3.5418,3.5418,3.5356,3.4984,3.4922,3.4859,3.4735,3.4423,3.411,3.4173,3.3796,3.3418,3.3418,3.3418,3.3418,3.3607,3.3607,3.3607,3.3607,3.3607,3.3544,3.3418,3.3418,3.3418,3.3607,3.3733,3.3796,3.3796,3.3796,3.3796,3.3607,3.3607,3.3544,3.3418,3.3418,3.3418,3.3418,3.3418,3.3418,3.3418,3.3418,3.3418,3.3418,3.3418,3.3418,3.3418,3.3418,3.3418,3.3418,3.3418,3.3613,3.3965,3.3965,3.3867,4.0024,0.0,0.0,0.0,0.0,0.0,0.0,0.0,0.0,0.0,0.0,0.0,0.0,0.0,0.0,0.0,0.0,0.0,0.0,0.0,0.0,0.0,0.0,0.0,0.0,0.0,0.0,3.3418,3.3418,3.3418,3.3418,3.3418,3.3418,3.3418,3.3418,3.3733,3.4423,3.4173,3.4485,3.5418,3.517,3.517,3.5418,3.5418,3.5418,3.5418,3.5418,3.5418,3.5418,3.5418,3.5418,3.5418,3.5418,3.5418,3.5418,3.5418,3.5418,3.5418,3.5418,3.5418,3.5356,3.5108,3.5046,3.5046,3.5046,3.461,3.4235,3.436,3.3985,3.3544,3.3418,3.3418,3.3418,3.3418,3.3418,3.3418,3.3418,3.3418,3.3418,3.3418,3.3418,3.3418,3.3418,3.3418,3.3418,3.3418,3.3418,3.3418,3.3418,3.3418,3.3418,3.3418,3.3418,3.3418,3.3418,3.3418,3.3418,3.3418,3.3418,3.3418,3.3418,3.3418,3.3418,3.3418,3.3418,3.3418,3.3418,3.3418,3.3418,3.3418,3.3418,3.3418,0.0,0.0,0.0,4.1057,0.0,0.0,0.0,0.0,3.7248,0.0,0.0,0.0,0.0,0.0,0.0,0.0,0.0,0.0,0.0,0.0,0.0,0.0,0.0,0.0,0.0,0.0,0.0,3.3418,3.3418,3.3418,3.3418,3.3418,3.3418,3.3418,3.3418,3.3733,3.4423,3.436,3.4735,3.5418,3.5356,3.5356,3.5418,3.5418,3.5418,3.5418,3.5418,3.5418,3.5418,3.5418,3.5418,3.5418,3.5418,3.5418,3.5418,3.5418,3.5418,3.5418,3.5418,3.5418,3.5418,3.5356,3.5356,3.5356,3.5356,3.517,3.4797,3.4485,3.4173,3.3796,3.3481,3.3418,3.3418,3.3418,3.3418,3.3418,3.3418,3.3418,3.3418,3.3418,3.3418,3.3418,3.3418,3.3418,3.3418,3.3418,3.3418,3.3418,3.3418,3.3418,3.3418,3.3418,3.3418,3.3418,3.3418,3.3418,3.3418,3.3418,3.3418,3.3418,3.3418,3.3418,3.3418,3.3418,3.3418,3.3418,3.3418,3.3418,3.3418,3.3418,3.3418,3.3418,0.0,0.0,4.1629,4.1268,0.0,0.0,0.0,0.0,0.0,0.0,0.0,0.0,0.0,0.0,0.0,0.0,0.0,0.0,0.0,0.0,0.0,0.0,0.0,0.0,0.0,0.0,0.0,3.3418,3.3418,3.3418,3.3418,3.3418,3.3418,3.3418,3.3418,3.3607,3.4047,3.3859,3.4173,3.5046,3.4859,3.4984,3.5418,3.5418,3.5418,3.5418,3.5418,3.5418,3.5418,3.5418,3.5418,3.5418,3.5418,3.5418,3.5418,3.5418,3.5418,3.5418,3.5418,3.5418,3.5418,3.5418,3.5418,3.5418,3.5418,3.517,3.4859,3.4735,3.4485,3.4173,3.3796,3.3733,3.367,3.3418,3.3418,3.3418,3.3418,3.3418,3.3418,3.3418,3.3418,3.3418,3.3418,3.3418,3.3418,3.3418,3.3418,3.3418,3.3418,3.3418,3.3418,3.3418,3.3418,3.3418,3.3418,3.3418,3.3418,3.3418,3.3418,3.3418,3.3418,3.3418,3.3418,3.3418,3.3418,3.3418,3.3418,3.3418,3.3418,3.3418,3.3418,3.3418,4.241,4.2254,0.0,4.1822,4.1605,0.0,4.1461,0.0,0.0,0.0,0.0,0.0,0.0,0.0,0.0,0.0,0.0,0.0,0.0,3.4507,0.0,0.0,0.0,0.0,0.0,0.0,3.3418,3.3418,3.3418,3.3418,0.0,0.0,3.3418,3.3418,3.3418,3.3544,3.3922,3.367,3.3985,3.4735,3.461,3.4735,3.5046,3.5294,3.5356,3.5232,3.5356,3.5418,3.5418,3.5418,3.5418,3.5418,3.5418,3.5418,3.5418,3.5418,3.5418,3.5418,3.5418,3.5418,3.5418,3.5418,3.5418,3.5418,3.5418,3.5232,3.5046,3.4797,3.4673,3.4423,3.3859,3.3796,3.3796,3.3481,3.3418,3.3418,3.3418,3.3418,3.3418,3.3418,3.3418,3.3418,3.3418,3.3418,3.3418,3.3418,3.3418,3.3418,3.3418,3.3418,3.3418,3.3418,3.3418,3.3418,3.3418,3.3418,3.3418,3.3418,3.3418,3.3418,3.3418,3.3418,3.3418,3.3418,3.3418,3.3418,3.3418,3.3418,3.3418,3.3418,3.3418,3.3418]}]]